<?xml version="1.0" encoding="UTF-8" standalone="no" ?>
<gpx xmlns="http://www.topografix.com/GPX/1/1" xmlns:xsi="http://www.w3.org/2001/XMLSchema-instance" xsi:schemaLocation="http://www.topografix.com/GPX/1/1 http://www.topografix.com/GPX/1/1/gpx.xsd" version="1.1" creator="VisuGPX - https://www.visugpx.com">
  <metadata>
    <name>2020-07-24-01 but de l'aiglette</name>
    <desc><![CDATA[Départ du camping]]></desc>
  </metadata>
  <trk>
    <name><![CDATA[2020-07-24-01 but de l'aiglette]]></name>
    <extensions>
      <line xmlns="http://www.topografix.com/GPX/gpx_style/0/2">
        <color>0000FF</color>
        <width>4</width>
      </line>
    </extensions>
    <trkseg>
      <trkpt lat="44.87896" lon="5.37792">
        <ele>1094.7</ele>
        <time>2020-07-24T08:52:00.000Z</time>
      </trkpt>
      <trkpt lat="44.87896" lon="5.37791">
        <ele>1094.7</ele>
        <time>2020-07-24T08:52:01.000Z</time>
      </trkpt>
      <trkpt lat="44.87902" lon="5.37801">
        <ele>1095.1</ele>
        <time>2020-07-24T09:06:51.000Z</time>
      </trkpt>
      <trkpt lat="44.87908" lon="5.37789">
        <ele>1094.8</ele>
        <time>2020-07-24T09:07:11.000Z</time>
      </trkpt>
      <trkpt lat="44.8791" lon="5.37776">
        <ele>1094.5</ele>
        <time>2020-07-24T09:07:19.000Z</time>
      </trkpt>
      <trkpt lat="44.87909" lon="5.37763">
        <ele>1093.9</ele>
        <time>2020-07-24T09:07:28.000Z</time>
      </trkpt>
      <trkpt lat="44.87902" lon="5.37753">
        <ele>1093.7</ele>
        <time>2020-07-24T09:07:38.000Z</time>
      </trkpt>
      <trkpt lat="44.879" lon="5.37741">
        <ele>1093.1</ele>
        <time>2020-07-24T09:08:11.000Z</time>
      </trkpt>
      <trkpt lat="44.87893" lon="5.37731">
        <ele>1093.1</ele>
        <time>2020-07-24T09:08:20.000Z</time>
      </trkpt>
      <trkpt lat="44.87884" lon="5.37731">
        <ele>1093</ele>
        <time>2020-07-24T09:08:27.000Z</time>
      </trkpt>
      <trkpt lat="44.87874" lon="5.37735">
        <ele>1093</ele>
        <time>2020-07-24T09:08:35.000Z</time>
      </trkpt>
      <trkpt lat="44.87865" lon="5.37738">
        <ele>1093.4</ele>
        <time>2020-07-24T09:08:46.000Z</time>
      </trkpt>
      <trkpt lat="44.87856" lon="5.37741">
        <ele>1093.5</ele>
        <time>2020-07-24T09:08:54.000Z</time>
      </trkpt>
      <trkpt lat="44.87846" lon="5.37745">
        <ele>1093.9</ele>
        <time>2020-07-24T09:09:02.000Z</time>
      </trkpt>
      <trkpt lat="44.87837" lon="5.37748">
        <ele>1094.2</ele>
        <time>2020-07-24T09:09:10.000Z</time>
      </trkpt>
      <trkpt lat="44.87828" lon="5.37751">
        <ele>1094.6</ele>
        <time>2020-07-24T09:09:18.000Z</time>
      </trkpt>
      <trkpt lat="44.87819" lon="5.37754">
        <ele>1094.8</ele>
        <time>2020-07-24T09:09:25.000Z</time>
      </trkpt>
      <trkpt lat="44.87809" lon="5.37758">
        <ele>1095</ele>
        <time>2020-07-24T09:09:33.000Z</time>
      </trkpt>
      <trkpt lat="44.878" lon="5.37761">
        <ele>1095.4</ele>
        <time>2020-07-24T09:09:41.000Z</time>
      </trkpt>
      <trkpt lat="44.87791" lon="5.37765">
        <ele>1095.9</ele>
        <time>2020-07-24T09:09:49.000Z</time>
      </trkpt>
      <trkpt lat="44.87781" lon="5.37768">
        <ele>1095.9</ele>
        <time>2020-07-24T09:09:57.000Z</time>
      </trkpt>
      <trkpt lat="44.87772" lon="5.37771">
        <ele>1096.4</ele>
        <time>2020-07-24T09:10:05.000Z</time>
      </trkpt>
      <trkpt lat="44.87763" lon="5.37775">
        <ele>1096.7</ele>
        <time>2020-07-24T09:10:13.000Z</time>
      </trkpt>
      <trkpt lat="44.87753" lon="5.37779">
        <ele>1096.8</ele>
        <time>2020-07-24T09:10:22.000Z</time>
      </trkpt>
      <trkpt lat="44.87744" lon="5.37782">
        <ele>1097</ele>
        <time>2020-07-24T09:10:30.000Z</time>
      </trkpt>
      <trkpt lat="44.87734" lon="5.37786">
        <ele>1097.4</ele>
        <time>2020-07-24T09:10:37.000Z</time>
      </trkpt>
      <trkpt lat="44.87725" lon="5.37789">
        <ele>1097.7</ele>
        <time>2020-07-24T09:10:45.000Z</time>
      </trkpt>
      <trkpt lat="44.87715" lon="5.37792">
        <ele>1097.9</ele>
        <time>2020-07-24T09:10:53.000Z</time>
      </trkpt>
      <trkpt lat="44.87706" lon="5.37797">
        <ele>1098.1</ele>
        <time>2020-07-24T09:11:01.000Z</time>
      </trkpt>
      <trkpt lat="44.87696" lon="5.378">
        <ele>1098.4</ele>
        <time>2020-07-24T09:11:09.000Z</time>
      </trkpt>
      <trkpt lat="44.87687" lon="5.37803">
        <ele>1098.5</ele>
        <time>2020-07-24T09:11:17.000Z</time>
      </trkpt>
      <trkpt lat="44.87678" lon="5.37807">
        <ele>1098.5</ele>
        <time>2020-07-24T09:11:25.000Z</time>
      </trkpt>
      <trkpt lat="44.87668" lon="5.37811">
        <ele>1098.7</ele>
        <time>2020-07-24T09:11:33.000Z</time>
      </trkpt>
      <trkpt lat="44.87659" lon="5.37814">
        <ele>1099.1</ele>
        <time>2020-07-24T09:11:41.000Z</time>
      </trkpt>
      <trkpt lat="44.8765" lon="5.37817">
        <ele>1099.2</ele>
        <time>2020-07-24T09:11:49.000Z</time>
      </trkpt>
      <trkpt lat="44.87641" lon="5.37821">
        <ele>1099.5</ele>
        <time>2020-07-24T09:11:57.000Z</time>
      </trkpt>
      <trkpt lat="44.87631" lon="5.37825">
        <ele>1099.8</ele>
        <time>2020-07-24T09:12:05.000Z</time>
      </trkpt>
      <trkpt lat="44.87622" lon="5.37828">
        <ele>1100.2</ele>
        <time>2020-07-24T09:12:13.000Z</time>
      </trkpt>
      <trkpt lat="44.87612" lon="5.37831">
        <ele>1100.8</ele>
        <time>2020-07-24T09:12:21.000Z</time>
      </trkpt>
      <trkpt lat="44.87602" lon="5.37835">
        <ele>1101.2</ele>
        <time>2020-07-24T09:12:29.000Z</time>
      </trkpt>
      <trkpt lat="44.87593" lon="5.37839">
        <ele>1101.8</ele>
        <time>2020-07-24T09:12:37.000Z</time>
      </trkpt>
      <trkpt lat="44.87584" lon="5.37843">
        <ele>1102.3</ele>
        <time>2020-07-24T09:12:45.000Z</time>
      </trkpt>
      <trkpt lat="44.87574" lon="5.37846">
        <ele>1102.6</ele>
        <time>2020-07-24T09:12:53.000Z</time>
      </trkpt>
      <trkpt lat="44.87565" lon="5.37849">
        <ele>1102.9</ele>
        <time>2020-07-24T09:13:01.000Z</time>
      </trkpt>
      <trkpt lat="44.87556" lon="5.37852">
        <ele>1103.1</ele>
        <time>2020-07-24T09:13:09.000Z</time>
      </trkpt>
      <trkpt lat="44.87546" lon="5.37856">
        <ele>1103.6</ele>
        <time>2020-07-24T09:13:17.000Z</time>
      </trkpt>
      <trkpt lat="44.87537" lon="5.3786">
        <ele>1104</ele>
        <time>2020-07-24T09:13:25.000Z</time>
      </trkpt>
      <trkpt lat="44.87528" lon="5.37863">
        <ele>1104.3</ele>
        <time>2020-07-24T09:13:33.000Z</time>
      </trkpt>
      <trkpt lat="44.87518" lon="5.37867">
        <ele>1104.7</ele>
        <time>2020-07-24T09:13:41.000Z</time>
      </trkpt>
      <trkpt lat="44.87509" lon="5.3787">
        <ele>1105</ele>
        <time>2020-07-24T09:13:49.000Z</time>
      </trkpt>
      <trkpt lat="44.87499" lon="5.37874">
        <ele>1105</ele>
        <time>2020-07-24T09:13:57.000Z</time>
      </trkpt>
      <trkpt lat="44.8749" lon="5.37877">
        <ele>1105.2</ele>
        <time>2020-07-24T09:14:05.000Z</time>
      </trkpt>
      <trkpt lat="44.8748" lon="5.37881">
        <ele>1105.5</ele>
        <time>2020-07-24T09:14:13.000Z</time>
      </trkpt>
      <trkpt lat="44.87471" lon="5.37884">
        <ele>1105.6</ele>
        <time>2020-07-24T09:14:20.000Z</time>
      </trkpt>
      <trkpt lat="44.87462" lon="5.37889">
        <ele>1105.7</ele>
        <time>2020-07-24T09:14:28.000Z</time>
      </trkpt>
      <trkpt lat="44.87453" lon="5.37893">
        <ele>1105.8</ele>
        <time>2020-07-24T09:14:36.000Z</time>
      </trkpt>
      <trkpt lat="44.87444" lon="5.37896">
        <ele>1105.9</ele>
        <time>2020-07-24T09:14:44.000Z</time>
      </trkpt>
      <trkpt lat="44.87435" lon="5.37899">
        <ele>1105.9</ele>
        <time>2020-07-24T09:14:52.000Z</time>
      </trkpt>
      <trkpt lat="44.87426" lon="5.37902">
        <ele>1106</ele>
        <time>2020-07-24T09:14:59.000Z</time>
      </trkpt>
      <trkpt lat="44.87416" lon="5.37905">
        <ele>1106.1</ele>
        <time>2020-07-24T09:15:07.000Z</time>
      </trkpt>
      <trkpt lat="44.87407" lon="5.37908">
        <ele>1106.2</ele>
        <time>2020-07-24T09:15:15.000Z</time>
      </trkpt>
      <trkpt lat="44.87398" lon="5.37911">
        <ele>1106.2</ele>
        <time>2020-07-24T09:15:23.000Z</time>
      </trkpt>
      <trkpt lat="44.87389" lon="5.37915">
        <ele>1106.2</ele>
        <time>2020-07-24T09:15:31.000Z</time>
      </trkpt>
      <trkpt lat="44.8738" lon="5.37919">
        <ele>1106.2</ele>
        <time>2020-07-24T09:15:39.000Z</time>
      </trkpt>
      <trkpt lat="44.87371" lon="5.37922">
        <ele>1106.4</ele>
        <time>2020-07-24T09:15:46.000Z</time>
      </trkpt>
      <trkpt lat="44.87361" lon="5.37925">
        <ele>1106.8</ele>
        <time>2020-07-24T09:15:54.000Z</time>
      </trkpt>
      <trkpt lat="44.87352" lon="5.3793">
        <ele>1107.1</ele>
        <time>2020-07-24T09:16:02.000Z</time>
      </trkpt>
      <trkpt lat="44.87343" lon="5.37935">
        <ele>1107.1</ele>
        <time>2020-07-24T09:16:10.000Z</time>
      </trkpt>
      <trkpt lat="44.87333" lon="5.37938">
        <ele>1107.3</ele>
        <time>2020-07-24T09:16:18.000Z</time>
      </trkpt>
      <trkpt lat="44.87324" lon="5.37939">
        <ele>1107.4</ele>
        <time>2020-07-24T09:16:26.000Z</time>
      </trkpt>
      <trkpt lat="44.87315" lon="5.37939">
        <ele>1107.5</ele>
        <time>2020-07-24T09:16:35.000Z</time>
      </trkpt>
      <trkpt lat="44.87305" lon="5.37936">
        <ele>1107.8</ele>
        <time>2020-07-24T09:16:44.000Z</time>
      </trkpt>
      <trkpt lat="44.87296" lon="5.37932">
        <ele>1108.2</ele>
        <time>2020-07-24T09:16:52.000Z</time>
      </trkpt>
      <trkpt lat="44.87287" lon="5.37928">
        <ele>1108.4</ele>
        <time>2020-07-24T09:17:00.000Z</time>
      </trkpt>
      <trkpt lat="44.87278" lon="5.37926">
        <ele>1108.5</ele>
        <time>2020-07-24T09:17:07.000Z</time>
      </trkpt>
      <trkpt lat="44.87268" lon="5.37922">
        <ele>1108.7</ele>
        <time>2020-07-24T09:17:15.000Z</time>
      </trkpt>
      <trkpt lat="44.87259" lon="5.37918">
        <ele>1108.7</ele>
        <time>2020-07-24T09:17:23.000Z</time>
      </trkpt>
      <trkpt lat="44.8725" lon="5.37915">
        <ele>1108.8</ele>
        <time>2020-07-24T09:17:30.000Z</time>
      </trkpt>
      <trkpt lat="44.87241" lon="5.37912">
        <ele>1109.1</ele>
        <time>2020-07-24T09:17:38.000Z</time>
      </trkpt>
      <trkpt lat="44.87231" lon="5.3791">
        <ele>1109.4</ele>
        <time>2020-07-24T09:17:45.000Z</time>
      </trkpt>
      <trkpt lat="44.87222" lon="5.37907">
        <ele>1109.5</ele>
        <time>2020-07-24T09:17:53.000Z</time>
      </trkpt>
      <trkpt lat="44.87213" lon="5.37904">
        <ele>1109.7</ele>
        <time>2020-07-24T09:18:00.000Z</time>
      </trkpt>
      <trkpt lat="44.87204" lon="5.37901">
        <ele>1109.9</ele>
        <time>2020-07-24T09:18:08.000Z</time>
      </trkpt>
      <trkpt lat="44.87194" lon="5.37898">
        <ele>1110.1</ele>
        <time>2020-07-24T09:18:16.000Z</time>
      </trkpt>
      <trkpt lat="44.87185" lon="5.37894">
        <ele>1110.4</ele>
        <time>2020-07-24T09:18:24.000Z</time>
      </trkpt>
      <trkpt lat="44.87175" lon="5.37891">
        <ele>1110.7</ele>
        <time>2020-07-24T09:18:32.000Z</time>
      </trkpt>
      <trkpt lat="44.87165" lon="5.37887">
        <ele>1111.1</ele>
        <time>2020-07-24T09:18:40.000Z</time>
      </trkpt>
      <trkpt lat="44.87156" lon="5.37885">
        <ele>1111.4</ele>
        <time>2020-07-24T09:18:48.000Z</time>
      </trkpt>
      <trkpt lat="44.87146" lon="5.37883">
        <ele>1111.6</ele>
        <time>2020-07-24T09:18:56.000Z</time>
      </trkpt>
      <trkpt lat="44.87137" lon="5.3788">
        <ele>1112</ele>
        <time>2020-07-24T09:19:04.000Z</time>
      </trkpt>
      <trkpt lat="44.87127" lon="5.37877">
        <ele>1112.4</ele>
        <time>2020-07-24T09:19:12.000Z</time>
      </trkpt>
      <trkpt lat="44.87118" lon="5.37873">
        <ele>1112.6</ele>
        <time>2020-07-24T09:19:20.000Z</time>
      </trkpt>
      <trkpt lat="44.87108" lon="5.37871">
        <ele>1112.8</ele>
        <time>2020-07-24T09:19:28.000Z</time>
      </trkpt>
      <trkpt lat="44.87099" lon="5.37868">
        <ele>1112.8</ele>
        <time>2020-07-24T09:19:36.000Z</time>
      </trkpt>
      <trkpt lat="44.87089" lon="5.37864">
        <ele>1112.9</ele>
        <time>2020-07-24T09:19:44.000Z</time>
      </trkpt>
      <trkpt lat="44.8708" lon="5.37861">
        <ele>1113.1</ele>
        <time>2020-07-24T09:19:52.000Z</time>
      </trkpt>
      <trkpt lat="44.87071" lon="5.37858">
        <ele>1113.3</ele>
        <time>2020-07-24T09:19:59.000Z</time>
      </trkpt>
      <trkpt lat="44.87062" lon="5.37855">
        <ele>1113.5</ele>
        <time>2020-07-24T09:20:07.000Z</time>
      </trkpt>
      <trkpt lat="44.87053" lon="5.37852">
        <ele>1113.6</ele>
        <time>2020-07-24T09:20:15.000Z</time>
      </trkpt>
      <trkpt lat="44.87043" lon="5.37849">
        <ele>1113.8</ele>
        <time>2020-07-24T09:20:23.000Z</time>
      </trkpt>
      <trkpt lat="44.87034" lon="5.37846">
        <ele>1114.1</ele>
        <time>2020-07-24T09:20:31.000Z</time>
      </trkpt>
      <trkpt lat="44.87024" lon="5.37844">
        <ele>1114.3</ele>
        <time>2020-07-24T09:20:39.000Z</time>
      </trkpt>
      <trkpt lat="44.87015" lon="5.3784">
        <ele>1114.5</ele>
        <time>2020-07-24T09:20:47.000Z</time>
      </trkpt>
      <trkpt lat="44.87005" lon="5.37838">
        <ele>1115.2</ele>
        <time>2020-07-24T09:20:56.000Z</time>
      </trkpt>
      <trkpt lat="44.86995" lon="5.37836">
        <ele>1116</ele>
        <time>2020-07-24T09:21:04.000Z</time>
      </trkpt>
      <trkpt lat="44.86985" lon="5.37835">
        <ele>1116.5</ele>
        <time>2020-07-24T09:21:12.000Z</time>
      </trkpt>
      <trkpt lat="44.86976" lon="5.37837">
        <ele>1116.7</ele>
        <time>2020-07-24T09:21:20.000Z</time>
      </trkpt>
      <trkpt lat="44.86965" lon="5.37837">
        <ele>1116.8</ele>
        <time>2020-07-24T09:21:32.000Z</time>
      </trkpt>
      <trkpt lat="44.86956" lon="5.37837">
        <ele>1117</ele>
        <time>2020-07-24T09:21:40.000Z</time>
      </trkpt>
      <trkpt lat="44.86946" lon="5.37838">
        <ele>1117.4</ele>
        <time>2020-07-24T09:21:48.000Z</time>
      </trkpt>
      <trkpt lat="44.86936" lon="5.37838">
        <ele>1117.7</ele>
        <time>2020-07-24T09:21:56.000Z</time>
      </trkpt>
      <trkpt lat="44.86926" lon="5.37839">
        <ele>1118</ele>
        <time>2020-07-24T09:22:04.000Z</time>
      </trkpt>
      <trkpt lat="44.86916" lon="5.37839">
        <ele>1118</ele>
        <time>2020-07-24T09:22:12.000Z</time>
      </trkpt>
      <trkpt lat="44.86907" lon="5.37839">
        <ele>1118</ele>
        <time>2020-07-24T09:22:19.000Z</time>
      </trkpt>
      <trkpt lat="44.86897" lon="5.37839">
        <ele>1118</ele>
        <time>2020-07-24T09:22:27.000Z</time>
      </trkpt>
      <trkpt lat="44.86888" lon="5.3784">
        <ele>1118.1</ele>
        <time>2020-07-24T09:22:35.000Z</time>
      </trkpt>
      <trkpt lat="44.86879" lon="5.37841">
        <ele>1118.2</ele>
        <time>2020-07-24T09:22:43.000Z</time>
      </trkpt>
      <trkpt lat="44.86869" lon="5.37841">
        <ele>1118.4</ele>
        <time>2020-07-24T09:22:51.000Z</time>
      </trkpt>
      <trkpt lat="44.8686" lon="5.37842">
        <ele>1118.5</ele>
        <time>2020-07-24T09:22:59.000Z</time>
      </trkpt>
      <trkpt lat="44.86851" lon="5.37842">
        <ele>1118.6</ele>
        <time>2020-07-24T09:23:07.000Z</time>
      </trkpt>
      <trkpt lat="44.86843" lon="5.3785">
        <ele>1119.4</ele>
        <time>2020-07-24T09:23:20.000Z</time>
      </trkpt>
      <trkpt lat="44.86838" lon="5.37862">
        <ele>1119.7</ele>
        <time>2020-07-24T09:23:27.000Z</time>
      </trkpt>
      <trkpt lat="44.86837" lon="5.37876">
        <ele>1120.1</ele>
        <time>2020-07-24T09:23:34.000Z</time>
      </trkpt>
      <trkpt lat="44.86836" lon="5.37889">
        <ele>1120.6</ele>
        <time>2020-07-24T09:23:41.000Z</time>
      </trkpt>
      <trkpt lat="44.86837" lon="5.37903">
        <ele>1120.9</ele>
        <time>2020-07-24T09:23:48.000Z</time>
      </trkpt>
      <trkpt lat="44.86837" lon="5.37917">
        <ele>1121.1</ele>
        <time>2020-07-24T09:23:55.000Z</time>
      </trkpt>
      <trkpt lat="44.86837" lon="5.37929">
        <ele>1121.3</ele>
        <time>2020-07-24T09:24:02.000Z</time>
      </trkpt>
      <trkpt lat="44.86836" lon="5.37944">
        <ele>1121.3</ele>
        <time>2020-07-24T09:24:10.000Z</time>
      </trkpt>
      <trkpt lat="44.86837" lon="5.37957">
        <ele>1121.3</ele>
        <time>2020-07-24T09:24:18.000Z</time>
      </trkpt>
      <trkpt lat="44.86827" lon="5.37958">
        <ele>1121</ele>
        <time>2020-07-24T09:26:27.000Z</time>
      </trkpt>
      <trkpt lat="44.86818" lon="5.37959">
        <ele>1121.1</ele>
        <time>2020-07-24T09:26:34.000Z</time>
      </trkpt>
      <trkpt lat="44.86808" lon="5.37958">
        <ele>1120.9</ele>
        <time>2020-07-24T09:26:42.000Z</time>
      </trkpt>
      <trkpt lat="44.86798" lon="5.37957">
        <ele>1120.8</ele>
        <time>2020-07-24T09:26:51.000Z</time>
      </trkpt>
      <trkpt lat="44.86787" lon="5.37956">
        <ele>1120.9</ele>
        <time>2020-07-24T09:26:59.000Z</time>
      </trkpt>
      <trkpt lat="44.86778" lon="5.37956">
        <ele>1121</ele>
        <time>2020-07-24T09:27:06.000Z</time>
      </trkpt>
      <trkpt lat="44.86768" lon="5.37956">
        <ele>1121.2</ele>
        <time>2020-07-24T09:27:13.000Z</time>
      </trkpt>
      <trkpt lat="44.86758" lon="5.37956">
        <ele>1121.2</ele>
        <time>2020-07-24T09:27:23.000Z</time>
      </trkpt>
      <trkpt lat="44.86748" lon="5.37957">
        <ele>1121.4</ele>
        <time>2020-07-24T09:27:31.000Z</time>
      </trkpt>
      <trkpt lat="44.86738" lon="5.37955">
        <ele>1121.6</ele>
        <time>2020-07-24T09:27:39.000Z</time>
      </trkpt>
      <trkpt lat="44.86729" lon="5.37958">
        <ele>1121.7</ele>
        <time>2020-07-24T09:27:46.000Z</time>
      </trkpt>
      <trkpt lat="44.8672" lon="5.37956">
        <ele>1122.1</ele>
        <time>2020-07-24T09:27:54.000Z</time>
      </trkpt>
      <trkpt lat="44.8671" lon="5.37956">
        <ele>1122.5</ele>
        <time>2020-07-24T09:28:02.000Z</time>
      </trkpt>
      <trkpt lat="44.86701" lon="5.3796">
        <ele>1123.5</ele>
        <time>2020-07-24T09:31:29.000Z</time>
      </trkpt>
      <trkpt lat="44.86691" lon="5.37958">
        <ele>1123.9</ele>
        <time>2020-07-24T09:31:38.000Z</time>
      </trkpt>
      <trkpt lat="44.86682" lon="5.37958">
        <ele>1124.3</ele>
        <time>2020-07-24T09:31:47.000Z</time>
      </trkpt>
      <trkpt lat="44.86673" lon="5.37957">
        <ele>1124.9</ele>
        <time>2020-07-24T09:31:55.000Z</time>
      </trkpt>
      <trkpt lat="44.86664" lon="5.37959">
        <ele>1125.5</ele>
        <time>2020-07-24T09:32:05.000Z</time>
      </trkpt>
      <trkpt lat="44.86654" lon="5.37961">
        <ele>1126.3</ele>
        <time>2020-07-24T09:32:15.000Z</time>
      </trkpt>
      <trkpt lat="44.86645" lon="5.37962">
        <ele>1127.4</ele>
        <time>2020-07-24T09:32:26.000Z</time>
      </trkpt>
      <trkpt lat="44.86636" lon="5.37964">
        <ele>1128.9</ele>
        <time>2020-07-24T09:32:40.000Z</time>
      </trkpt>
      <trkpt lat="44.86625" lon="5.37964">
        <ele>1129.6</ele>
        <time>2020-07-24T09:32:47.000Z</time>
      </trkpt>
      <trkpt lat="44.86616" lon="5.37969">
        <ele>1130.3</ele>
        <time>2020-07-24T09:32:54.000Z</time>
      </trkpt>
      <trkpt lat="44.86607" lon="5.37971">
        <ele>1130.8</ele>
        <time>2020-07-24T09:33:02.000Z</time>
      </trkpt>
      <trkpt lat="44.86598" lon="5.37967">
        <ele>1131.8</ele>
        <time>2020-07-24T09:33:12.000Z</time>
      </trkpt>
      <trkpt lat="44.86589" lon="5.37968">
        <ele>1132.3</ele>
        <time>2020-07-24T09:33:20.000Z</time>
      </trkpt>
      <trkpt lat="44.86579" lon="5.37969">
        <ele>1132.9</ele>
        <time>2020-07-24T09:33:29.000Z</time>
      </trkpt>
      <trkpt lat="44.86569" lon="5.3797">
        <ele>1133.6</ele>
        <time>2020-07-24T09:33:38.000Z</time>
      </trkpt>
      <trkpt lat="44.8656" lon="5.37971">
        <ele>1134</ele>
        <time>2020-07-24T09:33:47.000Z</time>
      </trkpt>
      <trkpt lat="44.8655" lon="5.37974">
        <ele>1134.6</ele>
        <time>2020-07-24T09:33:56.000Z</time>
      </trkpt>
      <trkpt lat="44.86541" lon="5.37976">
        <ele>1135</ele>
        <time>2020-07-24T09:34:04.000Z</time>
      </trkpt>
      <trkpt lat="44.86532" lon="5.37977">
        <ele>1135.1</ele>
        <time>2020-07-24T09:34:12.000Z</time>
      </trkpt>
      <trkpt lat="44.86523" lon="5.3798">
        <ele>1135.5</ele>
        <time>2020-07-24T09:34:28.000Z</time>
      </trkpt>
      <trkpt lat="44.86514" lon="5.37981">
        <ele>1135.6</ele>
        <time>2020-07-24T09:34:36.000Z</time>
      </trkpt>
      <trkpt lat="44.86504" lon="5.37983">
        <ele>1135.5</ele>
        <time>2020-07-24T09:34:45.000Z</time>
      </trkpt>
      <trkpt lat="44.86494" lon="5.37985">
        <ele>1135.6</ele>
        <time>2020-07-24T09:34:54.000Z</time>
      </trkpt>
      <trkpt lat="44.86484" lon="5.37986">
        <ele>1135.6</ele>
        <time>2020-07-24T09:35:03.000Z</time>
      </trkpt>
      <trkpt lat="44.86474" lon="5.37986">
        <ele>1135.4</ele>
        <time>2020-07-24T09:35:11.000Z</time>
      </trkpt>
      <trkpt lat="44.86464" lon="5.37987">
        <ele>1135.3</ele>
        <time>2020-07-24T09:35:20.000Z</time>
      </trkpt>
      <trkpt lat="44.86454" lon="5.37986">
        <ele>1135.4</ele>
        <time>2020-07-24T09:35:29.000Z</time>
      </trkpt>
      <trkpt lat="44.86445" lon="5.37987">
        <ele>1135.4</ele>
        <time>2020-07-24T09:35:38.000Z</time>
      </trkpt>
      <trkpt lat="44.86435" lon="5.3799">
        <ele>1135.7</ele>
        <time>2020-07-24T09:35:47.000Z</time>
      </trkpt>
      <trkpt lat="44.86426" lon="5.37992">
        <ele>1136</ele>
        <time>2020-07-24T09:35:55.000Z</time>
      </trkpt>
      <trkpt lat="44.86417" lon="5.37993">
        <ele>1135.9</ele>
        <time>2020-07-24T09:36:04.000Z</time>
      </trkpt>
      <trkpt lat="44.86408" lon="5.37996">
        <ele>1135.9</ele>
        <time>2020-07-24T09:36:12.000Z</time>
      </trkpt>
      <trkpt lat="44.86398" lon="5.37995">
        <ele>1135.9</ele>
        <time>2020-07-24T09:36:21.000Z</time>
      </trkpt>
      <trkpt lat="44.86388" lon="5.37995">
        <ele>1135.9</ele>
        <time>2020-07-24T09:36:29.000Z</time>
      </trkpt>
      <trkpt lat="44.86379" lon="5.37994">
        <ele>1135.8</ele>
        <time>2020-07-24T09:36:38.000Z</time>
      </trkpt>
      <trkpt lat="44.8637" lon="5.37996">
        <ele>1135.8</ele>
        <time>2020-07-24T09:36:46.000Z</time>
      </trkpt>
      <trkpt lat="44.8636" lon="5.37996">
        <ele>1135.9</ele>
        <time>2020-07-24T09:36:54.000Z</time>
      </trkpt>
      <trkpt lat="44.86351" lon="5.37998">
        <ele>1135.9</ele>
        <time>2020-07-24T09:37:02.000Z</time>
      </trkpt>
      <trkpt lat="44.86341" lon="5.37999">
        <ele>1135.7</ele>
        <time>2020-07-24T09:37:11.000Z</time>
      </trkpt>
      <trkpt lat="44.86332" lon="5.38002">
        <ele>1135.5</ele>
        <time>2020-07-24T09:37:20.000Z</time>
      </trkpt>
      <trkpt lat="44.86322" lon="5.38006">
        <ele>1135.1</ele>
        <time>2020-07-24T09:37:29.000Z</time>
      </trkpt>
      <trkpt lat="44.86313" lon="5.38009">
        <ele>1134.8</ele>
        <time>2020-07-24T09:37:38.000Z</time>
      </trkpt>
      <trkpt lat="44.86304" lon="5.38013">
        <ele>1134.7</ele>
        <time>2020-07-24T09:37:46.000Z</time>
      </trkpt>
      <trkpt lat="44.86294" lon="5.38017">
        <ele>1134.4</ele>
        <time>2020-07-24T09:37:54.000Z</time>
      </trkpt>
      <trkpt lat="44.86285" lon="5.38021">
        <ele>1134.1</ele>
        <time>2020-07-24T09:38:02.000Z</time>
      </trkpt>
      <trkpt lat="44.86275" lon="5.38025">
        <ele>1133.9</ele>
        <time>2020-07-24T09:38:10.000Z</time>
      </trkpt>
      <trkpt lat="44.86266" lon="5.38029">
        <ele>1133.4</ele>
        <time>2020-07-24T09:38:19.000Z</time>
      </trkpt>
      <trkpt lat="44.86257" lon="5.3803">
        <ele>1133.2</ele>
        <time>2020-07-24T09:38:27.000Z</time>
      </trkpt>
      <trkpt lat="44.86247" lon="5.38031">
        <ele>1133.2</ele>
        <time>2020-07-24T09:38:35.000Z</time>
      </trkpt>
      <trkpt lat="44.86238" lon="5.38033">
        <ele>1133.3</ele>
        <time>2020-07-24T09:38:43.000Z</time>
      </trkpt>
      <trkpt lat="44.86228" lon="5.38033">
        <ele>1133.6</ele>
        <time>2020-07-24T09:38:51.000Z</time>
      </trkpt>
      <trkpt lat="44.86218" lon="5.38032">
        <ele>1133.8</ele>
        <time>2020-07-24T09:38:59.000Z</time>
      </trkpt>
      <trkpt lat="44.86208" lon="5.3803">
        <ele>1134</ele>
        <time>2020-07-24T09:39:07.000Z</time>
      </trkpt>
      <trkpt lat="44.86198" lon="5.38028">
        <ele>1134.1</ele>
        <time>2020-07-24T09:39:16.000Z</time>
      </trkpt>
      <trkpt lat="44.86189" lon="5.38025">
        <ele>1134</ele>
        <time>2020-07-24T09:39:24.000Z</time>
      </trkpt>
      <trkpt lat="44.86179" lon="5.38026">
        <ele>1134.2</ele>
        <time>2020-07-24T09:39:32.000Z</time>
      </trkpt>
      <trkpt lat="44.86169" lon="5.38029">
        <ele>1134.6</ele>
        <time>2020-07-24T09:39:41.000Z</time>
      </trkpt>
      <trkpt lat="44.8616" lon="5.38029">
        <ele>1134.8</ele>
        <time>2020-07-24T09:39:49.000Z</time>
      </trkpt>
      <trkpt lat="44.8615" lon="5.38032">
        <ele>1135.3</ele>
        <time>2020-07-24T09:39:57.000Z</time>
      </trkpt>
      <trkpt lat="44.8614" lon="5.38036">
        <ele>1135.6</ele>
        <time>2020-07-24T09:40:05.000Z</time>
      </trkpt>
      <trkpt lat="44.86132" lon="5.38041">
        <ele>1136</ele>
        <time>2020-07-24T09:40:13.000Z</time>
      </trkpt>
      <trkpt lat="44.86124" lon="5.38047">
        <ele>1136.4</ele>
        <time>2020-07-24T09:40:21.000Z</time>
      </trkpt>
      <trkpt lat="44.86115" lon="5.38054">
        <ele>1137.1</ele>
        <time>2020-07-24T09:40:30.000Z</time>
      </trkpt>
      <trkpt lat="44.86107" lon="5.3806">
        <ele>1138.2</ele>
        <time>2020-07-24T09:40:38.000Z</time>
      </trkpt>
      <trkpt lat="44.86098" lon="5.38066">
        <ele>1139.2</ele>
        <time>2020-07-24T09:40:46.000Z</time>
      </trkpt>
      <trkpt lat="44.8609" lon="5.38072">
        <ele>1139.9</ele>
        <time>2020-07-24T09:40:54.000Z</time>
      </trkpt>
      <trkpt lat="44.86082" lon="5.38078">
        <ele>1140.2</ele>
        <time>2020-07-24T09:41:02.000Z</time>
      </trkpt>
      <trkpt lat="44.86074" lon="5.38085">
        <ele>1140.5</ele>
        <time>2020-07-24T09:41:11.000Z</time>
      </trkpt>
      <trkpt lat="44.86066" lon="5.38091">
        <ele>1140.8</ele>
        <time>2020-07-24T09:41:19.000Z</time>
      </trkpt>
      <trkpt lat="44.86058" lon="5.38098">
        <ele>1141.5</ele>
        <time>2020-07-24T09:41:28.000Z</time>
      </trkpt>
      <trkpt lat="44.8605" lon="5.38106">
        <ele>1141.8</ele>
        <time>2020-07-24T09:41:37.000Z</time>
      </trkpt>
      <trkpt lat="44.86042" lon="5.38114">
        <ele>1142.5</ele>
        <time>2020-07-24T09:41:46.000Z</time>
      </trkpt>
      <trkpt lat="44.86035" lon="5.38122">
        <ele>1143.3</ele>
        <time>2020-07-24T09:41:55.000Z</time>
      </trkpt>
      <trkpt lat="44.86027" lon="5.38128">
        <ele>1144</ele>
        <time>2020-07-24T09:42:04.000Z</time>
      </trkpt>
      <trkpt lat="44.86018" lon="5.38134">
        <ele>1144.3</ele>
        <time>2020-07-24T09:42:12.000Z</time>
      </trkpt>
      <trkpt lat="44.86011" lon="5.38143">
        <ele>1144.4</ele>
        <time>2020-07-24T09:42:20.000Z</time>
      </trkpt>
      <trkpt lat="44.86004" lon="5.38151">
        <ele>1144.5</ele>
        <time>2020-07-24T09:42:28.000Z</time>
      </trkpt>
      <trkpt lat="44.85996" lon="5.38158">
        <ele>1144.8</ele>
        <time>2020-07-24T09:42:36.000Z</time>
      </trkpt>
      <trkpt lat="44.85987" lon="5.38165">
        <ele>1145.2</ele>
        <time>2020-07-24T09:42:44.000Z</time>
      </trkpt>
      <trkpt lat="44.85978" lon="5.38171">
        <ele>1145.7</ele>
        <time>2020-07-24T09:42:53.000Z</time>
      </trkpt>
      <trkpt lat="44.85969" lon="5.38176">
        <ele>1146.3</ele>
        <time>2020-07-24T09:43:01.000Z</time>
      </trkpt>
      <trkpt lat="44.85962" lon="5.38185">
        <ele>1147</ele>
        <time>2020-07-24T09:43:10.000Z</time>
      </trkpt>
      <trkpt lat="44.85954" lon="5.38192">
        <ele>1148</ele>
        <time>2020-07-24T09:43:18.000Z</time>
      </trkpt>
      <trkpt lat="44.85946" lon="5.382">
        <ele>1149</ele>
        <time>2020-07-24T09:43:27.000Z</time>
      </trkpt>
      <trkpt lat="44.85937" lon="5.38208">
        <ele>1149.7</ele>
        <time>2020-07-24T09:43:36.000Z</time>
      </trkpt>
      <trkpt lat="44.85931" lon="5.38217">
        <ele>1150.7</ele>
        <time>2020-07-24T09:43:46.000Z</time>
      </trkpt>
      <trkpt lat="44.85922" lon="5.3822">
        <ele>1152.1</ele>
        <time>2020-07-24T09:43:56.000Z</time>
      </trkpt>
      <trkpt lat="44.85913" lon="5.38224">
        <ele>1153.8</ele>
        <time>2020-07-24T09:44:08.000Z</time>
      </trkpt>
      <trkpt lat="44.85903" lon="5.38226">
        <ele>1154.8</ele>
        <time>2020-07-24T09:44:18.000Z</time>
      </trkpt>
      <trkpt lat="44.85894" lon="5.3823">
        <ele>1156.2</ele>
        <time>2020-07-24T09:44:29.000Z</time>
      </trkpt>
      <trkpt lat="44.85884" lon="5.38231">
        <ele>1157</ele>
        <time>2020-07-24T09:44:37.000Z</time>
      </trkpt>
      <trkpt lat="44.85874" lon="5.38232">
        <ele>1158</ele>
        <time>2020-07-24T09:44:47.000Z</time>
      </trkpt>
      <trkpt lat="44.85865" lon="5.38235">
        <ele>1159.3</ele>
        <time>2020-07-24T09:44:58.000Z</time>
      </trkpt>
      <trkpt lat="44.85856" lon="5.38239">
        <ele>1160.5</ele>
        <time>2020-07-24T09:45:11.000Z</time>
      </trkpt>
      <trkpt lat="44.85846" lon="5.38238">
        <ele>1161.8</ele>
        <time>2020-07-24T09:45:22.000Z</time>
      </trkpt>
      <trkpt lat="44.85837" lon="5.38241">
        <ele>1162.9</ele>
        <time>2020-07-24T09:45:31.000Z</time>
      </trkpt>
      <trkpt lat="44.85827" lon="5.38243">
        <ele>1163.6</ele>
        <time>2020-07-24T09:45:37.000Z</time>
      </trkpt>
      <trkpt lat="44.85818" lon="5.38248">
        <ele>1164.5</ele>
        <time>2020-07-24T09:45:47.000Z</time>
      </trkpt>
      <trkpt lat="44.85808" lon="5.38248">
        <ele>1165.3</ele>
        <time>2020-07-24T09:45:55.000Z</time>
      </trkpt>
      <trkpt lat="44.85799" lon="5.38251">
        <ele>1166.1</ele>
        <time>2020-07-24T09:46:05.000Z</time>
      </trkpt>
      <trkpt lat="44.8579" lon="5.38257">
        <ele>1166.5</ele>
        <time>2020-07-24T09:46:13.000Z</time>
      </trkpt>
      <trkpt lat="44.85789" lon="5.3827">
        <ele>1167.4</ele>
        <time>2020-07-24T09:46:28.000Z</time>
      </trkpt>
      <trkpt lat="44.85786" lon="5.38282">
        <ele>1167.6</ele>
        <time>2020-07-24T09:46:35.000Z</time>
      </trkpt>
      <trkpt lat="44.8578" lon="5.38292">
        <ele>1168.2</ele>
        <time>2020-07-24T09:46:44.000Z</time>
      </trkpt>
      <trkpt lat="44.85772" lon="5.38298">
        <ele>1168.8</ele>
        <time>2020-07-24T09:46:54.000Z</time>
      </trkpt>
      <trkpt lat="44.85765" lon="5.38306">
        <ele>1169.5</ele>
        <time>2020-07-24T09:47:03.000Z</time>
      </trkpt>
      <trkpt lat="44.85758" lon="5.38317">
        <ele>1170.1</ele>
        <time>2020-07-24T09:47:13.000Z</time>
      </trkpt>
      <trkpt lat="44.85751" lon="5.38325">
        <ele>1170.6</ele>
        <time>2020-07-24T09:47:22.000Z</time>
      </trkpt>
      <trkpt lat="44.85743" lon="5.38332">
        <ele>1171</ele>
        <time>2020-07-24T09:47:30.000Z</time>
      </trkpt>
      <trkpt lat="44.85734" lon="5.38339">
        <ele>1171.6</ele>
        <time>2020-07-24T09:47:39.000Z</time>
      </trkpt>
      <trkpt lat="44.85727" lon="5.38346">
        <ele>1172.4</ele>
        <time>2020-07-24T09:47:48.000Z</time>
      </trkpt>
      <trkpt lat="44.8572" lon="5.38355">
        <ele>1173.5</ele>
        <time>2020-07-24T09:47:57.000Z</time>
      </trkpt>
      <trkpt lat="44.85712" lon="5.38362">
        <ele>1174.8</ele>
        <time>2020-07-24T09:48:07.000Z</time>
      </trkpt>
      <trkpt lat="44.85704" lon="5.38369">
        <ele>1176.2</ele>
        <time>2020-07-24T09:48:17.000Z</time>
      </trkpt>
      <trkpt lat="44.85697" lon="5.38377">
        <ele>1177.5</ele>
        <time>2020-07-24T09:48:26.000Z</time>
      </trkpt>
      <trkpt lat="44.85687" lon="5.38382">
        <ele>1179.1</ele>
        <time>2020-07-24T09:48:37.000Z</time>
      </trkpt>
      <trkpt lat="44.85678" lon="5.38386">
        <ele>1180.5</ele>
        <time>2020-07-24T09:48:48.000Z</time>
      </trkpt>
      <trkpt lat="44.85673" lon="5.38396">
        <ele>1181.7</ele>
        <time>2020-07-24T09:48:59.000Z</time>
      </trkpt>
      <trkpt lat="44.85663" lon="5.38397">
        <ele>1182.7</ele>
        <time>2020-07-24T09:49:06.000Z</time>
      </trkpt>
      <trkpt lat="44.85654" lon="5.38401">
        <ele>1183.3</ele>
        <time>2020-07-24T09:49:14.000Z</time>
      </trkpt>
      <trkpt lat="44.85646" lon="5.38407">
        <ele>1184.1</ele>
        <time>2020-07-24T09:49:24.000Z</time>
      </trkpt>
      <trkpt lat="44.85636" lon="5.38412">
        <ele>1184.7</ele>
        <time>2020-07-24T09:49:34.000Z</time>
      </trkpt>
      <trkpt lat="44.85627" lon="5.38414">
        <ele>1185</ele>
        <time>2020-07-24T09:49:45.000Z</time>
      </trkpt>
      <trkpt lat="44.85617" lon="5.38415">
        <ele>1185.3</ele>
        <time>2020-07-24T09:49:57.000Z</time>
      </trkpt>
      <trkpt lat="44.85608" lon="5.38415">
        <ele>1185.4</ele>
        <time>2020-07-24T09:50:06.000Z</time>
      </trkpt>
      <trkpt lat="44.85597" lon="5.38413">
        <ele>1185.5</ele>
        <time>2020-07-24T09:50:14.000Z</time>
      </trkpt>
      <trkpt lat="44.85587" lon="5.38413">
        <ele>1185.5</ele>
        <time>2020-07-24T09:50:22.000Z</time>
      </trkpt>
      <trkpt lat="44.85577" lon="5.38414">
        <ele>1185.6</ele>
        <time>2020-07-24T09:50:31.000Z</time>
      </trkpt>
      <trkpt lat="44.85568" lon="5.38416">
        <ele>1185.9</ele>
        <time>2020-07-24T09:50:40.000Z</time>
      </trkpt>
      <trkpt lat="44.85559" lon="5.38416">
        <ele>1186.3</ele>
        <time>2020-07-24T09:50:49.000Z</time>
      </trkpt>
      <trkpt lat="44.85549" lon="5.38414">
        <ele>1187.1</ele>
        <time>2020-07-24T09:51:00.000Z</time>
      </trkpt>
      <trkpt lat="44.85541" lon="5.38411">
        <ele>1188.6</ele>
        <time>2020-07-24T09:51:15.000Z</time>
      </trkpt>
      <trkpt lat="44.85533" lon="5.38403">
        <ele>1189.1</ele>
        <time>2020-07-24T09:51:21.000Z</time>
      </trkpt>
      <trkpt lat="44.85524" lon="5.38399">
        <ele>1189.7</ele>
        <time>2020-07-24T09:51:27.000Z</time>
      </trkpt>
      <trkpt lat="44.85515" lon="5.38398">
        <ele>1190.2</ele>
        <time>2020-07-24T09:51:33.000Z</time>
      </trkpt>
      <trkpt lat="44.85506" lon="5.38397">
        <ele>1191</ele>
        <time>2020-07-24T09:51:40.000Z</time>
      </trkpt>
      <trkpt lat="44.85497" lon="5.38395">
        <ele>1192</ele>
        <time>2020-07-24T09:51:48.000Z</time>
      </trkpt>
      <trkpt lat="44.85488" lon="5.38392">
        <ele>1193.7</ele>
        <time>2020-07-24T09:52:02.000Z</time>
      </trkpt>
      <trkpt lat="44.85478" lon="5.38388">
        <ele>1194.5</ele>
        <time>2020-07-24T09:52:11.000Z</time>
      </trkpt>
      <trkpt lat="44.85468" lon="5.38386">
        <ele>1195.2</ele>
        <time>2020-07-24T09:52:20.000Z</time>
      </trkpt>
      <trkpt lat="44.85459" lon="5.38383">
        <ele>1196.1</ele>
        <time>2020-07-24T09:52:31.000Z</time>
      </trkpt>
      <trkpt lat="44.85451" lon="5.38378">
        <ele>1197.4</ele>
        <time>2020-07-24T09:52:42.000Z</time>
      </trkpt>
      <trkpt lat="44.85443" lon="5.38371">
        <ele>1198.8</ele>
        <time>2020-07-24T09:52:56.000Z</time>
      </trkpt>
      <trkpt lat="44.85434" lon="5.38367">
        <ele>1199.8</ele>
        <time>2020-07-24T09:53:05.000Z</time>
      </trkpt>
      <trkpt lat="44.85426" lon="5.38363">
        <ele>1200.7</ele>
        <time>2020-07-24T09:53:13.000Z</time>
      </trkpt>
      <trkpt lat="44.85415" lon="5.3836">
        <ele>1201.5</ele>
        <time>2020-07-24T09:53:20.000Z</time>
      </trkpt>
      <trkpt lat="44.85406" lon="5.38359">
        <ele>1202.8</ele>
        <time>2020-07-24T09:53:38.000Z</time>
      </trkpt>
      <trkpt lat="44.85397" lon="5.38357">
        <ele>1203.2</ele>
        <time>2020-07-24T09:53:48.000Z</time>
      </trkpt>
      <trkpt lat="44.85387" lon="5.38356">
        <ele>1204.2</ele>
        <time>2020-07-24T09:53:58.000Z</time>
      </trkpt>
      <trkpt lat="44.85378" lon="5.38353">
        <ele>1205.9</ele>
        <time>2020-07-24T09:54:10.000Z</time>
      </trkpt>
      <trkpt lat="44.85368" lon="5.38349">
        <ele>1207.1</ele>
        <time>2020-07-24T09:54:18.000Z</time>
      </trkpt>
      <trkpt lat="44.85359" lon="5.38348">
        <ele>1208.2</ele>
        <time>2020-07-24T09:54:29.000Z</time>
      </trkpt>
      <trkpt lat="44.8535" lon="5.38344">
        <ele>1209.6</ele>
        <time>2020-07-24T09:54:39.000Z</time>
      </trkpt>
      <trkpt lat="44.85341" lon="5.38342">
        <ele>1210.9</ele>
        <time>2020-07-24T09:54:48.000Z</time>
      </trkpt>
      <trkpt lat="44.85332" lon="5.38336">
        <ele>1212.2</ele>
        <time>2020-07-24T09:54:58.000Z</time>
      </trkpt>
      <trkpt lat="44.85324" lon="5.38333">
        <ele>1213.2</ele>
        <time>2020-07-24T09:55:07.000Z</time>
      </trkpt>
      <trkpt lat="44.85315" lon="5.38329">
        <ele>1214</ele>
        <time>2020-07-24T09:55:14.000Z</time>
      </trkpt>
      <trkpt lat="44.85306" lon="5.38328">
        <ele>1215.5</ele>
        <time>2020-07-24T09:55:26.000Z</time>
      </trkpt>
      <trkpt lat="44.85296" lon="5.38323">
        <ele>1217.2</ele>
        <time>2020-07-24T09:55:39.000Z</time>
      </trkpt>
      <trkpt lat="44.85286" lon="5.3832">
        <ele>1218.6</ele>
        <time>2020-07-24T09:55:49.000Z</time>
      </trkpt>
      <trkpt lat="44.85276" lon="5.38318">
        <ele>1220.1</ele>
        <time>2020-07-24T09:55:56.000Z</time>
      </trkpt>
      <trkpt lat="44.85266" lon="5.38317">
        <ele>1223.5</ele>
        <time>2020-07-24T09:56:18.000Z</time>
      </trkpt>
      <trkpt lat="44.85271" lon="5.3833">
        <ele>1222.3</ele>
        <time>2020-07-24T09:56:29.000Z</time>
      </trkpt>
      <trkpt lat="44.8526" lon="5.38332">
        <ele>1222.7</ele>
        <time>2020-07-24T09:57:19.000Z</time>
      </trkpt>
      <trkpt lat="44.8526" lon="5.38319">
        <ele>1222.2</ele>
        <time>2020-07-24T09:57:58.000Z</time>
      </trkpt>
      <trkpt lat="44.85261" lon="5.38332">
        <ele>1223.2</ele>
        <time>2020-07-24T09:59:06.000Z</time>
      </trkpt>
      <trkpt lat="44.85254" lon="5.38323">
        <ele>1223.8</ele>
        <time>2020-07-24T09:59:29.000Z</time>
      </trkpt>
      <trkpt lat="44.85245" lon="5.38319">
        <ele>1225.4</ele>
        <time>2020-07-24T09:59:40.000Z</time>
      </trkpt>
      <trkpt lat="44.85236" lon="5.38313">
        <ele>1227.2</ele>
        <time>2020-07-24T09:59:51.000Z</time>
      </trkpt>
      <trkpt lat="44.85225" lon="5.3831">
        <ele>1228.8</ele>
        <time>2020-07-24T09:59:59.000Z</time>
      </trkpt>
      <trkpt lat="44.85215" lon="5.38309">
        <ele>1230.5</ele>
        <time>2020-07-24T10:00:07.000Z</time>
      </trkpt>
      <trkpt lat="44.85206" lon="5.38309">
        <ele>1231.8</ele>
        <time>2020-07-24T10:00:14.000Z</time>
      </trkpt>
      <trkpt lat="44.85197" lon="5.38314">
        <ele>1233.3</ele>
        <time>2020-07-24T10:00:22.000Z</time>
      </trkpt>
      <trkpt lat="44.85192" lon="5.38326">
        <ele>1234.6</ele>
        <time>2020-07-24T10:00:31.000Z</time>
      </trkpt>
      <trkpt lat="44.85184" lon="5.38331">
        <ele>1235.6</ele>
        <time>2020-07-24T10:00:40.000Z</time>
      </trkpt>
      <trkpt lat="44.85176" lon="5.38338">
        <ele>1236.7</ele>
        <time>2020-07-24T10:00:49.000Z</time>
      </trkpt>
      <trkpt lat="44.85171" lon="5.38349">
        <ele>1237.9</ele>
        <time>2020-07-24T10:00:58.000Z</time>
      </trkpt>
      <trkpt lat="44.85165" lon="5.38359">
        <ele>1239.1</ele>
        <time>2020-07-24T10:01:07.000Z</time>
      </trkpt>
      <trkpt lat="44.85158" lon="5.3837">
        <ele>1240.4</ele>
        <time>2020-07-24T10:01:17.000Z</time>
      </trkpt>
      <trkpt lat="44.85151" lon="5.3838">
        <ele>1241.6</ele>
        <time>2020-07-24T10:01:26.000Z</time>
      </trkpt>
      <trkpt lat="44.85143" lon="5.38388">
        <ele>1242.8</ele>
        <time>2020-07-24T10:01:35.000Z</time>
      </trkpt>
      <trkpt lat="44.85135" lon="5.38395">
        <ele>1244.1</ele>
        <time>2020-07-24T10:01:44.000Z</time>
      </trkpt>
      <trkpt lat="44.85127" lon="5.38401">
        <ele>1245.3</ele>
        <time>2020-07-24T10:01:53.000Z</time>
      </trkpt>
      <trkpt lat="44.85118" lon="5.38408">
        <ele>1246.7</ele>
        <time>2020-07-24T10:02:03.000Z</time>
      </trkpt>
      <trkpt lat="44.85111" lon="5.38418">
        <ele>1248.5</ele>
        <time>2020-07-24T10:02:13.000Z</time>
      </trkpt>
      <trkpt lat="44.85106" lon="5.3843">
        <ele>1249.8</ele>
        <time>2020-07-24T10:02:22.000Z</time>
      </trkpt>
      <trkpt lat="44.85105" lon="5.38442">
        <ele>1250.8</ele>
        <time>2020-07-24T10:02:31.000Z</time>
      </trkpt>
      <trkpt lat="44.85114" lon="5.38446">
        <ele>1252.2</ele>
        <time>2020-07-24T10:02:43.000Z</time>
      </trkpt>
      <trkpt lat="44.85122" lon="5.38451">
        <ele>1253</ele>
        <time>2020-07-24T10:02:50.000Z</time>
      </trkpt>
      <trkpt lat="44.85131" lon="5.38456">
        <ele>1254</ele>
        <time>2020-07-24T10:02:57.000Z</time>
      </trkpt>
      <trkpt lat="44.8514" lon="5.38456">
        <ele>1255</ele>
        <time>2020-07-24T10:03:04.000Z</time>
      </trkpt>
      <trkpt lat="44.85149" lon="5.38456">
        <ele>1256.2</ele>
        <time>2020-07-24T10:03:13.000Z</time>
      </trkpt>
      <trkpt lat="44.85159" lon="5.38455">
        <ele>1257.3</ele>
        <time>2020-07-24T10:03:21.000Z</time>
      </trkpt>
      <trkpt lat="44.85168" lon="5.38455">
        <ele>1258.3</ele>
        <time>2020-07-24T10:03:29.000Z</time>
      </trkpt>
      <trkpt lat="44.85177" lon="5.38454">
        <ele>1259.2</ele>
        <time>2020-07-24T10:03:37.000Z</time>
      </trkpt>
      <trkpt lat="44.85186" lon="5.38449">
        <ele>1260.4</ele>
        <time>2020-07-24T10:03:45.000Z</time>
      </trkpt>
      <trkpt lat="44.85193" lon="5.38441">
        <ele>1261.9</ele>
        <time>2020-07-24T10:03:55.000Z</time>
      </trkpt>
      <trkpt lat="44.85202" lon="5.38437">
        <ele>1263.2</ele>
        <time>2020-07-24T10:04:04.000Z</time>
      </trkpt>
      <trkpt lat="44.85212" lon="5.3844">
        <ele>1265.3</ele>
        <time>2020-07-24T10:04:17.000Z</time>
      </trkpt>
      <trkpt lat="44.8522" lon="5.38445">
        <ele>1267</ele>
        <time>2020-07-24T10:04:28.000Z</time>
      </trkpt>
      <trkpt lat="44.85228" lon="5.38455">
        <ele>1268.4</ele>
        <time>2020-07-24T10:04:36.000Z</time>
      </trkpt>
      <trkpt lat="44.85235" lon="5.38462">
        <ele>1269.7</ele>
        <time>2020-07-24T10:04:43.000Z</time>
      </trkpt>
      <trkpt lat="44.85241" lon="5.38472">
        <ele>1271.1</ele>
        <time>2020-07-24T10:04:52.000Z</time>
      </trkpt>
      <trkpt lat="44.85248" lon="5.38482">
        <ele>1272.8</ele>
        <time>2020-07-24T10:05:01.000Z</time>
      </trkpt>
      <trkpt lat="44.85255" lon="5.38493">
        <ele>1274.3</ele>
        <time>2020-07-24T10:05:09.000Z</time>
      </trkpt>
      <trkpt lat="44.85261" lon="5.38503">
        <ele>1276</ele>
        <time>2020-07-24T10:05:18.000Z</time>
      </trkpt>
      <trkpt lat="44.85268" lon="5.38512">
        <ele>1277.4</ele>
        <time>2020-07-24T10:05:26.000Z</time>
      </trkpt>
      <trkpt lat="44.85273" lon="5.38523">
        <ele>1279.3</ele>
        <time>2020-07-24T10:05:35.000Z</time>
      </trkpt>
      <trkpt lat="44.8528" lon="5.38531">
        <ele>1280.7</ele>
        <time>2020-07-24T10:05:43.000Z</time>
      </trkpt>
      <trkpt lat="44.85286" lon="5.38542">
        <ele>1282.3</ele>
        <time>2020-07-24T10:05:52.000Z</time>
      </trkpt>
      <trkpt lat="44.85293" lon="5.3855">
        <ele>1283.6</ele>
        <time>2020-07-24T10:06:00.000Z</time>
      </trkpt>
      <trkpt lat="44.85296" lon="5.38563">
        <ele>1285</ele>
        <time>2020-07-24T10:06:09.000Z</time>
      </trkpt>
      <trkpt lat="44.85302" lon="5.38574">
        <ele>1286.4</ele>
        <time>2020-07-24T10:06:19.000Z</time>
      </trkpt>
      <trkpt lat="44.85307" lon="5.38586">
        <ele>1287.9</ele>
        <time>2020-07-24T10:06:28.000Z</time>
      </trkpt>
      <trkpt lat="44.8531" lon="5.38599">
        <ele>1289.2</ele>
        <time>2020-07-24T10:06:37.000Z</time>
      </trkpt>
      <trkpt lat="44.85312" lon="5.38611">
        <ele>1290.5</ele>
        <time>2020-07-24T10:06:46.000Z</time>
      </trkpt>
      <trkpt lat="44.85317" lon="5.38622">
        <ele>1291.7</ele>
        <time>2020-07-24T10:06:55.000Z</time>
      </trkpt>
      <trkpt lat="44.85324" lon="5.38632">
        <ele>1292.9</ele>
        <time>2020-07-24T10:07:03.000Z</time>
      </trkpt>
      <trkpt lat="44.85327" lon="5.38645">
        <ele>1294.2</ele>
        <time>2020-07-24T10:07:11.000Z</time>
      </trkpt>
      <trkpt lat="44.85333" lon="5.38656">
        <ele>1295.7</ele>
        <time>2020-07-24T10:07:20.000Z</time>
      </trkpt>
      <trkpt lat="44.85339" lon="5.38665">
        <ele>1297.2</ele>
        <time>2020-07-24T10:07:29.000Z</time>
      </trkpt>
      <trkpt lat="44.85344" lon="5.38678">
        <ele>1298.7</ele>
        <time>2020-07-24T10:07:38.000Z</time>
      </trkpt>
      <trkpt lat="44.85347" lon="5.38691">
        <ele>1300.2</ele>
        <time>2020-07-24T10:07:47.000Z</time>
      </trkpt>
      <trkpt lat="44.85351" lon="5.38702">
        <ele>1302.4</ele>
        <time>2020-07-24T10:07:57.000Z</time>
      </trkpt>
      <trkpt lat="44.85357" lon="5.38714">
        <ele>1303.9</ele>
        <time>2020-07-24T10:08:06.000Z</time>
      </trkpt>
      <trkpt lat="44.85363" lon="5.38726">
        <ele>1305</ele>
        <time>2020-07-24T10:08:15.000Z</time>
      </trkpt>
      <trkpt lat="44.85368" lon="5.38736">
        <ele>1306.1</ele>
        <time>2020-07-24T10:08:24.000Z</time>
      </trkpt>
      <trkpt lat="44.85372" lon="5.38748">
        <ele>1307.3</ele>
        <time>2020-07-24T10:08:34.000Z</time>
      </trkpt>
      <trkpt lat="44.85376" lon="5.3876">
        <ele>1308.5</ele>
        <time>2020-07-24T10:08:44.000Z</time>
      </trkpt>
      <trkpt lat="44.8538" lon="5.38773">
        <ele>1309.6</ele>
        <time>2020-07-24T10:08:52.000Z</time>
      </trkpt>
      <trkpt lat="44.85379" lon="5.38786">
        <ele>1310.8</ele>
        <time>2020-07-24T10:09:02.000Z</time>
      </trkpt>
      <trkpt lat="44.85383" lon="5.38798">
        <ele>1312.8</ele>
        <time>2020-07-24T10:09:15.000Z</time>
      </trkpt>
      <trkpt lat="44.85388" lon="5.38811">
        <ele>1313.7</ele>
        <time>2020-07-24T10:09:24.000Z</time>
      </trkpt>
      <trkpt lat="44.85395" lon="5.38819">
        <ele>1314.5</ele>
        <time>2020-07-24T10:09:32.000Z</time>
      </trkpt>
      <trkpt lat="44.85402" lon="5.38827">
        <ele>1315.8</ele>
        <time>2020-07-24T10:09:41.000Z</time>
      </trkpt>
      <trkpt lat="44.85409" lon="5.38836">
        <ele>1317.2</ele>
        <time>2020-07-24T10:09:50.000Z</time>
      </trkpt>
      <trkpt lat="44.85412" lon="5.38849">
        <ele>1318.5</ele>
        <time>2020-07-24T10:10:00.000Z</time>
      </trkpt>
      <trkpt lat="44.85404" lon="5.38842">
        <ele>1321.1</ele>
        <time>2020-07-24T10:10:24.000Z</time>
      </trkpt>
      <trkpt lat="44.85395" lon="5.38833">
        <ele>1322.1</ele>
        <time>2020-07-24T10:10:34.000Z</time>
      </trkpt>
      <trkpt lat="44.85387" lon="5.38827">
        <ele>1323</ele>
        <time>2020-07-24T10:10:45.000Z</time>
      </trkpt>
      <trkpt lat="44.85379" lon="5.3882">
        <ele>1323.6</ele>
        <time>2020-07-24T10:10:54.000Z</time>
      </trkpt>
      <trkpt lat="44.85371" lon="5.38812">
        <ele>1323.8</ele>
        <time>2020-07-24T10:11:04.000Z</time>
      </trkpt>
      <trkpt lat="44.85366" lon="5.38801">
        <ele>1324.3</ele>
        <time>2020-07-24T10:11:12.000Z</time>
      </trkpt>
      <trkpt lat="44.85359" lon="5.38791">
        <ele>1325.2</ele>
        <time>2020-07-24T10:11:21.000Z</time>
      </trkpt>
      <trkpt lat="44.85354" lon="5.38781">
        <ele>1325.5</ele>
        <time>2020-07-24T10:11:31.000Z</time>
      </trkpt>
      <trkpt lat="44.85348" lon="5.3877">
        <ele>1325.4</ele>
        <time>2020-07-24T10:11:41.000Z</time>
      </trkpt>
      <trkpt lat="44.85341" lon="5.38761">
        <ele>1325.8</ele>
        <time>2020-07-24T10:11:49.000Z</time>
      </trkpt>
      <trkpt lat="44.85334" lon="5.38751">
        <ele>1326.4</ele>
        <time>2020-07-24T10:11:58.000Z</time>
      </trkpt>
      <trkpt lat="44.85327" lon="5.38743">
        <ele>1325.8</ele>
        <time>2020-07-24T10:12:07.000Z</time>
      </trkpt>
      <trkpt lat="44.8532" lon="5.38734">
        <ele>1325.4</ele>
        <time>2020-07-24T10:12:15.000Z</time>
      </trkpt>
      <trkpt lat="44.85312" lon="5.38725">
        <ele>1324.8</ele>
        <time>2020-07-24T10:12:23.000Z</time>
      </trkpt>
      <trkpt lat="44.85305" lon="5.38716">
        <ele>1324.1</ele>
        <time>2020-07-24T10:12:32.000Z</time>
      </trkpt>
      <trkpt lat="44.85298" lon="5.38708">
        <ele>1323.5</ele>
        <time>2020-07-24T10:12:39.000Z</time>
      </trkpt>
      <trkpt lat="44.85292" lon="5.38696">
        <ele>1323.3</ele>
        <time>2020-07-24T10:12:45.000Z</time>
      </trkpt>
      <trkpt lat="44.85285" lon="5.38685">
        <ele>1323.5</ele>
        <time>2020-07-24T10:12:51.000Z</time>
      </trkpt>
      <trkpt lat="44.85277" lon="5.38675">
        <ele>1323.7</ele>
        <time>2020-07-24T10:12:57.000Z</time>
      </trkpt>
      <trkpt lat="44.85268" lon="5.38665">
        <ele>1323.5</ele>
        <time>2020-07-24T10:13:02.000Z</time>
      </trkpt>
      <trkpt lat="44.85261" lon="5.38656">
        <ele>1323.6</ele>
        <time>2020-07-24T10:13:06.000Z</time>
      </trkpt>
      <trkpt lat="44.85253" lon="5.38647">
        <ele>1323.8</ele>
        <time>2020-07-24T10:13:10.000Z</time>
      </trkpt>
      <trkpt lat="44.85245" lon="5.38638">
        <ele>1324.1</ele>
        <time>2020-07-24T10:13:14.000Z</time>
      </trkpt>
      <trkpt lat="44.85237" lon="5.3863">
        <ele>1324.6</ele>
        <time>2020-07-24T10:13:18.000Z</time>
      </trkpt>
      <trkpt lat="44.8523" lon="5.3862">
        <ele>1325.3</ele>
        <time>2020-07-24T10:13:23.000Z</time>
      </trkpt>
      <trkpt lat="44.85221" lon="5.3861">
        <ele>1326</ele>
        <time>2020-07-24T10:13:27.000Z</time>
      </trkpt>
      <trkpt lat="44.85211" lon="5.38602">
        <ele>1325.9</ele>
        <time>2020-07-24T10:13:31.000Z</time>
      </trkpt>
      <trkpt lat="44.85202" lon="5.38598">
        <ele>1325.9</ele>
        <time>2020-07-24T10:13:35.000Z</time>
      </trkpt>
      <trkpt lat="44.85192" lon="5.38597">
        <ele>1326</ele>
        <time>2020-07-24T10:13:39.000Z</time>
      </trkpt>
      <trkpt lat="44.85181" lon="5.38593">
        <ele>1326.5</ele>
        <time>2020-07-24T10:13:45.000Z</time>
      </trkpt>
      <trkpt lat="44.85171" lon="5.38593">
        <ele>1326.4</ele>
        <time>2020-07-24T10:13:52.000Z</time>
      </trkpt>
      <trkpt lat="44.85161" lon="5.38597">
        <ele>1326.4</ele>
        <time>2020-07-24T10:14:00.000Z</time>
      </trkpt>
      <trkpt lat="44.85153" lon="5.38604">
        <ele>1326.3</ele>
        <time>2020-07-24T10:14:08.000Z</time>
      </trkpt>
      <trkpt lat="44.85144" lon="5.38609">
        <ele>1325.9</ele>
        <time>2020-07-24T10:14:15.000Z</time>
      </trkpt>
      <trkpt lat="44.85135" lon="5.38616">
        <ele>1325.3</ele>
        <time>2020-07-24T10:14:23.000Z</time>
      </trkpt>
      <trkpt lat="44.85126" lon="5.38619">
        <ele>1324.7</ele>
        <time>2020-07-24T10:14:31.000Z</time>
      </trkpt>
      <trkpt lat="44.85116" lon="5.3862">
        <ele>1324.4</ele>
        <time>2020-07-24T10:14:39.000Z</time>
      </trkpt>
      <trkpt lat="44.85106" lon="5.38621">
        <ele>1324.1</ele>
        <time>2020-07-24T10:14:47.000Z</time>
      </trkpt>
      <trkpt lat="44.85096" lon="5.38621">
        <ele>1324</ele>
        <time>2020-07-24T10:14:55.000Z</time>
      </trkpt>
      <trkpt lat="44.85087" lon="5.38623">
        <ele>1324.1</ele>
        <time>2020-07-24T10:15:04.000Z</time>
      </trkpt>
      <trkpt lat="44.85077" lon="5.38626">
        <ele>1325.4</ele>
        <time>2020-07-24T10:15:13.000Z</time>
      </trkpt>
      <trkpt lat="44.85068" lon="5.38631">
        <ele>1327.5</ele>
        <time>2020-07-24T10:15:22.000Z</time>
      </trkpt>
      <trkpt lat="44.85059" lon="5.38635">
        <ele>1328.8</ele>
        <time>2020-07-24T10:15:31.000Z</time>
      </trkpt>
      <trkpt lat="44.8505" lon="5.38639">
        <ele>1330.4</ele>
        <time>2020-07-24T10:15:42.000Z</time>
      </trkpt>
      <trkpt lat="44.8504" lon="5.3864">
        <ele>1331.7</ele>
        <time>2020-07-24T10:15:50.000Z</time>
      </trkpt>
      <trkpt lat="44.85031" lon="5.38639">
        <ele>1332.3</ele>
        <time>2020-07-24T10:15:58.000Z</time>
      </trkpt>
      <trkpt lat="44.85021" lon="5.38637">
        <ele>1332.3</ele>
        <time>2020-07-24T10:16:05.000Z</time>
      </trkpt>
      <trkpt lat="44.85011" lon="5.38637">
        <ele>1332</ele>
        <time>2020-07-24T10:16:14.000Z</time>
      </trkpt>
      <trkpt lat="44.85002" lon="5.38637">
        <ele>1332.1</ele>
        <time>2020-07-24T10:16:21.000Z</time>
      </trkpt>
      <trkpt lat="44.84992" lon="5.38637">
        <ele>1332.4</ele>
        <time>2020-07-24T10:16:29.000Z</time>
      </trkpt>
      <trkpt lat="44.84983" lon="5.38635">
        <ele>1333.1</ele>
        <time>2020-07-24T10:16:38.000Z</time>
      </trkpt>
      <trkpt lat="44.84973" lon="5.38638">
        <ele>1333.9</ele>
        <time>2020-07-24T10:16:48.000Z</time>
      </trkpt>
      <trkpt lat="44.84963" lon="5.38638">
        <ele>1334.6</ele>
        <time>2020-07-24T10:16:58.000Z</time>
      </trkpt>
      <trkpt lat="44.84954" lon="5.38636">
        <ele>1335.5</ele>
        <time>2020-07-24T10:17:05.000Z</time>
      </trkpt>
      <trkpt lat="44.84945" lon="5.38635">
        <ele>1336</ele>
        <time>2020-07-24T10:17:12.000Z</time>
      </trkpt>
      <trkpt lat="44.84936" lon="5.38634">
        <ele>1335.9</ele>
        <time>2020-07-24T10:17:19.000Z</time>
      </trkpt>
      <trkpt lat="44.84927" lon="5.38634">
        <ele>1335.2</ele>
        <time>2020-07-24T10:17:27.000Z</time>
      </trkpt>
      <trkpt lat="44.84916" lon="5.38634">
        <ele>1335.3</ele>
        <time>2020-07-24T10:17:35.000Z</time>
      </trkpt>
      <trkpt lat="44.84907" lon="5.38634">
        <ele>1335.6</ele>
        <time>2020-07-24T10:17:43.000Z</time>
      </trkpt>
      <trkpt lat="44.84897" lon="5.38633">
        <ele>1336.9</ele>
        <time>2020-07-24T10:17:54.000Z</time>
      </trkpt>
      <trkpt lat="44.84887" lon="5.38631">
        <ele>1338.4</ele>
        <time>2020-07-24T10:18:02.000Z</time>
      </trkpt>
      <trkpt lat="44.84878" lon="5.38628">
        <ele>1339.8</ele>
        <time>2020-07-24T10:18:10.000Z</time>
      </trkpt>
      <trkpt lat="44.84869" lon="5.38624">
        <ele>1340.6</ele>
        <time>2020-07-24T10:18:21.000Z</time>
      </trkpt>
      <trkpt lat="44.8486" lon="5.3862">
        <ele>1341</ele>
        <time>2020-07-24T10:18:29.000Z</time>
      </trkpt>
      <trkpt lat="44.84851" lon="5.38615">
        <ele>1341.3</ele>
        <time>2020-07-24T10:18:37.000Z</time>
      </trkpt>
      <trkpt lat="44.84842" lon="5.38611">
        <ele>1341.6</ele>
        <time>2020-07-24T10:18:44.000Z</time>
      </trkpt>
      <trkpt lat="44.84832" lon="5.38607">
        <ele>1342</ele>
        <time>2020-07-24T10:18:53.000Z</time>
      </trkpt>
      <trkpt lat="44.84823" lon="5.38605">
        <ele>1342.6</ele>
        <time>2020-07-24T10:19:02.000Z</time>
      </trkpt>
      <trkpt lat="44.84813" lon="5.386">
        <ele>1343.3</ele>
        <time>2020-07-24T10:19:10.000Z</time>
      </trkpt>
      <trkpt lat="44.84804" lon="5.38598">
        <ele>1344.1</ele>
        <time>2020-07-24T10:19:20.000Z</time>
      </trkpt>
      <trkpt lat="44.84793" lon="5.38596">
        <ele>1344.9</ele>
        <time>2020-07-24T10:19:29.000Z</time>
      </trkpt>
      <trkpt lat="44.84784" lon="5.38593">
        <ele>1345.7</ele>
        <time>2020-07-24T10:19:36.000Z</time>
      </trkpt>
      <trkpt lat="44.84774" lon="5.3859">
        <ele>1347</ele>
        <time>2020-07-24T10:19:45.000Z</time>
      </trkpt>
      <trkpt lat="44.84765" lon="5.38591">
        <ele>1348.4</ele>
        <time>2020-07-24T10:19:55.000Z</time>
      </trkpt>
      <trkpt lat="44.84756" lon="5.38594">
        <ele>1349.6</ele>
        <time>2020-07-24T10:20:03.000Z</time>
      </trkpt>
      <trkpt lat="44.84746" lon="5.38597">
        <ele>1350.7</ele>
        <time>2020-07-24T10:20:11.000Z</time>
      </trkpt>
      <trkpt lat="44.84737" lon="5.38597">
        <ele>1351.7</ele>
        <time>2020-07-24T10:20:19.000Z</time>
      </trkpt>
      <trkpt lat="44.84727" lon="5.38599">
        <ele>1353.1</ele>
        <time>2020-07-24T10:20:36.000Z</time>
      </trkpt>
      <trkpt lat="44.84718" lon="5.386">
        <ele>1353.6</ele>
        <time>2020-07-24T10:20:46.000Z</time>
      </trkpt>
      <trkpt lat="44.84708" lon="5.38601">
        <ele>1354</ele>
        <time>2020-07-24T10:20:56.000Z</time>
      </trkpt>
      <trkpt lat="44.84698" lon="5.38599">
        <ele>1354.4</ele>
        <time>2020-07-24T10:21:06.000Z</time>
      </trkpt>
      <trkpt lat="44.84689" lon="5.38596">
        <ele>1354.3</ele>
        <time>2020-07-24T10:21:15.000Z</time>
      </trkpt>
      <trkpt lat="44.84684" lon="5.38585">
        <ele>1353.7</ele>
        <time>2020-07-24T10:21:25.000Z</time>
      </trkpt>
      <trkpt lat="44.84676" lon="5.38578">
        <ele>1353.3</ele>
        <time>2020-07-24T10:21:32.000Z</time>
      </trkpt>
      <trkpt lat="44.84667" lon="5.38573">
        <ele>1353.2</ele>
        <time>2020-07-24T10:21:41.000Z</time>
      </trkpt>
      <trkpt lat="44.84658" lon="5.38566">
        <ele>1353.2</ele>
        <time>2020-07-24T10:21:48.000Z</time>
      </trkpt>
      <trkpt lat="44.8465" lon="5.38559">
        <ele>1353.3</ele>
        <time>2020-07-24T10:21:57.000Z</time>
      </trkpt>
      <trkpt lat="44.84641" lon="5.38553">
        <ele>1353.7</ele>
        <time>2020-07-24T10:22:05.000Z</time>
      </trkpt>
      <trkpt lat="44.84632" lon="5.38547">
        <ele>1354</ele>
        <time>2020-07-24T10:22:13.000Z</time>
      </trkpt>
      <trkpt lat="44.84623" lon="5.38542">
        <ele>1354.6</ele>
        <time>2020-07-24T10:22:21.000Z</time>
      </trkpt>
      <trkpt lat="44.84614" lon="5.3854">
        <ele>1355.8</ele>
        <time>2020-07-24T10:22:29.000Z</time>
      </trkpt>
      <trkpt lat="44.84605" lon="5.38541">
        <ele>1356.8</ele>
        <time>2020-07-24T10:22:37.000Z</time>
      </trkpt>
      <trkpt lat="44.84595" lon="5.38546">
        <ele>1358.2</ele>
        <time>2020-07-24T10:22:46.000Z</time>
      </trkpt>
      <trkpt lat="44.84586" lon="5.38548">
        <ele>1359.9</ele>
        <time>2020-07-24T10:22:55.000Z</time>
      </trkpt>
      <trkpt lat="44.84576" lon="5.3855">
        <ele>1361.3</ele>
        <time>2020-07-24T10:23:04.000Z</time>
      </trkpt>
      <trkpt lat="44.84566" lon="5.38551">
        <ele>1362.9</ele>
        <time>2020-07-24T10:23:13.000Z</time>
      </trkpt>
      <trkpt lat="44.84557" lon="5.38554">
        <ele>1364.3</ele>
        <time>2020-07-24T10:23:21.000Z</time>
      </trkpt>
      <trkpt lat="44.84547" lon="5.38558">
        <ele>1365.8</ele>
        <time>2020-07-24T10:23:30.000Z</time>
      </trkpt>
      <trkpt lat="44.84541" lon="5.38566">
        <ele>1367.1</ele>
        <time>2020-07-24T10:23:38.000Z</time>
      </trkpt>
      <trkpt lat="44.84538" lon="5.38579">
        <ele>1368.3</ele>
        <time>2020-07-24T10:23:46.000Z</time>
      </trkpt>
      <trkpt lat="44.8453" lon="5.38571">
        <ele>1370.3</ele>
        <time>2020-07-24T10:25:51.000Z</time>
      </trkpt>
      <trkpt lat="44.84524" lon="5.38561">
        <ele>1370.8</ele>
        <time>2020-07-24T10:26:01.000Z</time>
      </trkpt>
      <trkpt lat="44.84516" lon="5.38566">
        <ele>1371.1</ele>
        <time>2020-07-24T10:26:10.000Z</time>
      </trkpt>
      <trkpt lat="44.84507" lon="5.38571">
        <ele>1371.9</ele>
        <time>2020-07-24T10:26:19.000Z</time>
      </trkpt>
      <trkpt lat="44.84498" lon="5.38573">
        <ele>1372.8</ele>
        <time>2020-07-24T10:26:28.000Z</time>
      </trkpt>
      <trkpt lat="44.84489" lon="5.38576">
        <ele>1373.8</ele>
        <time>2020-07-24T10:26:37.000Z</time>
      </trkpt>
      <trkpt lat="44.8448" lon="5.38579">
        <ele>1374.8</ele>
        <time>2020-07-24T10:26:46.000Z</time>
      </trkpt>
      <trkpt lat="44.8447" lon="5.38582">
        <ele>1376</ele>
        <time>2020-07-24T10:26:55.000Z</time>
      </trkpt>
      <trkpt lat="44.84461" lon="5.38584">
        <ele>1377</ele>
        <time>2020-07-24T10:27:04.000Z</time>
      </trkpt>
      <trkpt lat="44.84452" lon="5.38588">
        <ele>1378.1</ele>
        <time>2020-07-24T10:27:13.000Z</time>
      </trkpt>
      <trkpt lat="44.84443" lon="5.38592">
        <ele>1379.3</ele>
        <time>2020-07-24T10:27:22.000Z</time>
      </trkpt>
      <trkpt lat="44.84434" lon="5.38596">
        <ele>1380</ele>
        <time>2020-07-24T10:27:31.000Z</time>
      </trkpt>
      <trkpt lat="44.84425" lon="5.38599">
        <ele>1380.7</ele>
        <time>2020-07-24T10:27:40.000Z</time>
      </trkpt>
      <trkpt lat="44.84416" lon="5.38603">
        <ele>1381.9</ele>
        <time>2020-07-24T10:27:49.000Z</time>
      </trkpt>
      <trkpt lat="44.84408" lon="5.38609">
        <ele>1383.2</ele>
        <time>2020-07-24T10:27:58.000Z</time>
      </trkpt>
      <trkpt lat="44.844" lon="5.38618">
        <ele>1384.3</ele>
        <time>2020-07-24T10:28:07.000Z</time>
      </trkpt>
      <trkpt lat="44.84391" lon="5.38624">
        <ele>1385.7</ele>
        <time>2020-07-24T10:28:17.000Z</time>
      </trkpt>
      <trkpt lat="44.84382" lon="5.38627">
        <ele>1386.9</ele>
        <time>2020-07-24T10:28:27.000Z</time>
      </trkpt>
      <trkpt lat="44.84372" lon="5.38625">
        <ele>1388.2</ele>
        <time>2020-07-24T10:28:56.000Z</time>
      </trkpt>
      <trkpt lat="44.84363" lon="5.38629">
        <ele>1388.8</ele>
        <time>2020-07-24T10:29:05.000Z</time>
      </trkpt>
      <trkpt lat="44.84354" lon="5.38635">
        <ele>1389.4</ele>
        <time>2020-07-24T10:29:13.000Z</time>
      </trkpt>
      <trkpt lat="44.84345" lon="5.3864">
        <ele>1390.2</ele>
        <time>2020-07-24T10:29:22.000Z</time>
      </trkpt>
      <trkpt lat="44.84336" lon="5.38644">
        <ele>1391.2</ele>
        <time>2020-07-24T10:29:31.000Z</time>
      </trkpt>
      <trkpt lat="44.84327" lon="5.38646">
        <ele>1392.4</ele>
        <time>2020-07-24T10:29:40.000Z</time>
      </trkpt>
      <trkpt lat="44.84317" lon="5.38649">
        <ele>1393.6</ele>
        <time>2020-07-24T10:29:49.000Z</time>
      </trkpt>
      <trkpt lat="44.84308" lon="5.38654">
        <ele>1394.8</ele>
        <time>2020-07-24T10:29:58.000Z</time>
      </trkpt>
      <trkpt lat="44.84299" lon="5.38659">
        <ele>1395.7</ele>
        <time>2020-07-24T10:30:07.000Z</time>
      </trkpt>
      <trkpt lat="44.8429" lon="5.38661">
        <ele>1396.7</ele>
        <time>2020-07-24T10:30:16.000Z</time>
      </trkpt>
      <trkpt lat="44.84281" lon="5.38665">
        <ele>1398.4</ele>
        <time>2020-07-24T10:30:25.000Z</time>
      </trkpt>
      <trkpt lat="44.84273" lon="5.38671">
        <ele>1400.2</ele>
        <time>2020-07-24T10:30:34.000Z</time>
      </trkpt>
      <trkpt lat="44.84266" lon="5.3868">
        <ele>1402.3</ele>
        <time>2020-07-24T10:30:44.000Z</time>
      </trkpt>
      <trkpt lat="44.84258" lon="5.38686">
        <ele>1403.3</ele>
        <time>2020-07-24T10:30:52.000Z</time>
      </trkpt>
      <trkpt lat="44.84249" lon="5.38692">
        <ele>1404.4</ele>
        <time>2020-07-24T10:31:01.000Z</time>
      </trkpt>
      <trkpt lat="44.8424" lon="5.38699">
        <ele>1405.8</ele>
        <time>2020-07-24T10:31:10.000Z</time>
      </trkpt>
      <trkpt lat="44.84233" lon="5.38707">
        <ele>1407.2</ele>
        <time>2020-07-24T10:31:19.000Z</time>
      </trkpt>
      <trkpt lat="44.84227" lon="5.38696">
        <ele>1406.5</ele>
        <time>2020-07-24T10:32:56.000Z</time>
      </trkpt>
      <trkpt lat="44.84221" lon="5.38686">
        <ele>1405.9</ele>
        <time>2020-07-24T10:33:03.000Z</time>
      </trkpt>
      <trkpt lat="44.84216" lon="5.38674">
        <ele>1405.9</ele>
        <time>2020-07-24T10:33:11.000Z</time>
      </trkpt>
      <trkpt lat="44.84208" lon="5.38663">
        <ele>1406</ele>
        <time>2020-07-24T10:33:16.000Z</time>
      </trkpt>
      <trkpt lat="44.84201" lon="5.3865">
        <ele>1406.6</ele>
        <time>2020-07-24T10:33:20.000Z</time>
      </trkpt>
      <trkpt lat="44.84193" lon="5.38635">
        <ele>1407.6</ele>
        <time>2020-07-24T10:33:23.000Z</time>
      </trkpt>
      <trkpt lat="44.84187" lon="5.38623">
        <ele>1407.8</ele>
        <time>2020-07-24T10:33:25.000Z</time>
      </trkpt>
      <trkpt lat="44.84181" lon="5.38611">
        <ele>1408</ele>
        <time>2020-07-24T10:33:27.000Z</time>
      </trkpt>
      <trkpt lat="44.84176" lon="5.38599">
        <ele>1408.5</ele>
        <time>2020-07-24T10:33:29.000Z</time>
      </trkpt>
      <trkpt lat="44.8417" lon="5.38589">
        <ele>1409.4</ele>
        <time>2020-07-24T10:33:31.000Z</time>
      </trkpt>
      <trkpt lat="44.84163" lon="5.38579">
        <ele>1410.8</ele>
        <time>2020-07-24T10:33:33.000Z</time>
      </trkpt>
      <trkpt lat="44.84158" lon="5.38568">
        <ele>1412.2</ele>
        <time>2020-07-24T10:33:35.000Z</time>
      </trkpt>
      <trkpt lat="44.84152" lon="5.38557">
        <ele>1413.4</ele>
        <time>2020-07-24T10:33:37.000Z</time>
      </trkpt>
      <trkpt lat="44.84146" lon="5.38547">
        <ele>1414.2</ele>
        <time>2020-07-24T10:33:39.000Z</time>
      </trkpt>
      <trkpt lat="44.84136" lon="5.38535">
        <ele>1416</ele>
        <time>2020-07-24T10:33:42.000Z</time>
      </trkpt>
      <trkpt lat="44.84128" lon="5.38523">
        <ele>1417.8</ele>
        <time>2020-07-24T10:33:45.000Z</time>
      </trkpt>
      <trkpt lat="44.8412" lon="5.38514">
        <ele>1420.8</ele>
        <time>2020-07-24T10:33:49.000Z</time>
      </trkpt>
      <trkpt lat="44.84111" lon="5.38511">
        <ele>1424</ele>
        <time>2020-07-24T10:33:55.000Z</time>
      </trkpt>
      <trkpt lat="44.84103" lon="5.38514">
        <ele>1427.4</ele>
        <time>2020-07-24T10:35:57.000Z</time>
      </trkpt>
      <trkpt lat="44.84102" lon="5.38501">
        <ele>1426.8</ele>
        <time>2020-07-24T10:36:30.000Z</time>
      </trkpt>
      <trkpt lat="44.84096" lon="5.38491">
        <ele>1426.9</ele>
        <time>2020-07-24T10:36:39.000Z</time>
      </trkpt>
      <trkpt lat="44.84089" lon="5.38483">
        <ele>1427.8</ele>
        <time>2020-07-24T10:36:48.000Z</time>
      </trkpt>
      <trkpt lat="44.84083" lon="5.38472">
        <ele>1428.8</ele>
        <time>2020-07-24T10:36:59.000Z</time>
      </trkpt>
      <trkpt lat="44.8408" lon="5.38459">
        <ele>1429.6</ele>
        <time>2020-07-24T10:37:08.000Z</time>
      </trkpt>
      <trkpt lat="44.84074" lon="5.38449">
        <ele>1430.5</ele>
        <time>2020-07-24T10:37:17.000Z</time>
      </trkpt>
      <trkpt lat="44.84068" lon="5.38439">
        <ele>1431.7</ele>
        <time>2020-07-24T10:37:26.000Z</time>
      </trkpt>
      <trkpt lat="44.84063" lon="5.38427">
        <ele>1434.1</ele>
        <time>2020-07-24T10:38:01.000Z</time>
      </trkpt>
      <trkpt lat="44.84055" lon="5.38422">
        <ele>1434.6</ele>
        <time>2020-07-24T10:38:09.000Z</time>
      </trkpt>
      <trkpt lat="44.84049" lon="5.38412">
        <ele>1435.6</ele>
        <time>2020-07-24T10:38:18.000Z</time>
      </trkpt>
      <trkpt lat="44.84043" lon="5.38402">
        <ele>1436.6</ele>
        <time>2020-07-24T10:38:26.000Z</time>
      </trkpt>
      <trkpt lat="44.84037" lon="5.38392">
        <ele>1437.8</ele>
        <time>2020-07-24T10:38:34.000Z</time>
      </trkpt>
      <trkpt lat="44.84032" lon="5.38381">
        <ele>1438.6</ele>
        <time>2020-07-24T10:38:42.000Z</time>
      </trkpt>
      <trkpt lat="44.84026" lon="5.38369">
        <ele>1439.8</ele>
        <time>2020-07-24T10:38:51.000Z</time>
      </trkpt>
      <trkpt lat="44.84021" lon="5.38358">
        <ele>1441.5</ele>
        <time>2020-07-24T10:39:00.000Z</time>
      </trkpt>
      <trkpt lat="44.84015" lon="5.38347">
        <ele>1442.9</ele>
        <time>2020-07-24T10:39:09.000Z</time>
      </trkpt>
      <trkpt lat="44.84008" lon="5.38338">
        <ele>1444.3</ele>
        <time>2020-07-24T10:39:18.000Z</time>
      </trkpt>
      <trkpt lat="44.84003" lon="5.38327">
        <ele>1445.1</ele>
        <time>2020-07-24T10:39:27.000Z</time>
      </trkpt>
      <trkpt lat="44.83997" lon="5.38316">
        <ele>1447</ele>
        <time>2020-07-24T10:39:36.000Z</time>
      </trkpt>
      <trkpt lat="44.83991" lon="5.38306">
        <ele>1448.1</ele>
        <time>2020-07-24T10:39:45.000Z</time>
      </trkpt>
      <trkpt lat="44.83985" lon="5.38297">
        <ele>1448.7</ele>
        <time>2020-07-24T10:39:54.000Z</time>
      </trkpt>
      <trkpt lat="44.83979" lon="5.38286">
        <ele>1451.8</ele>
        <time>2020-07-24T10:40:04.000Z</time>
      </trkpt>
      <trkpt lat="44.83974" lon="5.38275">
        <ele>1453.6</ele>
        <time>2020-07-24T10:40:13.000Z</time>
      </trkpt>
      <trkpt lat="44.83968" lon="5.38265">
        <ele>1456</ele>
        <time>2020-07-24T10:40:22.000Z</time>
      </trkpt>
      <trkpt lat="44.83962" lon="5.38255">
        <ele>1458.3</ele>
        <time>2020-07-24T10:40:31.000Z</time>
      </trkpt>
      <trkpt lat="44.83957" lon="5.38245">
        <ele>1460.8</ele>
        <time>2020-07-24T10:40:40.000Z</time>
      </trkpt>
      <trkpt lat="44.83952" lon="5.38234">
        <ele>1464.1</ele>
        <time>2020-07-24T10:40:50.000Z</time>
      </trkpt>
      <trkpt lat="44.83946" lon="5.38224">
        <ele>1466.8</ele>
        <time>2020-07-24T10:40:59.000Z</time>
      </trkpt>
      <trkpt lat="44.83939" lon="5.38215">
        <ele>1469.3</ele>
        <time>2020-07-24T10:41:09.000Z</time>
      </trkpt>
      <trkpt lat="44.83935" lon="5.38203">
        <ele>1471.3</ele>
        <time>2020-07-24T10:41:19.000Z</time>
      </trkpt>
      <trkpt lat="44.83927" lon="5.38195">
        <ele>1473.7</ele>
        <time>2020-07-24T10:41:29.000Z</time>
      </trkpt>
      <trkpt lat="44.83921" lon="5.38185">
        <ele>1475.4</ele>
        <time>2020-07-24T10:41:38.000Z</time>
      </trkpt>
      <trkpt lat="44.83916" lon="5.38174">
        <ele>1477.5</ele>
        <time>2020-07-24T10:41:48.000Z</time>
      </trkpt>
      <trkpt lat="44.83911" lon="5.38163">
        <ele>1479.4</ele>
        <time>2020-07-24T10:41:58.000Z</time>
      </trkpt>
      <trkpt lat="44.83905" lon="5.38153">
        <ele>1481.2</ele>
        <time>2020-07-24T10:42:07.000Z</time>
      </trkpt>
      <trkpt lat="44.83899" lon="5.38142">
        <ele>1483.6</ele>
        <time>2020-07-24T10:42:17.000Z</time>
      </trkpt>
      <trkpt lat="44.83892" lon="5.38133">
        <ele>1485.7</ele>
        <time>2020-07-24T10:42:27.000Z</time>
      </trkpt>
      <trkpt lat="44.83884" lon="5.38126">
        <ele>1489.3</ele>
        <time>2020-07-24T10:42:46.000Z</time>
      </trkpt>
      <trkpt lat="44.83876" lon="5.38132">
        <ele>1491.2</ele>
        <time>2020-07-24T10:45:02.000Z</time>
      </trkpt>
      <trkpt lat="44.83868" lon="5.38139">
        <ele>1490.6</ele>
        <time>2020-07-24T10:47:56.000Z</time>
      </trkpt>
      <trkpt lat="44.8386" lon="5.38133">
        <ele>1491.2</ele>
        <time>2020-07-24T10:50:38.000Z</time>
      </trkpt>
      <trkpt lat="44.83854" lon="5.38122">
        <ele>1492.3</ele>
        <time>2020-07-24T10:50:49.000Z</time>
      </trkpt>
      <trkpt lat="44.83852" lon="5.38109">
        <ele>1493</ele>
        <time>2020-07-24T10:50:58.000Z</time>
      </trkpt>
      <trkpt lat="44.83854" lon="5.38097">
        <ele>1493.3</ele>
        <time>2020-07-24T10:51:07.000Z</time>
      </trkpt>
      <trkpt lat="44.83856" lon="5.38083">
        <ele>1493.2</ele>
        <time>2020-07-24T10:51:15.000Z</time>
      </trkpt>
      <trkpt lat="44.83857" lon="5.3807">
        <ele>1493</ele>
        <time>2020-07-24T10:51:23.000Z</time>
      </trkpt>
      <trkpt lat="44.83855" lon="5.38056">
        <ele>1493</ele>
        <time>2020-07-24T10:51:32.000Z</time>
      </trkpt>
      <trkpt lat="44.8385" lon="5.38044">
        <ele>1493.9</ele>
        <time>2020-07-24T10:51:41.000Z</time>
      </trkpt>
      <trkpt lat="44.83847" lon="5.38031">
        <ele>1494.6</ele>
        <time>2020-07-24T10:51:50.000Z</time>
      </trkpt>
      <trkpt lat="44.83843" lon="5.38019">
        <ele>1495.8</ele>
        <time>2020-07-24T10:51:59.000Z</time>
      </trkpt>
      <trkpt lat="44.83838" lon="5.38008">
        <ele>1497.5</ele>
        <time>2020-07-24T10:52:08.000Z</time>
      </trkpt>
      <trkpt lat="44.83834" lon="5.37996">
        <ele>1498.6</ele>
        <time>2020-07-24T10:52:17.000Z</time>
      </trkpt>
      <trkpt lat="44.83831" lon="5.37983">
        <ele>1500.2</ele>
        <time>2020-07-24T10:52:26.000Z</time>
      </trkpt>
      <trkpt lat="44.83828" lon="5.3797">
        <ele>1501.5</ele>
        <time>2020-07-24T10:52:35.000Z</time>
      </trkpt>
      <trkpt lat="44.83827" lon="5.37957">
        <ele>1502.5</ele>
        <time>2020-07-24T10:52:44.000Z</time>
      </trkpt>
      <trkpt lat="44.83824" lon="5.37944">
        <ele>1503.9</ele>
        <time>2020-07-24T10:52:54.000Z</time>
      </trkpt>
      <trkpt lat="44.83817" lon="5.37935">
        <ele>1504.6</ele>
        <time>2020-07-24T10:53:03.000Z</time>
      </trkpt>
      <trkpt lat="44.83809" lon="5.37928">
        <ele>1505.5</ele>
        <time>2020-07-24T10:53:11.000Z</time>
      </trkpt>
      <trkpt lat="44.83801" lon="5.37921">
        <ele>1506.4</ele>
        <time>2020-07-24T10:53:19.000Z</time>
      </trkpt>
      <trkpt lat="44.83791" lon="5.37916">
        <ele>1507.5</ele>
        <time>2020-07-24T10:53:27.000Z</time>
      </trkpt>
      <trkpt lat="44.83781" lon="5.37906">
        <ele>1507.4</ele>
        <time>2020-07-24T10:53:31.000Z</time>
      </trkpt>
      <trkpt lat="44.83771" lon="5.37896">
        <ele>1507.7</ele>
        <time>2020-07-24T10:53:34.000Z</time>
      </trkpt>
      <trkpt lat="44.83762" lon="5.37889">
        <ele>1508.7</ele>
        <time>2020-07-24T10:53:38.000Z</time>
      </trkpt>
      <trkpt lat="44.83752" lon="5.37883">
        <ele>1511.2</ele>
        <time>2020-07-24T10:53:52.000Z</time>
      </trkpt>
      <trkpt lat="44.83742" lon="5.37878">
        <ele>1511.2</ele>
        <time>2020-07-24T10:53:55.000Z</time>
      </trkpt>
      <trkpt lat="44.83731" lon="5.37871">
        <ele>1511.3</ele>
        <time>2020-07-24T10:53:58.000Z</time>
      </trkpt>
      <trkpt lat="44.83718" lon="5.37863">
        <ele>1511.6</ele>
        <time>2020-07-24T10:54:01.000Z</time>
      </trkpt>
      <trkpt lat="44.83708" lon="5.37858">
        <ele>1511.1</ele>
        <time>2020-07-24T10:54:03.000Z</time>
      </trkpt>
      <trkpt lat="44.83699" lon="5.37856">
        <ele>1511.3</ele>
        <time>2020-07-24T10:54:05.000Z</time>
      </trkpt>
      <trkpt lat="44.8369" lon="5.37851">
        <ele>1510.8</ele>
        <time>2020-07-24T10:54:07.000Z</time>
      </trkpt>
      <trkpt lat="44.83681" lon="5.37846">
        <ele>1511.4</ele>
        <time>2020-07-24T10:54:09.000Z</time>
      </trkpt>
      <trkpt lat="44.83672" lon="5.37841">
        <ele>1511.7</ele>
        <time>2020-07-24T10:54:11.000Z</time>
      </trkpt>
      <trkpt lat="44.83663" lon="5.37836">
        <ele>1512</ele>
        <time>2020-07-24T10:54:13.000Z</time>
      </trkpt>
      <trkpt lat="44.83653" lon="5.37831">
        <ele>1512.5</ele>
        <time>2020-07-24T10:54:15.000Z</time>
      </trkpt>
      <trkpt lat="44.83643" lon="5.37826">
        <ele>1513.2</ele>
        <time>2020-07-24T10:54:17.000Z</time>
      </trkpt>
      <trkpt lat="44.83634" lon="5.37821">
        <ele>1514</ele>
        <time>2020-07-24T10:54:19.000Z</time>
      </trkpt>
      <trkpt lat="44.83624" lon="5.37817">
        <ele>1514.4</ele>
        <time>2020-07-24T10:54:21.000Z</time>
      </trkpt>
      <trkpt lat="44.83613" lon="5.37813">
        <ele>1514.6</ele>
        <time>2020-07-24T10:54:23.000Z</time>
      </trkpt>
      <trkpt lat="44.83603" lon="5.37809">
        <ele>1514.8</ele>
        <time>2020-07-24T10:54:25.000Z</time>
      </trkpt>
      <trkpt lat="44.83593" lon="5.37806">
        <ele>1515.3</ele>
        <time>2020-07-24T10:54:27.000Z</time>
      </trkpt>
      <trkpt lat="44.83584" lon="5.37803">
        <ele>1515.5</ele>
        <time>2020-07-24T10:54:29.000Z</time>
      </trkpt>
      <trkpt lat="44.83574" lon="5.37799">
        <ele>1515.9</ele>
        <time>2020-07-24T10:54:31.000Z</time>
      </trkpt>
      <trkpt lat="44.83565" lon="5.37796">
        <ele>1516.3</ele>
        <time>2020-07-24T10:54:33.000Z</time>
      </trkpt>
      <trkpt lat="44.83554" lon="5.37789">
        <ele>1516.8</ele>
        <time>2020-07-24T10:54:36.000Z</time>
      </trkpt>
      <trkpt lat="44.83542" lon="5.37785">
        <ele>1517.2</ele>
        <time>2020-07-24T10:54:39.000Z</time>
      </trkpt>
      <trkpt lat="44.83532" lon="5.37782">
        <ele>1517.1</ele>
        <time>2020-07-24T10:54:42.000Z</time>
      </trkpt>
      <trkpt lat="44.83522" lon="5.37779">
        <ele>1517</ele>
        <time>2020-07-24T10:54:45.000Z</time>
      </trkpt>
      <trkpt lat="44.8351" lon="5.37776">
        <ele>1516.5</ele>
        <time>2020-07-24T10:54:49.000Z</time>
      </trkpt>
      <trkpt lat="44.83501" lon="5.37775">
        <ele>1516.6</ele>
        <time>2020-07-24T10:54:52.000Z</time>
      </trkpt>
      <trkpt lat="44.83489" lon="5.37774">
        <ele>1516.3</ele>
        <time>2020-07-24T10:54:56.000Z</time>
      </trkpt>
      <trkpt lat="44.8348" lon="5.37771">
        <ele>1516.3</ele>
        <time>2020-07-24T10:54:59.000Z</time>
      </trkpt>
      <trkpt lat="44.8347" lon="5.37766">
        <ele>1516.2</ele>
        <time>2020-07-24T10:55:02.000Z</time>
      </trkpt>
      <trkpt lat="44.8346" lon="5.37762">
        <ele>1516.2</ele>
        <time>2020-07-24T10:55:05.000Z</time>
      </trkpt>
      <trkpt lat="44.83452" lon="5.37755">
        <ele>1516.3</ele>
        <time>2020-07-24T10:55:08.000Z</time>
      </trkpt>
      <trkpt lat="44.83442" lon="5.37751">
        <ele>1516.3</ele>
        <time>2020-07-24T10:55:11.000Z</time>
      </trkpt>
      <trkpt lat="44.83432" lon="5.37748">
        <ele>1516.1</ele>
        <time>2020-07-24T10:55:14.000Z</time>
      </trkpt>
      <trkpt lat="44.83422" lon="5.37745">
        <ele>1516.2</ele>
        <time>2020-07-24T10:55:17.000Z</time>
      </trkpt>
      <trkpt lat="44.83413" lon="5.37742">
        <ele>1516.4</ele>
        <time>2020-07-24T10:55:20.000Z</time>
      </trkpt>
      <trkpt lat="44.83404" lon="5.37739">
        <ele>1516.6</ele>
        <time>2020-07-24T10:55:24.000Z</time>
      </trkpt>
      <trkpt lat="44.83395" lon="5.37739">
        <ele>1518.3</ele>
        <time>2020-07-24T10:55:47.000Z</time>
      </trkpt>
      <trkpt lat="44.83385" lon="5.37738">
        <ele>1518.8</ele>
        <time>2020-07-24T10:55:55.000Z</time>
      </trkpt>
      <trkpt lat="44.83376" lon="5.37736">
        <ele>1518.7</ele>
        <time>2020-07-24T10:56:04.000Z</time>
      </trkpt>
      <trkpt lat="44.83366" lon="5.37734">
        <ele>1518.8</ele>
        <time>2020-07-24T10:56:13.000Z</time>
      </trkpt>
      <trkpt lat="44.83357" lon="5.3773">
        <ele>1519.2</ele>
        <time>2020-07-24T10:56:22.000Z</time>
      </trkpt>
      <trkpt lat="44.83348" lon="5.37726">
        <ele>1519.8</ele>
        <time>2020-07-24T10:56:30.000Z</time>
      </trkpt>
      <trkpt lat="44.83338" lon="5.37723">
        <ele>1520.4</ele>
        <time>2020-07-24T10:56:38.000Z</time>
      </trkpt>
      <trkpt lat="44.83329" lon="5.37721">
        <ele>1520.9</ele>
        <time>2020-07-24T10:56:46.000Z</time>
      </trkpt>
      <trkpt lat="44.83319" lon="5.37722">
        <ele>1521.2</ele>
        <time>2020-07-24T10:56:54.000Z</time>
      </trkpt>
      <trkpt lat="44.8331" lon="5.37721">
        <ele>1521.7</ele>
        <time>2020-07-24T10:57:03.000Z</time>
      </trkpt>
      <trkpt lat="44.833" lon="5.37721">
        <ele>1522.8</ele>
        <time>2020-07-24T10:57:12.000Z</time>
      </trkpt>
      <trkpt lat="44.8329" lon="5.37718">
        <ele>1523.5</ele>
        <time>2020-07-24T10:57:21.000Z</time>
      </trkpt>
      <trkpt lat="44.83281" lon="5.37716">
        <ele>1523.6</ele>
        <time>2020-07-24T10:57:29.000Z</time>
      </trkpt>
      <trkpt lat="44.83271" lon="5.37715">
        <ele>1523.6</ele>
        <time>2020-07-24T10:57:37.000Z</time>
      </trkpt>
      <trkpt lat="44.83261" lon="5.37712">
        <ele>1523.6</ele>
        <time>2020-07-24T10:57:46.000Z</time>
      </trkpt>
      <trkpt lat="44.83252" lon="5.3771">
        <ele>1523.8</ele>
        <time>2020-07-24T10:57:54.000Z</time>
      </trkpt>
      <trkpt lat="44.83243" lon="5.37707">
        <ele>1523.6</ele>
        <time>2020-07-24T10:58:02.000Z</time>
      </trkpt>
      <trkpt lat="44.83234" lon="5.37704">
        <ele>1524</ele>
        <time>2020-07-24T10:58:10.000Z</time>
      </trkpt>
      <trkpt lat="44.83225" lon="5.37701">
        <ele>1524.5</ele>
        <time>2020-07-24T10:58:18.000Z</time>
      </trkpt>
      <trkpt lat="44.83216" lon="5.37698">
        <ele>1524.7</ele>
        <time>2020-07-24T10:58:27.000Z</time>
      </trkpt>
      <trkpt lat="44.83207" lon="5.37693">
        <ele>1524.8</ele>
        <time>2020-07-24T10:58:38.000Z</time>
      </trkpt>
      <trkpt lat="44.83198" lon="5.37692">
        <ele>1524.5</ele>
        <time>2020-07-24T10:58:46.000Z</time>
      </trkpt>
      <trkpt lat="44.83189" lon="5.37688">
        <ele>1524.1</ele>
        <time>2020-07-24T10:58:54.000Z</time>
      </trkpt>
      <trkpt lat="44.83179" lon="5.37686">
        <ele>1524.8</ele>
        <time>2020-07-24T10:59:03.000Z</time>
      </trkpt>
      <trkpt lat="44.83169" lon="5.37683">
        <ele>1525.1</ele>
        <time>2020-07-24T10:59:11.000Z</time>
      </trkpt>
      <trkpt lat="44.8316" lon="5.37682">
        <ele>1524.8</ele>
        <time>2020-07-24T10:59:19.000Z</time>
      </trkpt>
      <trkpt lat="44.8315" lon="5.3768">
        <ele>1525</ele>
        <time>2020-07-24T10:59:27.000Z</time>
      </trkpt>
      <trkpt lat="44.83142" lon="5.37676">
        <ele>1525.5</ele>
        <time>2020-07-24T10:59:35.000Z</time>
      </trkpt>
      <trkpt lat="44.83133" lon="5.37674">
        <ele>1525.9</ele>
        <time>2020-07-24T10:59:43.000Z</time>
      </trkpt>
      <trkpt lat="44.83123" lon="5.3767">
        <ele>1526.3</ele>
        <time>2020-07-24T10:59:52.000Z</time>
      </trkpt>
      <trkpt lat="44.83114" lon="5.37666">
        <ele>1526.1</ele>
        <time>2020-07-24T11:00:01.000Z</time>
      </trkpt>
      <trkpt lat="44.83105" lon="5.3766">
        <ele>1526.8</ele>
        <time>2020-07-24T11:00:17.000Z</time>
      </trkpt>
      <trkpt lat="44.83096" lon="5.37655">
        <ele>1527</ele>
        <time>2020-07-24T11:00:26.000Z</time>
      </trkpt>
      <trkpt lat="44.83088" lon="5.37646">
        <ele>1528.5</ele>
        <time>2020-07-24T11:00:35.000Z</time>
      </trkpt>
      <trkpt lat="44.83079" lon="5.37643">
        <ele>1530.5</ele>
        <time>2020-07-24T11:00:44.000Z</time>
      </trkpt>
      <trkpt lat="44.83069" lon="5.3764">
        <ele>1531.8</ele>
        <time>2020-07-24T11:00:53.000Z</time>
      </trkpt>
      <trkpt lat="44.8306" lon="5.37635">
        <ele>1532.8</ele>
        <time>2020-07-24T11:01:02.000Z</time>
      </trkpt>
      <trkpt lat="44.83051" lon="5.37631">
        <ele>1534.4</ele>
        <time>2020-07-24T11:01:11.000Z</time>
      </trkpt>
      <trkpt lat="44.83043" lon="5.37626">
        <ele>1536.2</ele>
        <time>2020-07-24T11:01:20.000Z</time>
      </trkpt>
      <trkpt lat="44.83034" lon="5.37625">
        <ele>1537.1</ele>
        <time>2020-07-24T11:01:29.000Z</time>
      </trkpt>
      <trkpt lat="44.83025" lon="5.3762">
        <ele>1538.2</ele>
        <time>2020-07-24T11:01:38.000Z</time>
      </trkpt>
      <trkpt lat="44.83017" lon="5.37613">
        <ele>1539.2</ele>
        <time>2020-07-24T11:01:47.000Z</time>
      </trkpt>
      <trkpt lat="44.83009" lon="5.37605">
        <ele>1540.3</ele>
        <time>2020-07-24T11:01:56.000Z</time>
      </trkpt>
      <trkpt lat="44.83003" lon="5.37594">
        <ele>1540.9</ele>
        <time>2020-07-24T11:02:05.000Z</time>
      </trkpt>
      <trkpt lat="44.82997" lon="5.37584">
        <ele>1541.3</ele>
        <time>2020-07-24T11:02:14.000Z</time>
      </trkpt>
      <trkpt lat="44.82993" lon="5.37572">
        <ele>1541.3</ele>
        <time>2020-07-24T11:02:43.000Z</time>
      </trkpt>
      <trkpt lat="44.82987" lon="5.37561">
        <ele>1541.5</ele>
        <time>2020-07-24T11:02:52.000Z</time>
      </trkpt>
      <trkpt lat="44.82982" lon="5.3755">
        <ele>1543.7</ele>
        <time>2020-07-24T11:05:12.000Z</time>
      </trkpt>
      <trkpt lat="44.82978" lon="5.37539">
        <ele>1542.8</ele>
        <time>2020-07-24T11:05:28.000Z</time>
      </trkpt>
      <trkpt lat="44.82973" lon="5.37527">
        <ele>1542.9</ele>
        <time>2020-07-24T11:05:45.000Z</time>
      </trkpt>
      <trkpt lat="44.82969" lon="5.37515">
        <ele>1540.3</ele>
        <time>2020-07-24T11:06:03.000Z</time>
      </trkpt>
      <trkpt lat="44.82964" lon="5.37505">
        <ele>1539.2</ele>
        <time>2020-07-24T11:09:43.000Z</time>
      </trkpt>
      <trkpt lat="44.82962" lon="5.37492">
        <ele>1536.9</ele>
        <time>2020-07-24T11:10:11.000Z</time>
      </trkpt>
      <trkpt lat="44.82956" lon="5.37482">
        <ele>1536</ele>
        <time>2020-07-24T11:10:23.000Z</time>
      </trkpt>
      <trkpt lat="44.82949" lon="5.37472">
        <ele>1536.9</ele>
        <time>2020-07-24T11:10:33.000Z</time>
      </trkpt>
      <trkpt lat="44.82945" lon="5.37461">
        <ele>1534.5</ele>
        <time>2020-07-24T11:11:09.000Z</time>
      </trkpt>
      <trkpt lat="44.82938" lon="5.37452">
        <ele>1535.4</ele>
        <time>2020-07-24T11:12:58.000Z</time>
      </trkpt>
      <trkpt lat="44.82929" lon="5.37446">
        <ele>1534.7</ele>
        <time>2020-07-24T11:13:09.000Z</time>
      </trkpt>
      <trkpt lat="44.82921" lon="5.37439">
        <ele>1534.7</ele>
        <time>2020-07-24T11:13:18.000Z</time>
      </trkpt>
      <trkpt lat="44.82912" lon="5.37433">
        <ele>1534.8</ele>
        <time>2020-07-24T11:13:27.000Z</time>
      </trkpt>
      <trkpt lat="44.82903" lon="5.37429">
        <ele>1535.1</ele>
        <time>2020-07-24T11:13:36.000Z</time>
      </trkpt>
      <trkpt lat="44.82896" lon="5.3742">
        <ele>1535.4</ele>
        <time>2020-07-24T11:13:46.000Z</time>
      </trkpt>
      <trkpt lat="44.82888" lon="5.37413">
        <ele>1535.1</ele>
        <time>2020-07-24T11:13:57.000Z</time>
      </trkpt>
      <trkpt lat="44.82879" lon="5.37406">
        <ele>1534.8</ele>
        <time>2020-07-24T11:14:07.000Z</time>
      </trkpt>
      <trkpt lat="44.82871" lon="5.37402">
        <ele>1534.5</ele>
        <time>2020-07-24T11:14:14.000Z</time>
      </trkpt>
      <trkpt lat="44.82862" lon="5.37396">
        <ele>1534.9</ele>
        <time>2020-07-24T11:14:23.000Z</time>
      </trkpt>
      <trkpt lat="44.82853" lon="5.37392">
        <ele>1535.3</ele>
        <time>2020-07-24T11:14:35.000Z</time>
      </trkpt>
      <trkpt lat="44.82844" lon="5.37385">
        <ele>1535.7</ele>
        <time>2020-07-24T11:14:46.000Z</time>
      </trkpt>
      <trkpt lat="44.82835" lon="5.3738">
        <ele>1535.7</ele>
        <time>2020-07-24T11:14:56.000Z</time>
      </trkpt>
      <trkpt lat="44.82826" lon="5.37375">
        <ele>1536.1</ele>
        <time>2020-07-24T11:15:06.000Z</time>
      </trkpt>
      <trkpt lat="44.82818" lon="5.37367">
        <ele>1536.5</ele>
        <time>2020-07-24T11:15:17.000Z</time>
      </trkpt>
      <trkpt lat="44.82811" lon="5.37359">
        <ele>1536</ele>
        <time>2020-07-24T11:15:26.000Z</time>
      </trkpt>
      <trkpt lat="44.82802" lon="5.37354">
        <ele>1535.9</ele>
        <time>2020-07-24T11:15:35.000Z</time>
      </trkpt>
      <trkpt lat="44.82793" lon="5.37347">
        <ele>1535.7</ele>
        <time>2020-07-24T11:15:44.000Z</time>
      </trkpt>
      <trkpt lat="44.82785" lon="5.37343">
        <ele>1535.7</ele>
        <time>2020-07-24T11:15:53.000Z</time>
      </trkpt>
      <trkpt lat="44.82776" lon="5.37338">
        <ele>1536.3</ele>
        <time>2020-07-24T11:16:04.000Z</time>
      </trkpt>
      <trkpt lat="44.82767" lon="5.37333">
        <ele>1536.8</ele>
        <time>2020-07-24T11:16:14.000Z</time>
      </trkpt>
      <trkpt lat="44.82759" lon="5.37328">
        <ele>1537.5</ele>
        <time>2020-07-24T11:16:25.000Z</time>
      </trkpt>
      <trkpt lat="44.8275" lon="5.37321">
        <ele>1537.6</ele>
        <time>2020-07-24T11:16:34.000Z</time>
      </trkpt>
      <trkpt lat="44.82741" lon="5.37316">
        <ele>1538.5</ele>
        <time>2020-07-24T11:16:46.000Z</time>
      </trkpt>
      <trkpt lat="44.82733" lon="5.37312">
        <ele>1539.6</ele>
        <time>2020-07-24T11:16:57.000Z</time>
      </trkpt>
      <trkpt lat="44.82725" lon="5.37304">
        <ele>1539.8</ele>
        <time>2020-07-24T11:17:06.000Z</time>
      </trkpt>
      <trkpt lat="44.82717" lon="5.37298">
        <ele>1539</ele>
        <time>2020-07-24T11:17:14.000Z</time>
      </trkpt>
      <trkpt lat="44.82709" lon="5.37292">
        <ele>1538.3</ele>
        <time>2020-07-24T11:17:25.000Z</time>
      </trkpt>
      <trkpt lat="44.82702" lon="5.37284">
        <ele>1538.4</ele>
        <time>2020-07-24T11:18:52.000Z</time>
      </trkpt>
      <trkpt lat="44.82695" lon="5.37274">
        <ele>1537.4</ele>
        <time>2020-07-24T11:19:03.000Z</time>
      </trkpt>
      <trkpt lat="44.82687" lon="5.37266">
        <ele>1536</ele>
        <time>2020-07-24T11:19:13.000Z</time>
      </trkpt>
      <trkpt lat="44.82679" lon="5.37258">
        <ele>1535.3</ele>
        <time>2020-07-24T11:19:23.000Z</time>
      </trkpt>
      <trkpt lat="44.82671" lon="5.3725">
        <ele>1534.4</ele>
        <time>2020-07-24T11:19:33.000Z</time>
      </trkpt>
      <trkpt lat="44.82663" lon="5.37242">
        <ele>1533.4</ele>
        <time>2020-07-24T11:19:42.000Z</time>
      </trkpt>
      <trkpt lat="44.82655" lon="5.37235">
        <ele>1533</ele>
        <time>2020-07-24T11:19:51.000Z</time>
      </trkpt>
      <trkpt lat="44.82646" lon="5.37228">
        <ele>1532.7</ele>
        <time>2020-07-24T11:20:00.000Z</time>
      </trkpt>
      <trkpt lat="44.82639" lon="5.37219">
        <ele>1531.9</ele>
        <time>2020-07-24T11:20:10.000Z</time>
      </trkpt>
      <trkpt lat="44.82632" lon="5.3721">
        <ele>1530.5</ele>
        <time>2020-07-24T11:20:23.000Z</time>
      </trkpt>
      <trkpt lat="44.82625" lon="5.37201">
        <ele>1529.3</ele>
        <time>2020-07-24T11:20:33.000Z</time>
      </trkpt>
      <trkpt lat="44.82617" lon="5.37194">
        <ele>1528.9</ele>
        <time>2020-07-24T11:20:42.000Z</time>
      </trkpt>
      <trkpt lat="44.82609" lon="5.37186">
        <ele>1528.4</ele>
        <time>2020-07-24T11:20:52.000Z</time>
      </trkpt>
      <trkpt lat="44.826" lon="5.37179">
        <ele>1529.1</ele>
        <time>2020-07-24T11:23:42.000Z</time>
      </trkpt>
      <trkpt lat="44.82592" lon="5.37171">
        <ele>1529.3</ele>
        <time>2020-07-24T11:23:55.000Z</time>
      </trkpt>
      <trkpt lat="44.82585" lon="5.37163">
        <ele>1529.3</ele>
        <time>2020-07-24T11:24:04.000Z</time>
      </trkpt>
      <trkpt lat="44.82578" lon="5.37156">
        <ele>1529.1</ele>
        <time>2020-07-24T11:24:13.000Z</time>
      </trkpt>
      <trkpt lat="44.82569" lon="5.37149">
        <ele>1528.9</ele>
        <time>2020-07-24T11:24:23.000Z</time>
      </trkpt>
      <trkpt lat="44.82562" lon="5.37142">
        <ele>1528.5</ele>
        <time>2020-07-24T11:24:32.000Z</time>
      </trkpt>
      <trkpt lat="44.82553" lon="5.37134">
        <ele>1528.6</ele>
        <time>2020-07-24T11:24:42.000Z</time>
      </trkpt>
      <trkpt lat="44.82546" lon="5.37125">
        <ele>1528.7</ele>
        <time>2020-07-24T11:24:55.000Z</time>
      </trkpt>
      <trkpt lat="44.82538" lon="5.3712">
        <ele>1528.4</ele>
        <time>2020-07-24T11:25:05.000Z</time>
      </trkpt>
      <trkpt lat="44.8253" lon="5.37113">
        <ele>1528.2</ele>
        <time>2020-07-24T11:25:15.000Z</time>
      </trkpt>
      <trkpt lat="44.82522" lon="5.37107">
        <ele>1528.2</ele>
        <time>2020-07-24T11:25:25.000Z</time>
      </trkpt>
      <trkpt lat="44.82513" lon="5.371">
        <ele>1527.7</ele>
        <time>2020-07-24T11:25:35.000Z</time>
      </trkpt>
      <trkpt lat="44.82504" lon="5.37094">
        <ele>1527.6</ele>
        <time>2020-07-24T11:25:45.000Z</time>
      </trkpt>
      <trkpt lat="44.82496" lon="5.37087">
        <ele>1527.9</ele>
        <time>2020-07-24T11:25:54.000Z</time>
      </trkpt>
      <trkpt lat="44.82489" lon="5.3708">
        <ele>1527.7</ele>
        <time>2020-07-24T11:26:05.000Z</time>
      </trkpt>
      <trkpt lat="44.82481" lon="5.37073">
        <ele>1527.5</ele>
        <time>2020-07-24T11:26:43.000Z</time>
      </trkpt>
      <trkpt lat="44.82474" lon="5.37064">
        <ele>1526.9</ele>
        <time>2020-07-24T11:26:52.000Z</time>
      </trkpt>
      <trkpt lat="44.82467" lon="5.37054">
        <ele>1526.3</ele>
        <time>2020-07-24T11:27:02.000Z</time>
      </trkpt>
      <trkpt lat="44.8246" lon="5.37045">
        <ele>1525.6</ele>
        <time>2020-07-24T11:27:10.000Z</time>
      </trkpt>
      <trkpt lat="44.82453" lon="5.37036">
        <ele>1525.2</ele>
        <time>2020-07-24T11:27:19.000Z</time>
      </trkpt>
      <trkpt lat="44.82446" lon="5.37029">
        <ele>1527</ele>
        <time>2020-07-24T11:32:50.000Z</time>
      </trkpt>
      <trkpt lat="44.82439" lon="5.37018">
        <ele>1528</ele>
        <time>2020-07-24T11:32:59.000Z</time>
      </trkpt>
      <trkpt lat="44.82434" lon="5.37007">
        <ele>1527.2</ele>
        <time>2020-07-24T11:33:09.000Z</time>
      </trkpt>
      <trkpt lat="44.82428" lon="5.36997">
        <ele>1526.2</ele>
        <time>2020-07-24T11:33:21.000Z</time>
      </trkpt>
      <trkpt lat="44.82425" lon="5.36985">
        <ele>1524.3</ele>
        <time>2020-07-24T11:33:32.000Z</time>
      </trkpt>
      <trkpt lat="44.82422" lon="5.36972">
        <ele>1521</ele>
        <time>2020-07-24T11:33:44.000Z</time>
      </trkpt>
      <trkpt lat="44.82423" lon="5.36959">
        <ele>1518</ele>
        <time>2020-07-24T11:34:12.000Z</time>
      </trkpt>
      <trkpt lat="44.82419" lon="5.36947">
        <ele>1515.8</ele>
        <time>2020-07-24T11:34:36.000Z</time>
      </trkpt>
      <trkpt lat="44.82416" lon="5.36935">
        <ele>1513.6</ele>
        <time>2020-07-24T11:35:02.000Z</time>
      </trkpt>
      <trkpt lat="44.82409" lon="5.36925">
        <ele>1518.8</ele>
        <time>2020-07-24T11:35:14.000Z</time>
      </trkpt>
      <trkpt lat="44.82403" lon="5.36913">
        <ele>1513.5</ele>
        <time>2020-07-24T11:35:27.000Z</time>
      </trkpt>
      <trkpt lat="44.82396" lon="5.36904">
        <ele>1511.6</ele>
        <time>2020-07-24T11:35:36.000Z</time>
      </trkpt>
      <trkpt lat="44.82389" lon="5.36895">
        <ele>1511.2</ele>
        <time>2020-07-24T11:35:45.000Z</time>
      </trkpt>
      <trkpt lat="44.82382" lon="5.36886">
        <ele>1511.3</ele>
        <time>2020-07-24T11:35:55.000Z</time>
      </trkpt>
      <trkpt lat="44.82375" lon="5.36878">
        <ele>1511.7</ele>
        <time>2020-07-24T11:36:08.000Z</time>
      </trkpt>
      <trkpt lat="44.82368" lon="5.36868">
        <ele>1511.7</ele>
        <time>2020-07-24T11:36:17.000Z</time>
      </trkpt>
      <trkpt lat="44.82363" lon="5.36856">
        <ele>1511.7</ele>
        <time>2020-07-24T11:36:25.000Z</time>
      </trkpt>
      <trkpt lat="44.82359" lon="5.36844">
        <ele>1511.3</ele>
        <time>2020-07-24T11:36:32.000Z</time>
      </trkpt>
      <trkpt lat="44.8236" lon="5.36831">
        <ele>1510.2</ele>
        <time>2020-07-24T11:36:42.000Z</time>
      </trkpt>
      <trkpt lat="44.82355" lon="5.3682">
        <ele>1509.5</ele>
        <time>2020-07-24T11:36:51.000Z</time>
      </trkpt>
      <trkpt lat="44.82352" lon="5.36807">
        <ele>1507.6</ele>
        <time>2020-07-24T11:37:02.000Z</time>
      </trkpt>
      <trkpt lat="44.8235" lon="5.36794">
        <ele>1506.7</ele>
        <time>2020-07-24T11:38:28.000Z</time>
      </trkpt>
      <trkpt lat="44.82353" lon="5.36782">
        <ele>1503.6</ele>
        <time>2020-07-24T11:38:44.000Z</time>
      </trkpt>
      <trkpt lat="44.82357" lon="5.36771">
        <ele>1500.2</ele>
        <time>2020-07-24T11:38:59.000Z</time>
      </trkpt>
      <trkpt lat="44.82359" lon="5.36758">
        <ele>1497.8</ele>
        <time>2020-07-24T11:39:12.000Z</time>
      </trkpt>
      <trkpt lat="44.82367" lon="5.3675">
        <ele>1494.9</ele>
        <time>2020-07-24T11:39:24.000Z</time>
      </trkpt>
      <trkpt lat="44.82375" lon="5.36742">
        <ele>1492.8</ele>
        <time>2020-07-24T11:39:35.000Z</time>
      </trkpt>
      <trkpt lat="44.82384" lon="5.36736">
        <ele>1489.5</ele>
        <time>2020-07-24T11:39:44.000Z</time>
      </trkpt>
      <trkpt lat="44.82391" lon="5.36727">
        <ele>1486.9</ele>
        <time>2020-07-24T11:39:54.000Z</time>
      </trkpt>
      <trkpt lat="44.82398" lon="5.36718">
        <ele>1484.1</ele>
        <time>2020-07-24T11:40:03.000Z</time>
      </trkpt>
      <trkpt lat="44.82406" lon="5.36711">
        <ele>1481.5</ele>
        <time>2020-07-24T11:40:12.000Z</time>
      </trkpt>
      <trkpt lat="44.82413" lon="5.36703">
        <ele>1479</ele>
        <time>2020-07-24T11:40:22.000Z</time>
      </trkpt>
      <trkpt lat="44.82421" lon="5.36696">
        <ele>1476.6</ele>
        <time>2020-07-24T11:40:31.000Z</time>
      </trkpt>
      <trkpt lat="44.8243" lon="5.3669">
        <ele>1474.7</ele>
        <time>2020-07-24T11:40:41.000Z</time>
      </trkpt>
      <trkpt lat="44.82437" lon="5.36683">
        <ele>1472.6</ele>
        <time>2020-07-24T11:40:49.000Z</time>
      </trkpt>
      <trkpt lat="44.82444" lon="5.36674">
        <ele>1470.4</ele>
        <time>2020-07-24T11:40:58.000Z</time>
      </trkpt>
      <trkpt lat="44.82452" lon="5.36669">
        <ele>1468.2</ele>
        <time>2020-07-24T11:41:06.000Z</time>
      </trkpt>
      <trkpt lat="44.8246" lon="5.36662">
        <ele>1465.8</ele>
        <time>2020-07-24T11:41:15.000Z</time>
      </trkpt>
      <trkpt lat="44.82468" lon="5.36654">
        <ele>1464</ele>
        <time>2020-07-24T11:41:24.000Z</time>
      </trkpt>
      <trkpt lat="44.82474" lon="5.36643">
        <ele>1462.1</ele>
        <time>2020-07-24T11:41:33.000Z</time>
      </trkpt>
      <trkpt lat="44.82482" lon="5.36634">
        <ele>1460.1</ele>
        <time>2020-07-24T11:41:42.000Z</time>
      </trkpt>
      <trkpt lat="44.8249" lon="5.36627">
        <ele>1457.9</ele>
        <time>2020-07-24T11:41:49.000Z</time>
      </trkpt>
      <trkpt lat="44.82499" lon="5.36621">
        <ele>1457.1</ele>
        <time>2020-07-24T11:41:57.000Z</time>
      </trkpt>
      <trkpt lat="44.82507" lon="5.36613">
        <ele>1455.1</ele>
        <time>2020-07-24T11:42:05.000Z</time>
      </trkpt>
      <trkpt lat="44.82514" lon="5.36606">
        <ele>1453.2</ele>
        <time>2020-07-24T11:42:14.000Z</time>
      </trkpt>
      <trkpt lat="44.82523" lon="5.36599">
        <ele>1451.4</ele>
        <time>2020-07-24T11:42:23.000Z</time>
      </trkpt>
      <trkpt lat="44.82532" lon="5.36595">
        <ele>1450</ele>
        <time>2020-07-24T11:42:32.000Z</time>
      </trkpt>
      <trkpt lat="44.82542" lon="5.36593">
        <ele>1448.4</ele>
        <time>2020-07-24T11:42:40.000Z</time>
      </trkpt>
      <trkpt lat="44.82552" lon="5.36589">
        <ele>1446.3</ele>
        <time>2020-07-24T11:42:49.000Z</time>
      </trkpt>
      <trkpt lat="44.8256" lon="5.36585">
        <ele>1445.1</ele>
        <time>2020-07-24T11:42:56.000Z</time>
      </trkpt>
      <trkpt lat="44.82568" lon="5.36578">
        <ele>1443.7</ele>
        <time>2020-07-24T11:43:04.000Z</time>
      </trkpt>
      <trkpt lat="44.82577" lon="5.36575">
        <ele>1442.5</ele>
        <time>2020-07-24T11:43:12.000Z</time>
      </trkpt>
      <trkpt lat="44.82587" lon="5.3657">
        <ele>1440.9</ele>
        <time>2020-07-24T11:43:20.000Z</time>
      </trkpt>
      <trkpt lat="44.82595" lon="5.36564">
        <ele>1439.2</ele>
        <time>2020-07-24T11:43:28.000Z</time>
      </trkpt>
      <trkpt lat="44.82603" lon="5.36555">
        <ele>1437.4</ele>
        <time>2020-07-24T11:43:36.000Z</time>
      </trkpt>
      <trkpt lat="44.82611" lon="5.36549">
        <ele>1436.5</ele>
        <time>2020-07-24T11:43:43.000Z</time>
      </trkpt>
      <trkpt lat="44.82618" lon="5.3654">
        <ele>1435.5</ele>
        <time>2020-07-24T11:43:51.000Z</time>
      </trkpt>
      <trkpt lat="44.82624" lon="5.36529">
        <ele>1434.5</ele>
        <time>2020-07-24T11:44:00.000Z</time>
      </trkpt>
      <trkpt lat="44.8263" lon="5.3652">
        <ele>1433.6</ele>
        <time>2020-07-24T11:44:07.000Z</time>
      </trkpt>
      <trkpt lat="44.82637" lon="5.36511">
        <ele>1432.8</ele>
        <time>2020-07-24T11:44:14.000Z</time>
      </trkpt>
      <trkpt lat="44.82644" lon="5.36503">
        <ele>1432.1</ele>
        <time>2020-07-24T11:44:21.000Z</time>
      </trkpt>
      <trkpt lat="44.82652" lon="5.36494">
        <ele>1430.9</ele>
        <time>2020-07-24T11:44:29.000Z</time>
      </trkpt>
      <trkpt lat="44.82659" lon="5.36485">
        <ele>1430</ele>
        <time>2020-07-24T11:44:37.000Z</time>
      </trkpt>
      <trkpt lat="44.82666" lon="5.36476">
        <ele>1429.1</ele>
        <time>2020-07-24T11:44:44.000Z</time>
      </trkpt>
      <trkpt lat="44.8267" lon="5.36465">
        <ele>1428.5</ele>
        <time>2020-07-24T11:44:52.000Z</time>
      </trkpt>
      <trkpt lat="44.82677" lon="5.36454">
        <ele>1427.6</ele>
        <time>2020-07-24T11:45:00.000Z</time>
      </trkpt>
      <trkpt lat="44.82681" lon="5.36442">
        <ele>1427.1</ele>
        <time>2020-07-24T11:45:08.000Z</time>
      </trkpt>
      <trkpt lat="44.82687" lon="5.36431">
        <ele>1426.4</ele>
        <time>2020-07-24T11:45:17.000Z</time>
      </trkpt>
      <trkpt lat="44.82693" lon="5.3642">
        <ele>1425.4</ele>
        <time>2020-07-24T11:45:25.000Z</time>
      </trkpt>
      <trkpt lat="44.82695" lon="5.36406">
        <ele>1424</ele>
        <time>2020-07-24T11:45:35.000Z</time>
      </trkpt>
      <trkpt lat="44.82695" lon="5.36393">
        <ele>1422.6</ele>
        <time>2020-07-24T11:45:44.000Z</time>
      </trkpt>
      <trkpt lat="44.82697" lon="5.36379">
        <ele>1420.4</ele>
        <time>2020-07-24T11:45:57.000Z</time>
      </trkpt>
      <trkpt lat="44.82695" lon="5.36367">
        <ele>1417.8</ele>
        <time>2020-07-24T11:46:11.000Z</time>
      </trkpt>
      <trkpt lat="44.82694" lon="5.36353">
        <ele>1414.4</ele>
        <time>2020-07-24T11:46:31.000Z</time>
      </trkpt>
      <trkpt lat="44.82686" lon="5.36345">
        <ele>1412.6</ele>
        <time>2020-07-24T11:46:42.000Z</time>
      </trkpt>
      <trkpt lat="44.82681" lon="5.36334">
        <ele>1409.1</ele>
        <time>2020-07-24T11:47:01.000Z</time>
      </trkpt>
      <trkpt lat="44.82678" lon="5.36322">
        <ele>1407</ele>
        <time>2020-07-24T11:47:13.000Z</time>
      </trkpt>
      <trkpt lat="44.82677" lon="5.36309">
        <ele>1403.8</ele>
        <time>2020-07-24T11:47:30.000Z</time>
      </trkpt>
      <trkpt lat="44.82675" lon="5.36296">
        <ele>1402</ele>
        <time>2020-07-24T11:47:43.000Z</time>
      </trkpt>
      <trkpt lat="44.82679" lon="5.36284">
        <ele>1399.8</ele>
        <time>2020-07-24T11:47:55.000Z</time>
      </trkpt>
      <trkpt lat="44.82678" lon="5.36272">
        <ele>1396</ele>
        <time>2020-07-24T11:48:11.000Z</time>
      </trkpt>
      <trkpt lat="44.82676" lon="5.36259">
        <ele>1393.7</ele>
        <time>2020-07-24T11:48:22.000Z</time>
      </trkpt>
      <trkpt lat="44.82676" lon="5.36245">
        <ele>1391.1</ele>
        <time>2020-07-24T11:48:34.000Z</time>
      </trkpt>
      <trkpt lat="44.82681" lon="5.36234">
        <ele>1389.5</ele>
        <time>2020-07-24T11:48:44.000Z</time>
      </trkpt>
      <trkpt lat="44.82682" lon="5.3622">
        <ele>1387.8</ele>
        <time>2020-07-24T11:48:54.000Z</time>
      </trkpt>
      <trkpt lat="44.82685" lon="5.36208">
        <ele>1386.5</ele>
        <time>2020-07-24T11:49:03.000Z</time>
      </trkpt>
      <trkpt lat="44.82687" lon="5.36195">
        <ele>1385.7</ele>
        <time>2020-07-24T11:49:11.000Z</time>
      </trkpt>
      <trkpt lat="44.82689" lon="5.36182">
        <ele>1384.4</ele>
        <time>2020-07-24T11:49:21.000Z</time>
      </trkpt>
      <trkpt lat="44.82696" lon="5.36173">
        <ele>1383.6</ele>
        <time>2020-07-24T11:49:30.000Z</time>
      </trkpt>
      <trkpt lat="44.82704" lon="5.36164">
        <ele>1382.6</ele>
        <time>2020-07-24T11:49:39.000Z</time>
      </trkpt>
      <trkpt lat="44.82709" lon="5.36153">
        <ele>1381.5</ele>
        <time>2020-07-24T11:49:48.000Z</time>
      </trkpt>
      <trkpt lat="44.82716" lon="5.36143">
        <ele>1380.6</ele>
        <time>2020-07-24T11:49:56.000Z</time>
      </trkpt>
      <trkpt lat="44.82724" lon="5.36136">
        <ele>1380</ele>
        <time>2020-07-24T11:50:04.000Z</time>
      </trkpt>
      <trkpt lat="44.82731" lon="5.36128">
        <ele>1379</ele>
        <time>2020-07-24T11:50:12.000Z</time>
      </trkpt>
      <trkpt lat="44.82739" lon="5.36119">
        <ele>1378.4</ele>
        <time>2020-07-24T11:50:22.000Z</time>
      </trkpt>
      <trkpt lat="44.82744" lon="5.36106">
        <ele>1378</ele>
        <time>2020-07-24T11:50:31.000Z</time>
      </trkpt>
      <trkpt lat="44.82749" lon="5.36095">
        <ele>1377</ele>
        <time>2020-07-24T11:50:39.000Z</time>
      </trkpt>
      <trkpt lat="44.82757" lon="5.36085">
        <ele>1375.8</ele>
        <time>2020-07-24T11:50:48.000Z</time>
      </trkpt>
      <trkpt lat="44.82762" lon="5.36074">
        <ele>1374.8</ele>
        <time>2020-07-24T11:50:57.000Z</time>
      </trkpt>
      <trkpt lat="44.82771" lon="5.36071">
        <ele>1374</ele>
        <time>2020-07-24T11:51:06.000Z</time>
      </trkpt>
      <trkpt lat="44.8278" lon="5.3607">
        <ele>1372.5</ele>
        <time>2020-07-24T11:51:15.000Z</time>
      </trkpt>
      <trkpt lat="44.82789" lon="5.36065">
        <ele>1371</ele>
        <time>2020-07-24T11:51:24.000Z</time>
      </trkpt>
      <trkpt lat="44.82799" lon="5.36061">
        <ele>1369</ele>
        <time>2020-07-24T11:51:33.000Z</time>
      </trkpt>
      <trkpt lat="44.82808" lon="5.36057">
        <ele>1367.4</ele>
        <time>2020-07-24T11:51:41.000Z</time>
      </trkpt>
      <trkpt lat="44.82817" lon="5.36056">
        <ele>1364.9</ele>
        <time>2020-07-24T11:51:49.000Z</time>
      </trkpt>
      <trkpt lat="44.82825" lon="5.36054">
        <ele>1362.2</ele>
        <time>2020-07-24T11:51:57.000Z</time>
      </trkpt>
      <trkpt lat="44.82834" lon="5.36052">
        <ele>1360.8</ele>
        <time>2020-07-24T11:52:04.000Z</time>
      </trkpt>
      <trkpt lat="44.82845" lon="5.36051">
        <ele>1359.1</ele>
        <time>2020-07-24T11:52:13.000Z</time>
      </trkpt>
      <trkpt lat="44.82854" lon="5.36048">
        <ele>1358.5</ele>
        <time>2020-07-24T11:52:20.000Z</time>
      </trkpt>
      <trkpt lat="44.82863" lon="5.36042">
        <ele>1357.8</ele>
        <time>2020-07-24T11:52:28.000Z</time>
      </trkpt>
      <trkpt lat="44.82871" lon="5.36036">
        <ele>1355.9</ele>
        <time>2020-07-24T11:53:21.000Z</time>
      </trkpt>
      <trkpt lat="44.8288" lon="5.36036">
        <ele>1356.3</ele>
        <time>2020-07-24T11:53:33.000Z</time>
      </trkpt>
      <trkpt lat="44.82889" lon="5.36036">
        <ele>1357.1</ele>
        <time>2020-07-24T11:53:53.000Z</time>
      </trkpt>
      <trkpt lat="44.82898" lon="5.3604">
        <ele>1359.2</ele>
        <time>2020-07-24T12:29:22.000Z</time>
      </trkpt>
      <trkpt lat="44.82896" lon="5.36027">
        <ele>1358.1</ele>
        <time>2020-07-24T12:30:29.000Z</time>
      </trkpt>
      <trkpt lat="44.82901" lon="5.36016">
        <ele>1358</ele>
        <time>2020-07-24T12:30:37.000Z</time>
      </trkpt>
      <trkpt lat="44.82899" lon="5.36003">
        <ele>1357</ele>
        <time>2020-07-24T12:30:48.000Z</time>
      </trkpt>
      <trkpt lat="44.82894" lon="5.35991">
        <ele>1354.2</ele>
        <time>2020-07-24T12:31:01.000Z</time>
      </trkpt>
      <trkpt lat="44.82901" lon="5.3598">
        <ele>1352.6</ele>
        <time>2020-07-24T12:31:08.000Z</time>
      </trkpt>
      <trkpt lat="44.82908" lon="5.35971">
        <ele>1351.3</ele>
        <time>2020-07-24T12:31:16.000Z</time>
      </trkpt>
      <trkpt lat="44.82914" lon="5.35961">
        <ele>1350.5</ele>
        <time>2020-07-24T12:31:23.000Z</time>
      </trkpt>
      <trkpt lat="44.82923" lon="5.35955">
        <ele>1349.7</ele>
        <time>2020-07-24T12:31:30.000Z</time>
      </trkpt>
      <trkpt lat="44.82932" lon="5.35947">
        <ele>1348.1</ele>
        <time>2020-07-24T12:31:38.000Z</time>
      </trkpt>
      <trkpt lat="44.8294" lon="5.35942">
        <ele>1347.3</ele>
        <time>2020-07-24T12:31:45.000Z</time>
      </trkpt>
      <trkpt lat="44.8295" lon="5.35936">
        <ele>1346.5</ele>
        <time>2020-07-24T12:31:53.000Z</time>
      </trkpt>
      <trkpt lat="44.82958" lon="5.35931">
        <ele>1345.7</ele>
        <time>2020-07-24T12:32:00.000Z</time>
      </trkpt>
      <trkpt lat="44.82967" lon="5.35928">
        <ele>1344.2</ele>
        <time>2020-07-24T12:32:13.000Z</time>
      </trkpt>
      <trkpt lat="44.82976" lon="5.35928">
        <ele>1343.5</ele>
        <time>2020-07-24T12:32:19.000Z</time>
      </trkpt>
      <trkpt lat="44.82986" lon="5.35925">
        <ele>1343</ele>
        <time>2020-07-24T12:32:25.000Z</time>
      </trkpt>
      <trkpt lat="44.82992" lon="5.35915">
        <ele>1341.3</ele>
        <time>2020-07-24T12:32:32.000Z</time>
      </trkpt>
      <trkpt lat="44.82989" lon="5.35904">
        <ele>1339.9</ele>
        <time>2020-07-24T12:32:39.000Z</time>
      </trkpt>
      <trkpt lat="44.82986" lon="5.35891">
        <ele>1339.2</ele>
        <time>2020-07-24T12:32:51.000Z</time>
      </trkpt>
      <trkpt lat="44.82976" lon="5.35888">
        <ele>1338.4</ele>
        <time>2020-07-24T12:33:02.000Z</time>
      </trkpt>
      <trkpt lat="44.82968" lon="5.35881">
        <ele>1338.5</ele>
        <time>2020-07-24T12:33:11.000Z</time>
      </trkpt>
      <trkpt lat="44.82959" lon="5.35875">
        <ele>1339.1</ele>
        <time>2020-07-24T12:33:20.000Z</time>
      </trkpt>
      <trkpt lat="44.82963" lon="5.35863">
        <ele>1340.4</ele>
        <time>2020-07-24T12:33:32.000Z</time>
      </trkpt>
      <trkpt lat="44.82972" lon="5.35868">
        <ele>1340.4</ele>
        <time>2020-07-24T12:33:44.000Z</time>
      </trkpt>
      <trkpt lat="44.82981" lon="5.35873">
        <ele>1339.4</ele>
        <time>2020-07-24T12:33:53.000Z</time>
      </trkpt>
      <trkpt lat="44.82988" lon="5.35882">
        <ele>1338.7</ele>
        <time>2020-07-24T12:34:01.000Z</time>
      </trkpt>
      <trkpt lat="44.82993" lon="5.35893">
        <ele>1338.4</ele>
        <time>2020-07-24T12:34:08.000Z</time>
      </trkpt>
      <trkpt lat="44.82999" lon="5.35904">
        <ele>1337.7</ele>
        <time>2020-07-24T12:34:15.000Z</time>
      </trkpt>
      <trkpt lat="44.83007" lon="5.35911">
        <ele>1337.4</ele>
        <time>2020-07-24T12:34:22.000Z</time>
      </trkpt>
      <trkpt lat="44.83015" lon="5.35917">
        <ele>1337</ele>
        <time>2020-07-24T12:34:29.000Z</time>
      </trkpt>
      <trkpt lat="44.83024" lon="5.3592">
        <ele>1336.6</ele>
        <time>2020-07-24T12:34:36.000Z</time>
      </trkpt>
      <trkpt lat="44.83033" lon="5.35925">
        <ele>1336.3</ele>
        <time>2020-07-24T12:34:43.000Z</time>
      </trkpt>
      <trkpt lat="44.83041" lon="5.35932">
        <ele>1335.6</ele>
        <time>2020-07-24T12:34:50.000Z</time>
      </trkpt>
      <trkpt lat="44.83048" lon="5.3594">
        <ele>1335.1</ele>
        <time>2020-07-24T12:34:56.000Z</time>
      </trkpt>
      <trkpt lat="44.83056" lon="5.35947">
        <ele>1334.3</ele>
        <time>2020-07-24T12:35:03.000Z</time>
      </trkpt>
      <trkpt lat="44.83064" lon="5.35955">
        <ele>1333.3</ele>
        <time>2020-07-24T12:35:18.000Z</time>
      </trkpt>
      <trkpt lat="44.83072" lon="5.35962">
        <ele>1333.3</ele>
        <time>2020-07-24T12:35:26.000Z</time>
      </trkpt>
      <trkpt lat="44.83081" lon="5.35968">
        <ele>1332.4</ele>
        <time>2020-07-24T12:35:34.000Z</time>
      </trkpt>
      <trkpt lat="44.83089" lon="5.35977">
        <ele>1332</ele>
        <time>2020-07-24T12:35:42.000Z</time>
      </trkpt>
      <trkpt lat="44.83098" lon="5.35982">
        <ele>1331.5</ele>
        <time>2020-07-24T12:35:50.000Z</time>
      </trkpt>
      <trkpt lat="44.83106" lon="5.3599">
        <ele>1330.9</ele>
        <time>2020-07-24T12:35:57.000Z</time>
      </trkpt>
      <trkpt lat="44.83115" lon="5.35995">
        <ele>1330.4</ele>
        <time>2020-07-24T12:36:03.000Z</time>
      </trkpt>
      <trkpt lat="44.83124" lon="5.36003">
        <ele>1329.8</ele>
        <time>2020-07-24T12:36:11.000Z</time>
      </trkpt>
      <trkpt lat="44.83134" lon="5.36008">
        <ele>1329.5</ele>
        <time>2020-07-24T12:36:17.000Z</time>
      </trkpt>
      <trkpt lat="44.83143" lon="5.36012">
        <ele>1328.3</ele>
        <time>2020-07-24T12:36:25.000Z</time>
      </trkpt>
      <trkpt lat="44.83152" lon="5.36017">
        <ele>1327.4</ele>
        <time>2020-07-24T12:36:34.000Z</time>
      </trkpt>
      <trkpt lat="44.83162" lon="5.36021">
        <ele>1326.8</ele>
        <time>2020-07-24T12:36:40.000Z</time>
      </trkpt>
      <trkpt lat="44.83171" lon="5.36023">
        <ele>1326</ele>
        <time>2020-07-24T12:36:46.000Z</time>
      </trkpt>
      <trkpt lat="44.8318" lon="5.36028">
        <ele>1325.4</ele>
        <time>2020-07-24T12:36:52.000Z</time>
      </trkpt>
      <trkpt lat="44.83189" lon="5.36032">
        <ele>1324.7</ele>
        <time>2020-07-24T12:36:58.000Z</time>
      </trkpt>
      <trkpt lat="44.83198" lon="5.36035">
        <ele>1323.5</ele>
        <time>2020-07-24T12:37:07.000Z</time>
      </trkpt>
      <trkpt lat="44.83207" lon="5.36038">
        <ele>1322.9</ele>
        <time>2020-07-24T12:37:14.000Z</time>
      </trkpt>
      <trkpt lat="44.83217" lon="5.36037">
        <ele>1322.3</ele>
        <time>2020-07-24T12:37:23.000Z</time>
      </trkpt>
      <trkpt lat="44.83228" lon="5.36038">
        <ele>1321.3</ele>
        <time>2020-07-24T12:37:32.000Z</time>
      </trkpt>
      <trkpt lat="44.83237" lon="5.36037">
        <ele>1320.7</ele>
        <time>2020-07-24T12:37:38.000Z</time>
      </trkpt>
      <trkpt lat="44.83246" lon="5.36036">
        <ele>1319.8</ele>
        <time>2020-07-24T12:37:46.000Z</time>
      </trkpt>
      <trkpt lat="44.83256" lon="5.36033">
        <ele>1319.1</ele>
        <time>2020-07-24T12:37:53.000Z</time>
      </trkpt>
      <trkpt lat="44.83265" lon="5.3603">
        <ele>1318.2</ele>
        <time>2020-07-24T12:38:00.000Z</time>
      </trkpt>
      <trkpt lat="44.83273" lon="5.36025">
        <ele>1317.6</ele>
        <time>2020-07-24T12:38:07.000Z</time>
      </trkpt>
      <trkpt lat="44.83282" lon="5.36019">
        <ele>1317</ele>
        <time>2020-07-24T12:38:15.000Z</time>
      </trkpt>
      <trkpt lat="44.83291" lon="5.36013">
        <ele>1316.2</ele>
        <time>2020-07-24T12:38:24.000Z</time>
      </trkpt>
      <trkpt lat="44.83299" lon="5.36006">
        <ele>1315.4</ele>
        <time>2020-07-24T12:38:30.000Z</time>
      </trkpt>
      <trkpt lat="44.83308" lon="5.35998">
        <ele>1314.6</ele>
        <time>2020-07-24T12:38:37.000Z</time>
      </trkpt>
      <trkpt lat="44.83316" lon="5.3599">
        <ele>1314</ele>
        <time>2020-07-24T12:38:43.000Z</time>
      </trkpt>
      <trkpt lat="44.83325" lon="5.35987">
        <ele>1314.1</ele>
        <time>2020-07-24T12:38:51.000Z</time>
      </trkpt>
      <trkpt lat="44.83334" lon="5.35982">
        <ele>1313.2</ele>
        <time>2020-07-24T12:38:58.000Z</time>
      </trkpt>
      <trkpt lat="44.83344" lon="5.3598">
        <ele>1311.9</ele>
        <time>2020-07-24T12:39:07.000Z</time>
      </trkpt>
      <trkpt lat="44.83353" lon="5.35976">
        <ele>1311.1</ele>
        <time>2020-07-24T12:39:14.000Z</time>
      </trkpt>
      <trkpt lat="44.83362" lon="5.35969">
        <ele>1310.5</ele>
        <time>2020-07-24T12:39:23.000Z</time>
      </trkpt>
      <trkpt lat="44.83369" lon="5.35958">
        <ele>1309.3</ele>
        <time>2020-07-24T12:39:29.000Z</time>
      </trkpt>
      <trkpt lat="44.83378" lon="5.35951">
        <ele>1308.9</ele>
        <time>2020-07-24T12:39:36.000Z</time>
      </trkpt>
      <trkpt lat="44.83386" lon="5.35943">
        <ele>1308.3</ele>
        <time>2020-07-24T12:39:43.000Z</time>
      </trkpt>
      <trkpt lat="44.83394" lon="5.35935">
        <ele>1307.5</ele>
        <time>2020-07-24T12:39:51.000Z</time>
      </trkpt>
      <trkpt lat="44.83402" lon="5.35928">
        <ele>1306.8</ele>
        <time>2020-07-24T12:39:58.000Z</time>
      </trkpt>
      <trkpt lat="44.8341" lon="5.35921">
        <ele>1306.1</ele>
        <time>2020-07-24T12:40:04.000Z</time>
      </trkpt>
      <trkpt lat="44.83417" lon="5.35914">
        <ele>1305.6</ele>
        <time>2020-07-24T12:40:12.000Z</time>
      </trkpt>
      <trkpt lat="44.83424" lon="5.35904">
        <ele>1305.3</ele>
        <time>2020-07-24T12:40:19.000Z</time>
      </trkpt>
      <trkpt lat="44.83429" lon="5.3589">
        <ele>1304.8</ele>
        <time>2020-07-24T12:40:25.000Z</time>
      </trkpt>
      <trkpt lat="44.83433" lon="5.35876">
        <ele>1303.9</ele>
        <time>2020-07-24T12:40:31.000Z</time>
      </trkpt>
      <trkpt lat="44.83438" lon="5.35866">
        <ele>1303.1</ele>
        <time>2020-07-24T12:40:38.000Z</time>
      </trkpt>
      <trkpt lat="44.83445" lon="5.35857">
        <ele>1302.6</ele>
        <time>2020-07-24T12:40:45.000Z</time>
      </trkpt>
      <trkpt lat="44.83451" lon="5.35847">
        <ele>1302.1</ele>
        <time>2020-07-24T12:40:52.000Z</time>
      </trkpt>
      <trkpt lat="44.83457" lon="5.35837">
        <ele>1301.6</ele>
        <time>2020-07-24T12:40:59.000Z</time>
      </trkpt>
      <trkpt lat="44.83465" lon="5.3583">
        <ele>1300.9</ele>
        <time>2020-07-24T12:41:06.000Z</time>
      </trkpt>
      <trkpt lat="44.83473" lon="5.35821">
        <ele>1300</ele>
        <time>2020-07-24T12:41:14.000Z</time>
      </trkpt>
      <trkpt lat="44.83481" lon="5.35811">
        <ele>1299.2</ele>
        <time>2020-07-24T12:41:22.000Z</time>
      </trkpt>
      <trkpt lat="44.83489" lon="5.35804">
        <ele>1298.8</ele>
        <time>2020-07-24T12:41:29.000Z</time>
      </trkpt>
      <trkpt lat="44.83496" lon="5.35796">
        <ele>1298</ele>
        <time>2020-07-24T12:41:37.000Z</time>
      </trkpt>
      <trkpt lat="44.83503" lon="5.35787">
        <ele>1297.6</ele>
        <time>2020-07-24T12:41:43.000Z</time>
      </trkpt>
      <trkpt lat="44.83509" lon="5.35777">
        <ele>1297.1</ele>
        <time>2020-07-24T12:41:50.000Z</time>
      </trkpt>
      <trkpt lat="44.83517" lon="5.35769">
        <ele>1296.5</ele>
        <time>2020-07-24T12:41:57.000Z</time>
      </trkpt>
      <trkpt lat="44.83525" lon="5.35759">
        <ele>1295.9</ele>
        <time>2020-07-24T12:42:04.000Z</time>
      </trkpt>
      <trkpt lat="44.83533" lon="5.35752">
        <ele>1295.3</ele>
        <time>2020-07-24T12:42:11.000Z</time>
      </trkpt>
      <trkpt lat="44.83542" lon="5.35745">
        <ele>1294.7</ele>
        <time>2020-07-24T12:42:18.000Z</time>
      </trkpt>
      <trkpt lat="44.83549" lon="5.35738">
        <ele>1294.1</ele>
        <time>2020-07-24T12:42:25.000Z</time>
      </trkpt>
      <trkpt lat="44.83558" lon="5.35732">
        <ele>1293.5</ele>
        <time>2020-07-24T12:42:32.000Z</time>
      </trkpt>
      <trkpt lat="44.83568" lon="5.3573">
        <ele>1292.8</ele>
        <time>2020-07-24T12:42:41.000Z</time>
      </trkpt>
      <trkpt lat="44.83577" lon="5.35727">
        <ele>1292</ele>
        <time>2020-07-24T12:42:49.000Z</time>
      </trkpt>
      <trkpt lat="44.83587" lon="5.35725">
        <ele>1291.3</ele>
        <time>2020-07-24T12:42:59.000Z</time>
      </trkpt>
      <trkpt lat="44.83597" lon="5.35723">
        <ele>1291.2</ele>
        <time>2020-07-24T12:43:08.000Z</time>
      </trkpt>
      <trkpt lat="44.83607" lon="5.35726">
        <ele>1290.9</ele>
        <time>2020-07-24T12:43:15.000Z</time>
      </trkpt>
      <trkpt lat="44.83616" lon="5.35727">
        <ele>1290.5</ele>
        <time>2020-07-24T12:43:22.000Z</time>
      </trkpt>
      <trkpt lat="44.83625" lon="5.3573">
        <ele>1290.3</ele>
        <time>2020-07-24T12:43:27.000Z</time>
      </trkpt>
      <trkpt lat="44.83635" lon="5.35732">
        <ele>1289.9</ele>
        <time>2020-07-24T12:43:34.000Z</time>
      </trkpt>
      <trkpt lat="44.83644" lon="5.35733">
        <ele>1289.5</ele>
        <time>2020-07-24T12:43:41.000Z</time>
      </trkpt>
      <trkpt lat="44.83654" lon="5.35733">
        <ele>1289.7</ele>
        <time>2020-07-24T12:43:44.000Z</time>
      </trkpt>
      <trkpt lat="44.83663" lon="5.35732">
        <ele>1289.5</ele>
        <time>2020-07-24T12:43:47.000Z</time>
      </trkpt>
      <trkpt lat="44.83673" lon="5.35729">
        <ele>1289.7</ele>
        <time>2020-07-24T12:43:52.000Z</time>
      </trkpt>
      <trkpt lat="44.83683" lon="5.35727">
        <ele>1289.6</ele>
        <time>2020-07-24T12:44:01.000Z</time>
      </trkpt>
      <trkpt lat="44.83692" lon="5.35725">
        <ele>1289.9</ele>
        <time>2020-07-24T12:44:10.000Z</time>
      </trkpt>
      <trkpt lat="44.83702" lon="5.35725">
        <ele>1290.4</ele>
        <time>2020-07-24T12:44:19.000Z</time>
      </trkpt>
      <trkpt lat="44.83711" lon="5.35724">
        <ele>1290.8</ele>
        <time>2020-07-24T12:44:26.000Z</time>
      </trkpt>
      <trkpt lat="44.83722" lon="5.35724">
        <ele>1291.1</ele>
        <time>2020-07-24T12:44:34.000Z</time>
      </trkpt>
      <trkpt lat="44.83732" lon="5.35723">
        <ele>1291.6</ele>
        <time>2020-07-24T12:44:43.000Z</time>
      </trkpt>
      <trkpt lat="44.83741" lon="5.35719">
        <ele>1291.8</ele>
        <time>2020-07-24T12:44:50.000Z</time>
      </trkpt>
      <trkpt lat="44.83751" lon="5.35716">
        <ele>1292.3</ele>
        <time>2020-07-24T12:44:58.000Z</time>
      </trkpt>
      <trkpt lat="44.83761" lon="5.35716">
        <ele>1293.8</ele>
        <time>2020-07-24T12:45:06.000Z</time>
      </trkpt>
      <trkpt lat="44.83769" lon="5.3572">
        <ele>1295</ele>
        <time>2020-07-24T12:45:14.000Z</time>
      </trkpt>
      <trkpt lat="44.83779" lon="5.35721">
        <ele>1296.4</ele>
        <time>2020-07-24T12:45:24.000Z</time>
      </trkpt>
      <trkpt lat="44.83789" lon="5.35722">
        <ele>1297.4</ele>
        <time>2020-07-24T12:45:33.000Z</time>
      </trkpt>
      <trkpt lat="44.83798" lon="5.35725">
        <ele>1298.4</ele>
        <time>2020-07-24T12:45:40.000Z</time>
      </trkpt>
      <trkpt lat="44.83807" lon="5.35726">
        <ele>1299.4</ele>
        <time>2020-07-24T12:45:50.000Z</time>
      </trkpt>
      <trkpt lat="44.83816" lon="5.35724">
        <ele>1300.4</ele>
        <time>2020-07-24T12:45:57.000Z</time>
      </trkpt>
      <trkpt lat="44.83825" lon="5.35728">
        <ele>1301.6</ele>
        <time>2020-07-24T12:46:05.000Z</time>
      </trkpt>
      <trkpt lat="44.83835" lon="5.35729">
        <ele>1302.5</ele>
        <time>2020-07-24T12:46:14.000Z</time>
      </trkpt>
      <trkpt lat="44.83844" lon="5.3573">
        <ele>1304.4</ele>
        <time>2020-07-24T12:46:22.000Z</time>
      </trkpt>
      <trkpt lat="44.83854" lon="5.35728">
        <ele>1305.3</ele>
        <time>2020-07-24T12:46:31.000Z</time>
      </trkpt>
      <trkpt lat="44.83863" lon="5.35726">
        <ele>1306.2</ele>
        <time>2020-07-24T12:46:39.000Z</time>
      </trkpt>
      <trkpt lat="44.83873" lon="5.35726">
        <ele>1307.2</ele>
        <time>2020-07-24T12:46:48.000Z</time>
      </trkpt>
      <trkpt lat="44.83882" lon="5.35728">
        <ele>1307.5</ele>
        <time>2020-07-24T12:46:54.000Z</time>
      </trkpt>
      <trkpt lat="44.83892" lon="5.35728">
        <ele>1307.8</ele>
        <time>2020-07-24T12:47:01.000Z</time>
      </trkpt>
      <trkpt lat="44.83902" lon="5.3573">
        <ele>1308.5</ele>
        <time>2020-07-24T12:47:10.000Z</time>
      </trkpt>
      <trkpt lat="44.83911" lon="5.3573">
        <ele>1308.9</ele>
        <time>2020-07-24T12:47:18.000Z</time>
      </trkpt>
      <trkpt lat="44.83922" lon="5.35728">
        <ele>1309.4</ele>
        <time>2020-07-24T12:47:27.000Z</time>
      </trkpt>
      <trkpt lat="44.83931" lon="5.35726">
        <ele>1310.1</ele>
        <time>2020-07-24T12:47:35.000Z</time>
      </trkpt>
      <trkpt lat="44.83941" lon="5.35723">
        <ele>1310.9</ele>
        <time>2020-07-24T12:47:44.000Z</time>
      </trkpt>
      <trkpt lat="44.8395" lon="5.35723">
        <ele>1311.6</ele>
        <time>2020-07-24T12:47:53.000Z</time>
      </trkpt>
      <trkpt lat="44.8396" lon="5.35723">
        <ele>1312</ele>
        <time>2020-07-24T12:47:59.000Z</time>
      </trkpt>
      <trkpt lat="44.83969" lon="5.35728">
        <ele>1312.6</ele>
        <time>2020-07-24T12:48:07.000Z</time>
      </trkpt>
      <trkpt lat="44.83978" lon="5.35728">
        <ele>1312.5</ele>
        <time>2020-07-24T12:48:16.000Z</time>
      </trkpt>
      <trkpt lat="44.83988" lon="5.35727">
        <ele>1312.5</ele>
        <time>2020-07-24T12:48:22.000Z</time>
      </trkpt>
      <trkpt lat="44.83997" lon="5.35727">
        <ele>1312.8</ele>
        <time>2020-07-24T12:48:32.000Z</time>
      </trkpt>
      <trkpt lat="44.84007" lon="5.35729">
        <ele>1313.2</ele>
        <time>2020-07-24T12:48:39.000Z</time>
      </trkpt>
      <trkpt lat="44.84016" lon="5.35732">
        <ele>1313.8</ele>
        <time>2020-07-24T12:48:48.000Z</time>
      </trkpt>
      <trkpt lat="44.84027" lon="5.35736">
        <ele>1314.3</ele>
        <time>2020-07-24T12:48:55.000Z</time>
      </trkpt>
      <trkpt lat="44.84037" lon="5.3574">
        <ele>1314.6</ele>
        <time>2020-07-24T12:49:01.000Z</time>
      </trkpt>
      <trkpt lat="44.84046" lon="5.35746">
        <ele>1315</ele>
        <time>2020-07-24T12:49:09.000Z</time>
      </trkpt>
      <trkpt lat="44.84056" lon="5.35747">
        <ele>1316</ele>
        <time>2020-07-24T12:49:19.000Z</time>
      </trkpt>
      <trkpt lat="44.84065" lon="5.35748">
        <ele>1316.5</ele>
        <time>2020-07-24T12:49:28.000Z</time>
      </trkpt>
      <trkpt lat="44.84075" lon="5.35747">
        <ele>1317</ele>
        <time>2020-07-24T12:49:35.000Z</time>
      </trkpt>
      <trkpt lat="44.84084" lon="5.35747">
        <ele>1317.8</ele>
        <time>2020-07-24T12:49:43.000Z</time>
      </trkpt>
      <trkpt lat="44.84093" lon="5.35743">
        <ele>1318.5</ele>
        <time>2020-07-24T12:49:53.000Z</time>
      </trkpt>
      <trkpt lat="44.84102" lon="5.35738">
        <ele>1319</ele>
        <time>2020-07-24T12:50:01.000Z</time>
      </trkpt>
      <trkpt lat="44.84111" lon="5.35736">
        <ele>1319.6</ele>
        <time>2020-07-24T12:50:09.000Z</time>
      </trkpt>
      <trkpt lat="44.8412" lon="5.35733">
        <ele>1320</ele>
        <time>2020-07-24T12:50:17.000Z</time>
      </trkpt>
      <trkpt lat="44.84129" lon="5.35731">
        <ele>1320.3</ele>
        <time>2020-07-24T12:50:23.000Z</time>
      </trkpt>
      <trkpt lat="44.84139" lon="5.35731">
        <ele>1320.7</ele>
        <time>2020-07-24T12:50:30.000Z</time>
      </trkpt>
      <trkpt lat="44.84148" lon="5.35731">
        <ele>1320.9</ele>
        <time>2020-07-24T12:50:37.000Z</time>
      </trkpt>
      <trkpt lat="44.84158" lon="5.3573">
        <ele>1321.3</ele>
        <time>2020-07-24T12:50:47.000Z</time>
      </trkpt>
      <trkpt lat="44.84167" lon="5.35725">
        <ele>1321.6</ele>
        <time>2020-07-24T12:50:56.000Z</time>
      </trkpt>
      <trkpt lat="44.84176" lon="5.35724">
        <ele>1321.8</ele>
        <time>2020-07-24T12:51:04.000Z</time>
      </trkpt>
      <trkpt lat="44.84186" lon="5.35722">
        <ele>1322</ele>
        <time>2020-07-24T12:51:11.000Z</time>
      </trkpt>
      <trkpt lat="44.84195" lon="5.35721">
        <ele>1322.1</ele>
        <time>2020-07-24T12:51:17.000Z</time>
      </trkpt>
      <trkpt lat="44.84204" lon="5.3572">
        <ele>1322.3</ele>
        <time>2020-07-24T12:51:25.000Z</time>
      </trkpt>
      <trkpt lat="44.84214" lon="5.35718">
        <ele>1322.5</ele>
        <time>2020-07-24T12:51:32.000Z</time>
      </trkpt>
      <trkpt lat="44.84225" lon="5.35716">
        <ele>1322.7</ele>
        <time>2020-07-24T12:51:41.000Z</time>
      </trkpt>
      <trkpt lat="44.84235" lon="5.35716">
        <ele>1322.5</ele>
        <time>2020-07-24T12:51:48.000Z</time>
      </trkpt>
      <trkpt lat="44.84244" lon="5.35718">
        <ele>1322.6</ele>
        <time>2020-07-24T12:51:56.000Z</time>
      </trkpt>
      <trkpt lat="44.84253" lon="5.35718">
        <ele>1322.7</ele>
        <time>2020-07-24T12:52:04.000Z</time>
      </trkpt>
      <trkpt lat="44.84262" lon="5.35717">
        <ele>1322.8</ele>
        <time>2020-07-24T12:52:11.000Z</time>
      </trkpt>
      <trkpt lat="44.84271" lon="5.35718">
        <ele>1322.9</ele>
        <time>2020-07-24T12:52:19.000Z</time>
      </trkpt>
      <trkpt lat="44.8428" lon="5.3572">
        <ele>1323.1</ele>
        <time>2020-07-24T12:52:28.000Z</time>
      </trkpt>
      <trkpt lat="44.8429" lon="5.35721">
        <ele>1323.4</ele>
        <time>2020-07-24T12:52:37.000Z</time>
      </trkpt>
      <trkpt lat="44.84301" lon="5.35722">
        <ele>1323.2</ele>
        <time>2020-07-24T12:52:45.000Z</time>
      </trkpt>
      <trkpt lat="44.8431" lon="5.35726">
        <ele>1323.2</ele>
        <time>2020-07-24T12:52:53.000Z</time>
      </trkpt>
      <trkpt lat="44.84318" lon="5.35733">
        <ele>1323</ele>
        <time>2020-07-24T12:53:00.000Z</time>
      </trkpt>
      <trkpt lat="44.84327" lon="5.35736">
        <ele>1322.6</ele>
        <time>2020-07-24T12:53:08.000Z</time>
      </trkpt>
      <trkpt lat="44.84336" lon="5.35738">
        <ele>1322.3</ele>
        <time>2020-07-24T12:53:16.000Z</time>
      </trkpt>
      <trkpt lat="44.84346" lon="5.35743">
        <ele>1322.1</ele>
        <time>2020-07-24T12:53:25.000Z</time>
      </trkpt>
      <trkpt lat="44.84356" lon="5.35746">
        <ele>1322</ele>
        <time>2020-07-24T12:53:32.000Z</time>
      </trkpt>
      <trkpt lat="44.84366" lon="5.35747">
        <ele>1322</ele>
        <time>2020-07-24T12:53:38.000Z</time>
      </trkpt>
      <trkpt lat="44.84376" lon="5.35751">
        <ele>1321.9</ele>
        <time>2020-07-24T12:53:45.000Z</time>
      </trkpt>
      <trkpt lat="44.84385" lon="5.35755">
        <ele>1321.6</ele>
        <time>2020-07-24T12:53:52.000Z</time>
      </trkpt>
      <trkpt lat="44.84394" lon="5.35753">
        <ele>1321.5</ele>
        <time>2020-07-24T12:54:00.000Z</time>
      </trkpt>
      <trkpt lat="44.84405" lon="5.35753">
        <ele>1321.5</ele>
        <time>2020-07-24T12:54:08.000Z</time>
      </trkpt>
      <trkpt lat="44.84416" lon="5.35751">
        <ele>1321.5</ele>
        <time>2020-07-24T12:54:12.000Z</time>
      </trkpt>
      <trkpt lat="44.84429" lon="5.35753">
        <ele>1321.8</ele>
        <time>2020-07-24T12:54:16.000Z</time>
      </trkpt>
      <trkpt lat="44.8444" lon="5.35756">
        <ele>1321.6</ele>
        <time>2020-07-24T12:54:19.000Z</time>
      </trkpt>
      <trkpt lat="44.84449" lon="5.35761">
        <ele>1321</ele>
        <time>2020-07-24T12:54:24.000Z</time>
      </trkpt>
      <trkpt lat="44.84458" lon="5.35766">
        <ele>1321</ele>
        <time>2020-07-24T12:54:29.000Z</time>
      </trkpt>
      <trkpt lat="44.84469" lon="5.35771">
        <ele>1320.4</ele>
        <time>2020-07-24T12:54:32.000Z</time>
      </trkpt>
      <trkpt lat="44.84478" lon="5.35775">
        <ele>1320.1</ele>
        <time>2020-07-24T12:54:35.000Z</time>
      </trkpt>
      <trkpt lat="44.84488" lon="5.35778">
        <ele>1320.4</ele>
        <time>2020-07-24T12:54:38.000Z</time>
      </trkpt>
      <trkpt lat="44.84498" lon="5.35786">
        <ele>1319.6</ele>
        <time>2020-07-24T12:54:42.000Z</time>
      </trkpt>
      <trkpt lat="44.84509" lon="5.35791">
        <ele>1319.2</ele>
        <time>2020-07-24T12:54:46.000Z</time>
      </trkpt>
      <trkpt lat="44.84519" lon="5.35795">
        <ele>1319.4</ele>
        <time>2020-07-24T12:54:49.000Z</time>
      </trkpt>
      <trkpt lat="44.84529" lon="5.35802">
        <ele>1319.2</ele>
        <time>2020-07-24T12:54:53.000Z</time>
      </trkpt>
      <trkpt lat="44.84537" lon="5.35809">
        <ele>1318.4</ele>
        <time>2020-07-24T12:54:56.000Z</time>
      </trkpt>
      <trkpt lat="44.84545" lon="5.35817">
        <ele>1318.2</ele>
        <time>2020-07-24T12:54:59.000Z</time>
      </trkpt>
      <trkpt lat="44.84554" lon="5.35825">
        <ele>1317.7</ele>
        <time>2020-07-24T12:55:03.000Z</time>
      </trkpt>
      <trkpt lat="44.8456" lon="5.35838">
        <ele>1316.8</ele>
        <time>2020-07-24T12:55:07.000Z</time>
      </trkpt>
      <trkpt lat="44.84568" lon="5.35847">
        <ele>1316.5</ele>
        <time>2020-07-24T12:55:10.000Z</time>
      </trkpt>
      <trkpt lat="44.84574" lon="5.3586">
        <ele>1316.1</ele>
        <time>2020-07-24T12:55:13.000Z</time>
      </trkpt>
      <trkpt lat="44.84581" lon="5.3587">
        <ele>1316</ele>
        <time>2020-07-24T12:55:16.000Z</time>
      </trkpt>
      <trkpt lat="44.8459" lon="5.3588">
        <ele>1316.4</ele>
        <time>2020-07-24T12:55:19.000Z</time>
      </trkpt>
      <trkpt lat="44.84599" lon="5.35889">
        <ele>1316.8</ele>
        <time>2020-07-24T12:55:23.000Z</time>
      </trkpt>
      <trkpt lat="44.84609" lon="5.3589">
        <ele>1316.8</ele>
        <time>2020-07-24T12:55:27.000Z</time>
      </trkpt>
      <trkpt lat="44.84618" lon="5.35892">
        <ele>1317.1</ele>
        <time>2020-07-24T12:55:33.000Z</time>
      </trkpt>
      <trkpt lat="44.84628" lon="5.35892">
        <ele>1318</ele>
        <time>2020-07-24T12:55:40.000Z</time>
      </trkpt>
      <trkpt lat="44.84638" lon="5.35894">
        <ele>1318.4</ele>
        <time>2020-07-24T12:55:48.000Z</time>
      </trkpt>
      <trkpt lat="44.84647" lon="5.35898">
        <ele>1319.5</ele>
        <time>2020-07-24T12:55:57.000Z</time>
      </trkpt>
      <trkpt lat="44.84656" lon="5.359">
        <ele>1320.6</ele>
        <time>2020-07-24T12:56:07.000Z</time>
      </trkpt>
      <trkpt lat="44.84665" lon="5.35901">
        <ele>1320.8</ele>
        <time>2020-07-24T12:56:14.000Z</time>
      </trkpt>
      <trkpt lat="44.84676" lon="5.35903">
        <ele>1321.3</ele>
        <time>2020-07-24T12:56:22.000Z</time>
      </trkpt>
      <trkpt lat="44.84685" lon="5.35902">
        <ele>1321.7</ele>
        <time>2020-07-24T12:56:29.000Z</time>
      </trkpt>
      <trkpt lat="44.84694" lon="5.35905">
        <ele>1322</ele>
        <time>2020-07-24T12:56:36.000Z</time>
      </trkpt>
      <trkpt lat="44.84704" lon="5.35905">
        <ele>1322.2</ele>
        <time>2020-07-24T12:56:44.000Z</time>
      </trkpt>
      <trkpt lat="44.84714" lon="5.35904">
        <ele>1322.1</ele>
        <time>2020-07-24T12:56:52.000Z</time>
      </trkpt>
      <trkpt lat="44.84724" lon="5.35904">
        <ele>1321.7</ele>
        <time>2020-07-24T12:57:01.000Z</time>
      </trkpt>
      <trkpt lat="44.84734" lon="5.35902">
        <ele>1321</ele>
        <time>2020-07-24T12:57:09.000Z</time>
      </trkpt>
      <trkpt lat="44.84743" lon="5.35898">
        <ele>1320.5</ele>
        <time>2020-07-24T12:57:16.000Z</time>
      </trkpt>
      <trkpt lat="44.84751" lon="5.35892">
        <ele>1319.6</ele>
        <time>2020-07-24T12:57:24.000Z</time>
      </trkpt>
      <trkpt lat="44.8476" lon="5.35886">
        <ele>1318.7</ele>
        <time>2020-07-24T12:57:31.000Z</time>
      </trkpt>
      <trkpt lat="44.84763" lon="5.35873">
        <ele>1317.4</ele>
        <time>2020-07-24T12:57:41.000Z</time>
      </trkpt>
      <trkpt lat="44.84768" lon="5.3586">
        <ele>1316.5</ele>
        <time>2020-07-24T12:57:51.000Z</time>
      </trkpt>
      <trkpt lat="44.84773" lon="5.35849">
        <ele>1315.4</ele>
        <time>2020-07-24T12:58:00.000Z</time>
      </trkpt>
      <trkpt lat="44.84779" lon="5.35839">
        <ele>1314.3</ele>
        <time>2020-07-24T12:58:08.000Z</time>
      </trkpt>
      <trkpt lat="44.84785" lon="5.35827">
        <ele>1313.4</ele>
        <time>2020-07-24T12:58:15.000Z</time>
      </trkpt>
      <trkpt lat="44.8479" lon="5.35817">
        <ele>1312.7</ele>
        <time>2020-07-24T12:58:23.000Z</time>
      </trkpt>
      <trkpt lat="44.84794" lon="5.35805">
        <ele>1312.2</ele>
        <time>2020-07-24T12:58:31.000Z</time>
      </trkpt>
      <trkpt lat="44.84799" lon="5.35793">
        <ele>1311.4</ele>
        <time>2020-07-24T12:58:39.000Z</time>
      </trkpt>
      <trkpt lat="44.84807" lon="5.35784">
        <ele>1310.2</ele>
        <time>2020-07-24T12:58:50.000Z</time>
      </trkpt>
      <trkpt lat="44.84812" lon="5.35774">
        <ele>1309.6</ele>
        <time>2020-07-24T12:58:57.000Z</time>
      </trkpt>
      <trkpt lat="44.84815" lon="5.35762">
        <ele>1308.8</ele>
        <time>2020-07-24T12:59:03.000Z</time>
      </trkpt>
      <trkpt lat="44.84821" lon="5.35751">
        <ele>1308.2</ele>
        <time>2020-07-24T12:59:11.000Z</time>
      </trkpt>
      <trkpt lat="44.84826" lon="5.35738">
        <ele>1307.5</ele>
        <time>2020-07-24T12:59:19.000Z</time>
      </trkpt>
      <trkpt lat="44.84835" lon="5.35731">
        <ele>1306.9</ele>
        <time>2020-07-24T12:59:27.000Z</time>
      </trkpt>
      <trkpt lat="44.84841" lon="5.35722">
        <ele>1306.4</ele>
        <time>2020-07-24T12:59:34.000Z</time>
      </trkpt>
      <trkpt lat="44.84841" lon="5.35709">
        <ele>1297.1</ele>
        <time>2020-07-24T13:00:02.000Z</time>
      </trkpt>
      <trkpt lat="44.84849" lon="5.35715">
        <ele>1305.7</ele>
        <time>2020-07-24T13:00:55.000Z</time>
      </trkpt>
      <trkpt lat="44.84859" lon="5.35714">
        <ele>1305.1</ele>
        <time>2020-07-24T13:01:04.000Z</time>
      </trkpt>
      <trkpt lat="44.84868" lon="5.35707">
        <ele>1304.6</ele>
        <time>2020-07-24T13:01:11.000Z</time>
      </trkpt>
      <trkpt lat="44.84877" lon="5.35702">
        <ele>1304.1</ele>
        <time>2020-07-24T13:01:21.000Z</time>
      </trkpt>
      <trkpt lat="44.84884" lon="5.35693">
        <ele>1304.2</ele>
        <time>2020-07-24T13:01:28.000Z</time>
      </trkpt>
      <trkpt lat="44.84893" lon="5.35688">
        <ele>1304.2</ele>
        <time>2020-07-24T13:01:35.000Z</time>
      </trkpt>
      <trkpt lat="44.84903" lon="5.35681">
        <ele>1304.3</ele>
        <time>2020-07-24T13:01:44.000Z</time>
      </trkpt>
      <trkpt lat="44.84912" lon="5.3568">
        <ele>1304.7</ele>
        <time>2020-07-24T13:01:54.000Z</time>
      </trkpt>
      <trkpt lat="44.84921" lon="5.35677">
        <ele>1305.1</ele>
        <time>2020-07-24T13:02:01.000Z</time>
      </trkpt>
      <trkpt lat="44.84931" lon="5.35677">
        <ele>1305.4</ele>
        <time>2020-07-24T13:02:08.000Z</time>
      </trkpt>
      <trkpt lat="44.84941" lon="5.35674">
        <ele>1305.4</ele>
        <time>2020-07-24T13:02:16.000Z</time>
      </trkpt>
      <trkpt lat="44.8495" lon="5.3567">
        <ele>1305.2</ele>
        <time>2020-07-24T13:02:24.000Z</time>
      </trkpt>
      <trkpt lat="44.84959" lon="5.35669">
        <ele>1304.8</ele>
        <time>2020-07-24T13:02:32.000Z</time>
      </trkpt>
      <trkpt lat="44.84969" lon="5.35667">
        <ele>1304.6</ele>
        <time>2020-07-24T13:02:41.000Z</time>
      </trkpt>
      <trkpt lat="44.84978" lon="5.35664">
        <ele>1304</ele>
        <time>2020-07-24T13:02:49.000Z</time>
      </trkpt>
      <trkpt lat="44.84988" lon="5.35666">
        <ele>1303.4</ele>
        <time>2020-07-24T13:02:58.000Z</time>
      </trkpt>
      <trkpt lat="44.84997" lon="5.35665">
        <ele>1303</ele>
        <time>2020-07-24T13:03:05.000Z</time>
      </trkpt>
      <trkpt lat="44.85006" lon="5.35663">
        <ele>1302.4</ele>
        <time>2020-07-24T13:03:12.000Z</time>
      </trkpt>
      <trkpt lat="44.85016" lon="5.35658">
        <ele>1301.7</ele>
        <time>2020-07-24T13:03:20.000Z</time>
      </trkpt>
      <trkpt lat="44.85025" lon="5.35654">
        <ele>1300.9</ele>
        <time>2020-07-24T13:03:29.000Z</time>
      </trkpt>
      <trkpt lat="44.85034" lon="5.35651">
        <ele>1300.4</ele>
        <time>2020-07-24T13:03:36.000Z</time>
      </trkpt>
      <trkpt lat="44.85043" lon="5.35645">
        <ele>1300</ele>
        <time>2020-07-24T13:03:43.000Z</time>
      </trkpt>
      <trkpt lat="44.85053" lon="5.3564">
        <ele>1299.4</ele>
        <time>2020-07-24T13:03:52.000Z</time>
      </trkpt>
      <trkpt lat="44.85061" lon="5.35636">
        <ele>1298.7</ele>
        <time>2020-07-24T13:04:01.000Z</time>
      </trkpt>
      <trkpt lat="44.8507" lon="5.35633">
        <ele>1298.1</ele>
        <time>2020-07-24T13:04:08.000Z</time>
      </trkpt>
      <trkpt lat="44.8508" lon="5.35631">
        <ele>1297.3</ele>
        <time>2020-07-24T13:04:16.000Z</time>
      </trkpt>
      <trkpt lat="44.85089" lon="5.35629">
        <ele>1296.3</ele>
        <time>2020-07-24T13:04:27.000Z</time>
      </trkpt>
      <trkpt lat="44.85098" lon="5.35625">
        <ele>1295.6</ele>
        <time>2020-07-24T13:04:34.000Z</time>
      </trkpt>
      <trkpt lat="44.85108" lon="5.35618">
        <ele>1294.9</ele>
        <time>2020-07-24T13:04:41.000Z</time>
      </trkpt>
      <trkpt lat="44.85117" lon="5.35611">
        <ele>1294.3</ele>
        <time>2020-07-24T13:04:48.000Z</time>
      </trkpt>
      <trkpt lat="44.85126" lon="5.35607">
        <ele>1293.4</ele>
        <time>2020-07-24T13:04:59.000Z</time>
      </trkpt>
      <trkpt lat="44.85136" lon="5.35605">
        <ele>1292.9</ele>
        <time>2020-07-24T13:05:05.000Z</time>
      </trkpt>
      <trkpt lat="44.85146" lon="5.35602">
        <ele>1292.2</ele>
        <time>2020-07-24T13:05:12.000Z</time>
      </trkpt>
      <trkpt lat="44.85153" lon="5.35595">
        <ele>1291.5</ele>
        <time>2020-07-24T13:05:19.000Z</time>
      </trkpt>
      <trkpt lat="44.85162" lon="5.35589">
        <ele>1290.6</ele>
        <time>2020-07-24T13:05:28.000Z</time>
      </trkpt>
      <trkpt lat="44.85173" lon="5.35585">
        <ele>1289.7</ele>
        <time>2020-07-24T13:05:37.000Z</time>
      </trkpt>
      <trkpt lat="44.85183" lon="5.35578">
        <ele>1289.2</ele>
        <time>2020-07-24T13:05:41.000Z</time>
      </trkpt>
      <trkpt lat="44.85191" lon="5.3557">
        <ele>1288.8</ele>
        <time>2020-07-24T13:05:44.000Z</time>
      </trkpt>
      <trkpt lat="44.85198" lon="5.3556">
        <ele>1288.5</ele>
        <time>2020-07-24T13:05:47.000Z</time>
      </trkpt>
      <trkpt lat="44.85205" lon="5.35552">
        <ele>1288.2</ele>
        <time>2020-07-24T13:05:53.000Z</time>
      </trkpt>
      <trkpt lat="44.85213" lon="5.35544">
        <ele>1287.5</ele>
        <time>2020-07-24T13:06:01.000Z</time>
      </trkpt>
      <trkpt lat="44.85221" lon="5.35535">
        <ele>1287</ele>
        <time>2020-07-24T13:06:10.000Z</time>
      </trkpt>
      <trkpt lat="44.8523" lon="5.35528">
        <ele>1286.6</ele>
        <time>2020-07-24T13:06:17.000Z</time>
      </trkpt>
      <trkpt lat="44.85238" lon="5.35523">
        <ele>1286</ele>
        <time>2020-07-24T13:06:27.000Z</time>
      </trkpt>
      <trkpt lat="44.85248" lon="5.35519">
        <ele>1285.5</ele>
        <time>2020-07-24T13:06:35.000Z</time>
      </trkpt>
      <trkpt lat="44.85256" lon="5.35513">
        <ele>1284.5</ele>
        <time>2020-07-24T13:06:43.000Z</time>
      </trkpt>
      <trkpt lat="44.85265" lon="5.35503">
        <ele>1283.8</ele>
        <time>2020-07-24T13:06:50.000Z</time>
      </trkpt>
      <trkpt lat="44.85273" lon="5.35493">
        <ele>1283.2</ele>
        <time>2020-07-24T13:06:57.000Z</time>
      </trkpt>
      <trkpt lat="44.85276" lon="5.35476">
        <ele>1282.6</ele>
        <time>2020-07-24T13:07:04.000Z</time>
      </trkpt>
      <trkpt lat="44.85279" lon="5.35464">
        <ele>1282.3</ele>
        <time>2020-07-24T13:07:09.000Z</time>
      </trkpt>
      <trkpt lat="44.85284" lon="5.35454">
        <ele>1281.3</ele>
        <time>2020-07-24T13:07:19.000Z</time>
      </trkpt>
      <trkpt lat="44.85287" lon="5.3544">
        <ele>1280.4</ele>
        <time>2020-07-24T13:07:27.000Z</time>
      </trkpt>
      <trkpt lat="44.85291" lon="5.35429">
        <ele>1279.6</ele>
        <time>2020-07-24T13:07:35.000Z</time>
      </trkpt>
      <trkpt lat="44.85294" lon="5.35417">
        <ele>1278.3</ele>
        <time>2020-07-24T13:07:44.000Z</time>
      </trkpt>
      <trkpt lat="44.85299" lon="5.35405">
        <ele>1276.7</ele>
        <time>2020-07-24T13:07:53.000Z</time>
      </trkpt>
      <trkpt lat="44.85301" lon="5.35392">
        <ele>1275.3</ele>
        <time>2020-07-24T13:07:59.000Z</time>
      </trkpt>
      <trkpt lat="44.853" lon="5.35379">
        <ele>1274.2</ele>
        <time>2020-07-24T13:08:05.000Z</time>
      </trkpt>
      <trkpt lat="44.85299" lon="5.35366">
        <ele>1273.1</ele>
        <time>2020-07-24T13:08:12.000Z</time>
      </trkpt>
      <trkpt lat="44.85298" lon="5.35353">
        <ele>1271.8</ele>
        <time>2020-07-24T13:08:21.000Z</time>
      </trkpt>
      <trkpt lat="44.853" lon="5.3534">
        <ele>1270.4</ele>
        <time>2020-07-24T13:08:29.000Z</time>
      </trkpt>
      <trkpt lat="44.85306" lon="5.35329">
        <ele>1268.2</ele>
        <time>2020-07-24T13:08:37.000Z</time>
      </trkpt>
      <trkpt lat="44.85314" lon="5.35333">
        <ele>1264.9</ele>
        <time>2020-07-24T13:10:00.000Z</time>
      </trkpt>
      <trkpt lat="44.85323" lon="5.35339">
        <ele>1264.5</ele>
        <time>2020-07-24T13:11:12.000Z</time>
      </trkpt>
      <trkpt lat="44.85332" lon="5.35345">
        <ele>1264.3</ele>
        <time>2020-07-24T13:11:19.000Z</time>
      </trkpt>
      <trkpt lat="44.85341" lon="5.35349">
        <ele>1264.1</ele>
        <time>2020-07-24T13:11:26.000Z</time>
      </trkpt>
      <trkpt lat="44.8535" lon="5.35353">
        <ele>1264.3</ele>
        <time>2020-07-24T13:11:34.000Z</time>
      </trkpt>
      <trkpt lat="44.85359" lon="5.35355">
        <ele>1264.3</ele>
        <time>2020-07-24T13:11:43.000Z</time>
      </trkpt>
      <trkpt lat="44.85368" lon="5.35361">
        <ele>1264.2</ele>
        <time>2020-07-24T13:11:50.000Z</time>
      </trkpt>
      <trkpt lat="44.85378" lon="5.35362">
        <ele>1264</ele>
        <time>2020-07-24T13:11:57.000Z</time>
      </trkpt>
      <trkpt lat="44.85388" lon="5.35364">
        <ele>1263.3</ele>
        <time>2020-07-24T13:12:05.000Z</time>
      </trkpt>
      <trkpt lat="44.85396" lon="5.35374">
        <ele>1263.4</ele>
        <time>2020-07-24T13:12:13.000Z</time>
      </trkpt>
      <trkpt lat="44.85402" lon="5.35385">
        <ele>1262.7</ele>
        <time>2020-07-24T13:12:20.000Z</time>
      </trkpt>
      <trkpt lat="44.85406" lon="5.35397">
        <ele>1261.8</ele>
        <time>2020-07-24T13:12:28.000Z</time>
      </trkpt>
      <trkpt lat="44.85411" lon="5.35409">
        <ele>1261.3</ele>
        <time>2020-07-24T13:12:36.000Z</time>
      </trkpt>
      <trkpt lat="44.85415" lon="5.35421">
        <ele>1260.6</ele>
        <time>2020-07-24T13:12:44.000Z</time>
      </trkpt>
      <trkpt lat="44.8542" lon="5.35433">
        <ele>1260.2</ele>
        <time>2020-07-24T13:12:53.000Z</time>
      </trkpt>
      <trkpt lat="44.85424" lon="5.35444">
        <ele>1260.1</ele>
        <time>2020-07-24T13:13:01.000Z</time>
      </trkpt>
      <trkpt lat="44.85427" lon="5.35457">
        <ele>1260.2</ele>
        <time>2020-07-24T13:13:08.000Z</time>
      </trkpt>
      <trkpt lat="44.85431" lon="5.3547">
        <ele>1260.5</ele>
        <time>2020-07-24T13:13:12.000Z</time>
      </trkpt>
      <trkpt lat="44.85436" lon="5.35483">
        <ele>1260.6</ele>
        <time>2020-07-24T13:13:16.000Z</time>
      </trkpt>
      <trkpt lat="44.85443" lon="5.35495">
        <ele>1260.8</ele>
        <time>2020-07-24T13:13:19.000Z</time>
      </trkpt>
      <trkpt lat="44.85448" lon="5.3551">
        <ele>1261.1</ele>
        <time>2020-07-24T13:13:23.000Z</time>
      </trkpt>
      <trkpt lat="44.85452" lon="5.35525">
        <ele>1261.3</ele>
        <time>2020-07-24T13:13:28.000Z</time>
      </trkpt>
      <trkpt lat="44.85457" lon="5.35535">
        <ele>1261.4</ele>
        <time>2020-07-24T13:13:31.000Z</time>
      </trkpt>
      <trkpt lat="44.85464" lon="5.35548">
        <ele>1261.5</ele>
        <time>2020-07-24T13:13:34.000Z</time>
      </trkpt>
      <trkpt lat="44.85471" lon="5.35558">
        <ele>1261.6</ele>
        <time>2020-07-24T13:13:37.000Z</time>
      </trkpt>
      <trkpt lat="44.85477" lon="5.35566">
        <ele>1261.7</ele>
        <time>2020-07-24T13:13:40.000Z</time>
      </trkpt>
      <trkpt lat="44.85488" lon="5.35571">
        <ele>1261.8</ele>
        <time>2020-07-24T13:13:44.000Z</time>
      </trkpt>
      <trkpt lat="44.85496" lon="5.35577">
        <ele>1262</ele>
        <time>2020-07-24T13:13:47.000Z</time>
      </trkpt>
      <trkpt lat="44.85504" lon="5.35588">
        <ele>1262.4</ele>
        <time>2020-07-24T13:13:52.000Z</time>
      </trkpt>
      <trkpt lat="44.85514" lon="5.35595">
        <ele>1262.6</ele>
        <time>2020-07-24T13:13:56.000Z</time>
      </trkpt>
      <trkpt lat="44.85522" lon="5.35603">
        <ele>1262.7</ele>
        <time>2020-07-24T13:14:00.000Z</time>
      </trkpt>
      <trkpt lat="44.85529" lon="5.35613">
        <ele>1262.7</ele>
        <time>2020-07-24T13:14:08.000Z</time>
      </trkpt>
      <trkpt lat="44.85535" lon="5.35624">
        <ele>1262.7</ele>
        <time>2020-07-24T13:14:19.000Z</time>
      </trkpt>
      <trkpt lat="44.85539" lon="5.35635">
        <ele>1262.5</ele>
        <time>2020-07-24T13:14:25.000Z</time>
      </trkpt>
      <trkpt lat="44.85544" lon="5.35647">
        <ele>1262.4</ele>
        <time>2020-07-24T13:14:29.000Z</time>
      </trkpt>
      <trkpt lat="44.8555" lon="5.35659">
        <ele>1262.4</ele>
        <time>2020-07-24T13:14:32.000Z</time>
      </trkpt>
      <trkpt lat="44.85554" lon="5.35672">
        <ele>1262.5</ele>
        <time>2020-07-24T13:14:36.000Z</time>
      </trkpt>
      <trkpt lat="44.85559" lon="5.35688">
        <ele>1262.3</ele>
        <time>2020-07-24T13:14:42.000Z</time>
      </trkpt>
      <trkpt lat="44.85566" lon="5.357">
        <ele>1262.1</ele>
        <time>2020-07-24T13:14:46.000Z</time>
      </trkpt>
      <trkpt lat="44.85572" lon="5.3571">
        <ele>1262</ele>
        <time>2020-07-24T13:14:52.000Z</time>
      </trkpt>
      <trkpt lat="44.85578" lon="5.35722">
        <ele>1261.6</ele>
        <time>2020-07-24T13:14:58.000Z</time>
      </trkpt>
      <trkpt lat="44.85586" lon="5.35731">
        <ele>1257.7</ele>
        <time>2020-07-24T13:15:06.000Z</time>
      </trkpt>
      <trkpt lat="44.85594" lon="5.35738">
        <ele>1261</ele>
        <time>2020-07-24T13:15:12.000Z</time>
      </trkpt>
      <trkpt lat="44.856" lon="5.35747">
        <ele>1260.3</ele>
        <time>2020-07-24T13:15:19.000Z</time>
      </trkpt>
      <trkpt lat="44.85608" lon="5.35755">
        <ele>1264.5</ele>
        <time>2020-07-24T13:15:26.000Z</time>
      </trkpt>
      <trkpt lat="44.85615" lon="5.35765">
        <ele>1262.1</ele>
        <time>2020-07-24T13:15:52.000Z</time>
      </trkpt>
      <trkpt lat="44.85619" lon="5.35777">
        <ele>1261.9</ele>
        <time>2020-07-24T13:16:04.000Z</time>
      </trkpt>
      <trkpt lat="44.85623" lon="5.35789">
        <ele>1252.9</ele>
        <time>2020-07-24T13:16:14.000Z</time>
      </trkpt>
      <trkpt lat="44.85624" lon="5.35804">
        <ele>1263.7</ele>
        <time>2020-07-24T13:16:20.000Z</time>
      </trkpt>
      <trkpt lat="44.85628" lon="5.35817">
        <ele>1265.1</ele>
        <time>2020-07-24T13:16:26.000Z</time>
      </trkpt>
      <trkpt lat="44.85626" lon="5.35831">
        <ele>1263.1</ele>
        <time>2020-07-24T13:16:36.000Z</time>
      </trkpt>
      <trkpt lat="44.85627" lon="5.35846">
        <ele>1258.3</ele>
        <time>2020-07-24T13:16:47.000Z</time>
      </trkpt>
      <trkpt lat="44.85624" lon="5.35859">
        <ele>1261</ele>
        <time>2020-07-24T13:16:55.000Z</time>
      </trkpt>
      <trkpt lat="44.85618" lon="5.35868">
        <ele>1261.7</ele>
        <time>2020-07-24T13:17:01.000Z</time>
      </trkpt>
      <trkpt lat="44.85616" lon="5.35881">
        <ele>1260</ele>
        <time>2020-07-24T13:17:08.000Z</time>
      </trkpt>
      <trkpt lat="44.85616" lon="5.35894">
        <ele>1264.1</ele>
        <time>2020-07-24T13:17:16.000Z</time>
      </trkpt>
      <trkpt lat="44.85621" lon="5.35905">
        <ele>1264.6</ele>
        <time>2020-07-24T13:17:47.000Z</time>
      </trkpt>
      <trkpt lat="44.85619" lon="5.35919">
        <ele>1270.8</ele>
        <time>2020-07-24T13:18:28.000Z</time>
      </trkpt>
      <trkpt lat="44.85622" lon="5.35931">
        <ele>1265.6</ele>
        <time>2020-07-24T13:18:51.000Z</time>
      </trkpt>
      <trkpt lat="44.85627" lon="5.35942">
        <ele>1262.4</ele>
        <time>2020-07-24T13:19:00.000Z</time>
      </trkpt>
      <trkpt lat="44.85632" lon="5.35954">
        <ele>1251.2</ele>
        <time>2020-07-24T13:19:11.000Z</time>
      </trkpt>
      <trkpt lat="44.85636" lon="5.35966">
        <ele>1259</ele>
        <time>2020-07-24T13:19:19.000Z</time>
      </trkpt>
      <trkpt lat="44.85641" lon="5.35977">
        <ele>1264.1</ele>
        <time>2020-07-24T13:19:28.000Z</time>
      </trkpt>
      <trkpt lat="44.85649" lon="5.35986">
        <ele>1262.8</ele>
        <time>2020-07-24T13:19:39.000Z</time>
      </trkpt>
      <trkpt lat="44.85657" lon="5.35993">
        <ele>1264.5</ele>
        <time>2020-07-24T13:19:54.000Z</time>
      </trkpt>
      <trkpt lat="44.85662" lon="5.36005">
        <ele>1261.1</ele>
        <time>2020-07-24T13:20:04.000Z</time>
      </trkpt>
      <trkpt lat="44.8567" lon="5.36011">
        <ele>1259.1</ele>
        <time>2020-07-24T13:20:14.000Z</time>
      </trkpt>
      <trkpt lat="44.85678" lon="5.36017">
        <ele>1258.4</ele>
        <time>2020-07-24T13:20:22.000Z</time>
      </trkpt>
      <trkpt lat="44.85685" lon="5.36026">
        <ele>1257.6</ele>
        <time>2020-07-24T13:20:31.000Z</time>
      </trkpt>
      <trkpt lat="44.85696" lon="5.36033">
        <ele>1254.6</ele>
        <time>2020-07-24T13:20:40.000Z</time>
      </trkpt>
      <trkpt lat="44.85704" lon="5.3604">
        <ele>1255.9</ele>
        <time>2020-07-24T13:20:51.000Z</time>
      </trkpt>
      <trkpt lat="44.85708" lon="5.36052">
        <ele>1254.5</ele>
        <time>2020-07-24T13:21:38.000Z</time>
      </trkpt>
      <trkpt lat="44.85708" lon="5.36066">
        <ele>1254.1</ele>
        <time>2020-07-24T13:21:47.000Z</time>
      </trkpt>
      <trkpt lat="44.85707" lon="5.36079">
        <ele>1253.9</ele>
        <time>2020-07-24T13:21:57.000Z</time>
      </trkpt>
      <trkpt lat="44.85711" lon="5.36092">
        <ele>1253.4</ele>
        <time>2020-07-24T13:22:04.000Z</time>
      </trkpt>
      <trkpt lat="44.85713" lon="5.36105">
        <ele>1253</ele>
        <time>2020-07-24T13:22:10.000Z</time>
      </trkpt>
      <trkpt lat="44.85712" lon="5.3612">
        <ele>1252.5</ele>
        <time>2020-07-24T13:22:18.000Z</time>
      </trkpt>
      <trkpt lat="44.85713" lon="5.36134">
        <ele>1251.6</ele>
        <time>2020-07-24T13:22:26.000Z</time>
      </trkpt>
      <trkpt lat="44.85711" lon="5.36147">
        <ele>1250.9</ele>
        <time>2020-07-24T13:22:32.000Z</time>
      </trkpt>
      <trkpt lat="44.85711" lon="5.36161">
        <ele>1250.4</ele>
        <time>2020-07-24T13:22:39.000Z</time>
      </trkpt>
      <trkpt lat="44.85715" lon="5.36173">
        <ele>1249.9</ele>
        <time>2020-07-24T13:22:48.000Z</time>
      </trkpt>
      <trkpt lat="44.8572" lon="5.36184">
        <ele>1249.2</ele>
        <time>2020-07-24T13:22:55.000Z</time>
      </trkpt>
      <trkpt lat="44.85722" lon="5.36199">
        <ele>1248.6</ele>
        <time>2020-07-24T13:23:02.000Z</time>
      </trkpt>
      <trkpt lat="44.85725" lon="5.36212">
        <ele>1248.2</ele>
        <time>2020-07-24T13:23:07.000Z</time>
      </trkpt>
      <trkpt lat="44.85727" lon="5.36226">
        <ele>1246.3</ele>
        <time>2020-07-24T13:23:12.000Z</time>
      </trkpt>
      <trkpt lat="44.85726" lon="5.3624">
        <ele>1247.5</ele>
        <time>2020-07-24T13:23:18.000Z</time>
      </trkpt>
      <trkpt lat="44.85727" lon="5.36254">
        <ele>1247.6</ele>
        <time>2020-07-24T13:23:25.000Z</time>
      </trkpt>
      <trkpt lat="44.85728" lon="5.36266">
        <ele>1246.9</ele>
        <time>2020-07-24T13:23:35.000Z</time>
      </trkpt>
      <trkpt lat="44.85726" lon="5.3628">
        <ele>1245.1</ele>
        <time>2020-07-24T13:23:42.000Z</time>
      </trkpt>
      <trkpt lat="44.85725" lon="5.36294">
        <ele>1247</ele>
        <time>2020-07-24T13:23:50.000Z</time>
      </trkpt>
      <trkpt lat="44.85725" lon="5.36308">
        <ele>1247</ele>
        <time>2020-07-24T13:23:58.000Z</time>
      </trkpt>
      <trkpt lat="44.85726" lon="5.36322">
        <ele>1244.4</ele>
        <time>2020-07-24T13:24:23.000Z</time>
      </trkpt>
      <trkpt lat="44.85729" lon="5.36335">
        <ele>1243</ele>
        <time>2020-07-24T13:24:30.000Z</time>
      </trkpt>
      <trkpt lat="44.85734" lon="5.36346">
        <ele>1242.1</ele>
        <time>2020-07-24T13:24:37.000Z</time>
      </trkpt>
      <trkpt lat="44.85739" lon="5.36358">
        <ele>1242.1</ele>
        <time>2020-07-24T13:24:44.000Z</time>
      </trkpt>
      <trkpt lat="44.85747" lon="5.36366">
        <ele>1242.1</ele>
        <time>2020-07-24T13:24:51.000Z</time>
      </trkpt>
      <trkpt lat="44.85755" lon="5.36371">
        <ele>1241.7</ele>
        <time>2020-07-24T13:24:58.000Z</time>
      </trkpt>
      <trkpt lat="44.85765" lon="5.36372">
        <ele>1241.7</ele>
        <time>2020-07-24T13:25:05.000Z</time>
      </trkpt>
      <trkpt lat="44.85774" lon="5.3637">
        <ele>1241.5</ele>
        <time>2020-07-24T13:25:12.000Z</time>
      </trkpt>
      <trkpt lat="44.85784" lon="5.3637">
        <ele>1240.2</ele>
        <time>2020-07-24T13:25:20.000Z</time>
      </trkpt>
      <trkpt lat="44.85794" lon="5.36366">
        <ele>1239.2</ele>
        <time>2020-07-24T13:25:27.000Z</time>
      </trkpt>
      <trkpt lat="44.85804" lon="5.36364">
        <ele>1231.8</ele>
        <time>2020-07-24T13:25:34.000Z</time>
      </trkpt>
      <trkpt lat="44.85814" lon="5.36365">
        <ele>1242.6</ele>
        <time>2020-07-24T13:25:41.000Z</time>
      </trkpt>
      <trkpt lat="44.85824" lon="5.36367">
        <ele>1244.2</ele>
        <time>2020-07-24T13:25:48.000Z</time>
      </trkpt>
      <trkpt lat="44.85833" lon="5.3637">
        <ele>1242.6</ele>
        <time>2020-07-24T13:25:55.000Z</time>
      </trkpt>
      <trkpt lat="44.85842" lon="5.36373">
        <ele>1241.2</ele>
        <time>2020-07-24T13:26:04.000Z</time>
      </trkpt>
      <trkpt lat="44.85852" lon="5.36372">
        <ele>1240.3</ele>
        <time>2020-07-24T13:26:12.000Z</time>
      </trkpt>
      <trkpt lat="44.85861" lon="5.36377">
        <ele>1239.7</ele>
        <time>2020-07-24T13:26:19.000Z</time>
      </trkpt>
      <trkpt lat="44.8587" lon="5.36381">
        <ele>1243</ele>
        <time>2020-07-24T13:26:50.000Z</time>
      </trkpt>
      <trkpt lat="44.85878" lon="5.36376">
        <ele>1240.3</ele>
        <time>2020-07-24T13:27:51.000Z</time>
      </trkpt>
      <trkpt lat="44.85884" lon="5.36366">
        <ele>1238.5</ele>
        <time>2020-07-24T13:27:58.000Z</time>
      </trkpt>
      <trkpt lat="44.85889" lon="5.36354">
        <ele>1237.2</ele>
        <time>2020-07-24T13:28:06.000Z</time>
      </trkpt>
      <trkpt lat="44.85893" lon="5.36342">
        <ele>1236</ele>
        <time>2020-07-24T13:28:14.000Z</time>
      </trkpt>
      <trkpt lat="44.85896" lon="5.36329">
        <ele>1235.5</ele>
        <time>2020-07-24T13:28:22.000Z</time>
      </trkpt>
      <trkpt lat="44.85895" lon="5.36315">
        <ele>1234.2</ele>
        <time>2020-07-24T13:28:30.000Z</time>
      </trkpt>
      <trkpt lat="44.85899" lon="5.36303">
        <ele>1233.8</ele>
        <time>2020-07-24T13:28:39.000Z</time>
      </trkpt>
      <trkpt lat="44.85907" lon="5.363">
        <ele>1234.4</ele>
        <time>2020-07-24T13:28:45.000Z</time>
      </trkpt>
      <trkpt lat="44.85917" lon="5.36298">
        <ele>1234.1</ele>
        <time>2020-07-24T13:28:51.000Z</time>
      </trkpt>
      <trkpt lat="44.85926" lon="5.36301">
        <ele>1234</ele>
        <time>2020-07-24T13:28:59.000Z</time>
      </trkpt>
      <trkpt lat="44.85934" lon="5.36309">
        <ele>1233.3</ele>
        <time>2020-07-24T13:29:07.000Z</time>
      </trkpt>
      <trkpt lat="44.85942" lon="5.36318">
        <ele>1231.9</ele>
        <time>2020-07-24T13:29:17.000Z</time>
      </trkpt>
      <trkpt lat="44.85948" lon="5.36329">
        <ele>1231.8</ele>
        <time>2020-07-24T13:29:24.000Z</time>
      </trkpt>
      <trkpt lat="44.85956" lon="5.36335">
        <ele>1230.9</ele>
        <time>2020-07-24T13:29:32.000Z</time>
      </trkpt>
      <trkpt lat="44.85966" lon="5.36337">
        <ele>1229.3</ele>
        <time>2020-07-24T13:29:41.000Z</time>
      </trkpt>
      <trkpt lat="44.85976" lon="5.36339">
        <ele>1228.7</ele>
        <time>2020-07-24T13:29:49.000Z</time>
      </trkpt>
      <trkpt lat="44.85986" lon="5.36342">
        <ele>1228</ele>
        <time>2020-07-24T13:29:56.000Z</time>
      </trkpt>
      <trkpt lat="44.85995" lon="5.36346">
        <ele>1226.9</ele>
        <time>2020-07-24T13:30:03.000Z</time>
      </trkpt>
      <trkpt lat="44.86004" lon="5.36348">
        <ele>1226.1</ele>
        <time>2020-07-24T13:30:10.000Z</time>
      </trkpt>
      <trkpt lat="44.86013" lon="5.3635">
        <ele>1225.4</ele>
        <time>2020-07-24T13:30:17.000Z</time>
      </trkpt>
      <trkpt lat="44.86023" lon="5.36349">
        <ele>1223.9</ele>
        <time>2020-07-24T13:30:24.000Z</time>
      </trkpt>
      <trkpt lat="44.86032" lon="5.36346">
        <ele>1220.6</ele>
        <time>2020-07-24T13:30:31.000Z</time>
      </trkpt>
      <trkpt lat="44.86041" lon="5.36344">
        <ele>1221.5</ele>
        <time>2020-07-24T13:30:38.000Z</time>
      </trkpt>
      <trkpt lat="44.86051" lon="5.36345">
        <ele>1221.7</ele>
        <time>2020-07-24T13:30:45.000Z</time>
      </trkpt>
      <trkpt lat="44.86059" lon="5.3635">
        <ele>1221.5</ele>
        <time>2020-07-24T13:30:52.000Z</time>
      </trkpt>
      <trkpt lat="44.86068" lon="5.36358">
        <ele>1214.6</ele>
        <time>2020-07-24T13:31:00.000Z</time>
      </trkpt>
      <trkpt lat="44.86076" lon="5.36366">
        <ele>1219.6</ele>
        <time>2020-07-24T13:31:08.000Z</time>
      </trkpt>
      <trkpt lat="44.86081" lon="5.36377">
        <ele>1217.4</ele>
        <time>2020-07-24T13:31:17.000Z</time>
      </trkpt>
      <trkpt lat="44.86088" lon="5.36386">
        <ele>1215.4</ele>
        <time>2020-07-24T13:31:25.000Z</time>
      </trkpt>
      <trkpt lat="44.86097" lon="5.3639">
        <ele>1213.9</ele>
        <time>2020-07-24T13:31:32.000Z</time>
      </trkpt>
      <trkpt lat="44.86106" lon="5.36392">
        <ele>1212.6</ele>
        <time>2020-07-24T13:31:38.000Z</time>
      </trkpt>
      <trkpt lat="44.86115" lon="5.36392">
        <ele>1211.5</ele>
        <time>2020-07-24T13:31:45.000Z</time>
      </trkpt>
      <trkpt lat="44.86125" lon="5.36388">
        <ele>1211.1</ele>
        <time>2020-07-24T13:31:53.000Z</time>
      </trkpt>
      <trkpt lat="44.86133" lon="5.36381">
        <ele>1210.4</ele>
        <time>2020-07-24T13:32:01.000Z</time>
      </trkpt>
      <trkpt lat="44.86143" lon="5.36377">
        <ele>1209.3</ele>
        <time>2020-07-24T13:32:08.000Z</time>
      </trkpt>
      <trkpt lat="44.86151" lon="5.3637">
        <ele>1208</ele>
        <time>2020-07-24T13:32:15.000Z</time>
      </trkpt>
      <trkpt lat="44.86158" lon="5.36361">
        <ele>1207.9</ele>
        <time>2020-07-24T13:32:23.000Z</time>
      </trkpt>
      <trkpt lat="44.86165" lon="5.36352">
        <ele>1208.8</ele>
        <time>2020-07-24T13:34:40.000Z</time>
      </trkpt>
      <trkpt lat="44.86173" lon="5.36361">
        <ele>1207.8</ele>
        <time>2020-07-24T13:34:48.000Z</time>
      </trkpt>
      <trkpt lat="44.86175" lon="5.36374">
        <ele>1205.6</ele>
        <time>2020-07-24T13:34:57.000Z</time>
      </trkpt>
      <trkpt lat="44.86172" lon="5.36387">
        <ele>1204</ele>
        <time>2020-07-24T13:35:05.000Z</time>
      </trkpt>
      <trkpt lat="44.86168" lon="5.36399">
        <ele>1205.5</ele>
        <time>2020-07-24T13:36:42.000Z</time>
      </trkpt>
      <trkpt lat="44.86164" lon="5.36411">
        <ele>1204.7</ele>
        <time>2020-07-24T13:36:52.000Z</time>
      </trkpt>
      <trkpt lat="44.8616" lon="5.36424">
        <ele>1204.1</ele>
        <time>2020-07-24T13:37:00.000Z</time>
      </trkpt>
      <trkpt lat="44.86158" lon="5.36437">
        <ele>1203.6</ele>
        <time>2020-07-24T13:37:10.000Z</time>
      </trkpt>
      <trkpt lat="44.86155" lon="5.36451">
        <ele>1203.6</ele>
        <time>2020-07-24T13:37:17.000Z</time>
      </trkpt>
      <trkpt lat="44.86154" lon="5.36463">
        <ele>1203.5</ele>
        <time>2020-07-24T13:37:23.000Z</time>
      </trkpt>
      <trkpt lat="44.86153" lon="5.36477">
        <ele>1203.5</ele>
        <time>2020-07-24T13:37:31.000Z</time>
      </trkpt>
      <trkpt lat="44.8615" lon="5.3649">
        <ele>1203.3</ele>
        <time>2020-07-24T13:37:38.000Z</time>
      </trkpt>
      <trkpt lat="44.86149" lon="5.36504">
        <ele>1203.2</ele>
        <time>2020-07-24T13:37:46.000Z</time>
      </trkpt>
      <trkpt lat="44.86149" lon="5.36518">
        <ele>1203.3</ele>
        <time>2020-07-24T13:37:54.000Z</time>
      </trkpt>
      <trkpt lat="44.86148" lon="5.36531">
        <ele>1203.3</ele>
        <time>2020-07-24T13:38:03.000Z</time>
      </trkpt>
      <trkpt lat="44.86147" lon="5.36543">
        <ele>1203.1</ele>
        <time>2020-07-24T13:38:59.000Z</time>
      </trkpt>
      <trkpt lat="44.86147" lon="5.36557">
        <ele>1202.5</ele>
        <time>2020-07-24T13:39:12.000Z</time>
      </trkpt>
      <trkpt lat="44.86147" lon="5.36544">
        <ele>1197.7</ele>
        <time>2020-07-24T13:40:22.000Z</time>
      </trkpt>
      <trkpt lat="44.86146" lon="5.36558">
        <ele>1205</ele>
        <time>2020-07-24T13:40:50.000Z</time>
      </trkpt>
      <trkpt lat="44.86153" lon="5.36567">
        <ele>1203.3</ele>
        <time>2020-07-24T13:41:15.000Z</time>
      </trkpt>
      <trkpt lat="44.8616" lon="5.36576">
        <ele>1202</ele>
        <time>2020-07-24T13:41:35.000Z</time>
      </trkpt>
      <trkpt lat="44.86157" lon="5.36588">
        <ele>1201.1</ele>
        <time>2020-07-24T13:42:07.000Z</time>
      </trkpt>
      <trkpt lat="44.86152" lon="5.366">
        <ele>1200.9</ele>
        <time>2020-07-24T13:42:36.000Z</time>
      </trkpt>
      <trkpt lat="44.86147" lon="5.36611">
        <ele>1201.5</ele>
        <time>2020-07-24T13:43:35.000Z</time>
      </trkpt>
      <trkpt lat="44.86147" lon="5.36624">
        <ele>1202.5</ele>
        <time>2020-07-24T13:43:46.000Z</time>
      </trkpt>
      <trkpt lat="44.86152" lon="5.36636">
        <ele>1196.5</ele>
        <time>2020-07-24T13:44:30.000Z</time>
      </trkpt>
      <trkpt lat="44.86157" lon="5.36646">
        <ele>1196.6</ele>
        <time>2020-07-24T13:44:41.000Z</time>
      </trkpt>
      <trkpt lat="44.86163" lon="5.36656">
        <ele>1194.6</ele>
        <time>2020-07-24T13:44:53.000Z</time>
      </trkpt>
      <trkpt lat="44.8617" lon="5.36666">
        <ele>1193.3</ele>
        <time>2020-07-24T13:45:06.000Z</time>
      </trkpt>
      <trkpt lat="44.86178" lon="5.36674">
        <ele>1193.5</ele>
        <time>2020-07-24T13:45:25.000Z</time>
      </trkpt>
      <trkpt lat="44.86185" lon="5.36681">
        <ele>1192.2</ele>
        <time>2020-07-24T13:45:35.000Z</time>
      </trkpt>
      <trkpt lat="44.86191" lon="5.36691">
        <ele>1192</ele>
        <time>2020-07-24T13:45:44.000Z</time>
      </trkpt>
      <trkpt lat="44.86199" lon="5.36701">
        <ele>1190.2</ele>
        <time>2020-07-24T13:45:54.000Z</time>
      </trkpt>
      <trkpt lat="44.86205" lon="5.3671">
        <ele>1188.4</ele>
        <time>2020-07-24T13:46:04.000Z</time>
      </trkpt>
      <trkpt lat="44.86213" lon="5.36717">
        <ele>1187.1</ele>
        <time>2020-07-24T13:46:16.000Z</time>
      </trkpt>
      <trkpt lat="44.86222" lon="5.36722">
        <ele>1186.1</ele>
        <time>2020-07-24T13:46:24.000Z</time>
      </trkpt>
      <trkpt lat="44.86231" lon="5.36727">
        <ele>1185.3</ele>
        <time>2020-07-24T13:46:32.000Z</time>
      </trkpt>
      <trkpt lat="44.86238" lon="5.36736">
        <ele>1184.4</ele>
        <time>2020-07-24T13:46:40.000Z</time>
      </trkpt>
      <trkpt lat="44.86239" lon="5.36749">
        <ele>1183.6</ele>
        <time>2020-07-24T13:46:48.000Z</time>
      </trkpt>
      <trkpt lat="44.86243" lon="5.36761">
        <ele>1182.4</ele>
        <time>2020-07-24T13:47:03.000Z</time>
      </trkpt>
      <trkpt lat="44.86252" lon="5.36764">
        <ele>1181.1</ele>
        <time>2020-07-24T13:47:15.000Z</time>
      </trkpt>
      <trkpt lat="44.86261" lon="5.36769">
        <ele>1179.5</ele>
        <time>2020-07-24T13:47:26.000Z</time>
      </trkpt>
      <trkpt lat="44.86271" lon="5.36773">
        <ele>1178.3</ele>
        <time>2020-07-24T13:47:39.000Z</time>
      </trkpt>
      <trkpt lat="44.86279" lon="5.3678">
        <ele>1177.5</ele>
        <time>2020-07-24T13:47:47.000Z</time>
      </trkpt>
      <trkpt lat="44.86288" lon="5.36784">
        <ele>1176.2</ele>
        <time>2020-07-24T13:47:56.000Z</time>
      </trkpt>
      <trkpt lat="44.86298" lon="5.36784">
        <ele>1172.3</ele>
        <time>2020-07-24T13:48:20.000Z</time>
      </trkpt>
      <trkpt lat="44.86294" lon="5.36772">
        <ele>1164</ele>
        <time>2020-07-24T13:49:25.000Z</time>
      </trkpt>
      <trkpt lat="44.86296" lon="5.36785">
        <ele>1167.4</ele>
        <time>2020-07-24T13:50:41.000Z</time>
      </trkpt>
      <trkpt lat="44.86303" lon="5.36794">
        <ele>1176.5</ele>
        <time>2020-07-24T13:50:50.000Z</time>
      </trkpt>
      <trkpt lat="44.86312" lon="5.36797">
        <ele>1173.8</ele>
        <time>2020-07-24T13:51:05.000Z</time>
      </trkpt>
      <trkpt lat="44.86322" lon="5.36799">
        <ele>1171</ele>
        <time>2020-07-24T13:51:14.000Z</time>
      </trkpt>
      <trkpt lat="44.8633" lon="5.36806">
        <ele>1170.4</ele>
        <time>2020-07-24T13:51:28.000Z</time>
      </trkpt>
      <trkpt lat="44.86332" lon="5.3682">
        <ele>1168.5</ele>
        <time>2020-07-24T13:52:00.000Z</time>
      </trkpt>
      <trkpt lat="44.86331" lon="5.36833">
        <ele>1169.5</ele>
        <time>2020-07-24T13:52:15.000Z</time>
      </trkpt>
      <trkpt lat="44.86338" lon="5.36841">
        <ele>1168.4</ele>
        <time>2020-07-24T13:52:57.000Z</time>
      </trkpt>
      <trkpt lat="44.86334" lon="5.36852">
        <ele>1169.7</ele>
        <time>2020-07-24T13:53:48.000Z</time>
      </trkpt>
      <trkpt lat="44.8633" lon="5.36863">
        <ele>1169.5</ele>
        <time>2020-07-24T13:53:58.000Z</time>
      </trkpt>
      <trkpt lat="44.86333" lon="5.3685">
        <ele>1169.3</ele>
        <time>2020-07-24T13:54:23.000Z</time>
      </trkpt>
      <trkpt lat="44.86332" lon="5.36864">
        <ele>1169.1</ele>
        <time>2020-07-24T13:55:03.000Z</time>
      </trkpt>
      <trkpt lat="44.86329" lon="5.36876">
        <ele>1169.5</ele>
        <time>2020-07-24T13:55:15.000Z</time>
      </trkpt>
      <trkpt lat="44.86326" lon="5.36889">
        <ele>1170.3</ele>
        <time>2020-07-24T13:55:23.000Z</time>
      </trkpt>
      <trkpt lat="44.86326" lon="5.36901">
        <ele>1173.9</ele>
        <time>2020-07-24T13:55:35.000Z</time>
      </trkpt>
      <trkpt lat="44.86326" lon="5.36914">
        <ele>1173</ele>
        <time>2020-07-24T13:55:54.000Z</time>
      </trkpt>
      <trkpt lat="44.86325" lon="5.36929">
        <ele>1172.5</ele>
        <time>2020-07-24T13:56:02.000Z</time>
      </trkpt>
      <trkpt lat="44.86326" lon="5.36943">
        <ele>1171.6</ele>
        <time>2020-07-24T13:56:10.000Z</time>
      </trkpt>
      <trkpt lat="44.86324" lon="5.36957">
        <ele>1169.6</ele>
        <time>2020-07-24T13:56:19.000Z</time>
      </trkpt>
      <trkpt lat="44.86324" lon="5.3697">
        <ele>1168.2</ele>
        <time>2020-07-24T13:56:29.000Z</time>
      </trkpt>
      <trkpt lat="44.86324" lon="5.36984">
        <ele>1168.2</ele>
        <time>2020-07-24T13:56:37.000Z</time>
      </trkpt>
      <trkpt lat="44.86323" lon="5.36997">
        <ele>1168.6</ele>
        <time>2020-07-24T13:56:45.000Z</time>
      </trkpt>
      <trkpt lat="44.86326" lon="5.3701">
        <ele>1169.3</ele>
        <time>2020-07-24T13:56:54.000Z</time>
      </trkpt>
      <trkpt lat="44.86331" lon="5.37021">
        <ele>1175.5</ele>
        <time>2020-07-24T13:59:26.000Z</time>
      </trkpt>
      <trkpt lat="44.8633" lon="5.37034">
        <ele>1175.6</ele>
        <time>2020-07-24T13:59:33.000Z</time>
      </trkpt>
      <trkpt lat="44.86329" lon="5.37048">
        <ele>1175.6</ele>
        <time>2020-07-24T13:59:40.000Z</time>
      </trkpt>
      <trkpt lat="44.86329" lon="5.37062">
        <ele>1175.6</ele>
        <time>2020-07-24T13:59:47.000Z</time>
      </trkpt>
      <trkpt lat="44.86329" lon="5.37075">
        <ele>1175.8</ele>
        <time>2020-07-24T13:59:54.000Z</time>
      </trkpt>
      <trkpt lat="44.86329" lon="5.37088">
        <ele>1176</ele>
        <time>2020-07-24T14:00:01.000Z</time>
      </trkpt>
      <trkpt lat="44.86328" lon="5.37101">
        <ele>1176</ele>
        <time>2020-07-24T14:00:08.000Z</time>
      </trkpt>
      <trkpt lat="44.86325" lon="5.37116">
        <ele>1176</ele>
        <time>2020-07-24T14:00:16.000Z</time>
      </trkpt>
      <trkpt lat="44.86324" lon="5.37128">
        <ele>1176</ele>
        <time>2020-07-24T14:00:23.000Z</time>
      </trkpt>
      <trkpt lat="44.86323" lon="5.37143">
        <ele>1176.5</ele>
        <time>2020-07-24T14:00:31.000Z</time>
      </trkpt>
      <trkpt lat="44.86323" lon="5.37157">
        <ele>1176.8</ele>
        <time>2020-07-24T14:00:39.000Z</time>
      </trkpt>
      <trkpt lat="44.86322" lon="5.3717">
        <ele>1176.7</ele>
        <time>2020-07-24T14:00:46.000Z</time>
      </trkpt>
      <trkpt lat="44.86321" lon="5.37182">
        <ele>1176.7</ele>
        <time>2020-07-24T14:00:53.000Z</time>
      </trkpt>
      <trkpt lat="44.8632" lon="5.37196">
        <ele>1176.6</ele>
        <time>2020-07-24T14:01:01.000Z</time>
      </trkpt>
      <trkpt lat="44.8632" lon="5.37209">
        <ele>1176.6</ele>
        <time>2020-07-24T14:01:09.000Z</time>
      </trkpt>
      <trkpt lat="44.86319" lon="5.37223">
        <ele>1176.7</ele>
        <time>2020-07-24T14:01:17.000Z</time>
      </trkpt>
      <trkpt lat="44.86322" lon="5.37236">
        <ele>1176.8</ele>
        <time>2020-07-24T14:01:25.000Z</time>
      </trkpt>
      <trkpt lat="44.86329" lon="5.37245">
        <ele>1176.9</ele>
        <time>2020-07-24T14:01:32.000Z</time>
      </trkpt>
      <trkpt lat="44.86335" lon="5.37255">
        <ele>1176.6</ele>
        <time>2020-07-24T14:01:39.000Z</time>
      </trkpt>
      <trkpt lat="44.86342" lon="5.37265">
        <ele>1176.3</ele>
        <time>2020-07-24T14:01:46.000Z</time>
      </trkpt>
      <trkpt lat="44.86349" lon="5.37274">
        <ele>1176</ele>
        <time>2020-07-24T14:01:53.000Z</time>
      </trkpt>
      <trkpt lat="44.86356" lon="5.37283">
        <ele>1175.8</ele>
        <time>2020-07-24T14:02:00.000Z</time>
      </trkpt>
      <trkpt lat="44.86364" lon="5.37292">
        <ele>1175.5</ele>
        <time>2020-07-24T14:02:07.000Z</time>
      </trkpt>
      <trkpt lat="44.8637" lon="5.37301">
        <ele>1175.3</ele>
        <time>2020-07-24T14:02:14.000Z</time>
      </trkpt>
      <trkpt lat="44.86377" lon="5.37309">
        <ele>1175.1</ele>
        <time>2020-07-24T14:02:21.000Z</time>
      </trkpt>
      <trkpt lat="44.86385" lon="5.37317">
        <ele>1174.8</ele>
        <time>2020-07-24T14:02:29.000Z</time>
      </trkpt>
      <trkpt lat="44.86393" lon="5.37325">
        <ele>1174.4</ele>
        <time>2020-07-24T14:02:36.000Z</time>
      </trkpt>
      <trkpt lat="44.86401" lon="5.37334">
        <ele>1174.1</ele>
        <time>2020-07-24T14:02:43.000Z</time>
      </trkpt>
      <trkpt lat="44.86408" lon="5.37344">
        <ele>1173.9</ele>
        <time>2020-07-24T14:02:50.000Z</time>
      </trkpt>
      <trkpt lat="44.86414" lon="5.37354">
        <ele>1173.8</ele>
        <time>2020-07-24T14:02:57.000Z</time>
      </trkpt>
      <trkpt lat="44.86421" lon="5.37362">
        <ele>1173.3</ele>
        <time>2020-07-24T14:03:04.000Z</time>
      </trkpt>
      <trkpt lat="44.8643" lon="5.37368">
        <ele>1172.4</ele>
        <time>2020-07-24T14:03:12.000Z</time>
      </trkpt>
      <trkpt lat="44.86438" lon="5.37374">
        <ele>1171.6</ele>
        <time>2020-07-24T14:03:19.000Z</time>
      </trkpt>
      <trkpt lat="44.86446" lon="5.37383">
        <ele>1170.2</ele>
        <time>2020-07-24T14:03:26.000Z</time>
      </trkpt>
      <trkpt lat="44.8645" lon="5.37396">
        <ele>1168.8</ele>
        <time>2020-07-24T14:03:33.000Z</time>
      </trkpt>
      <trkpt lat="44.86452" lon="5.37409">
        <ele>1168</ele>
        <time>2020-07-24T14:03:40.000Z</time>
      </trkpt>
      <trkpt lat="44.86454" lon="5.37423">
        <ele>1167.5</ele>
        <time>2020-07-24T14:03:47.000Z</time>
      </trkpt>
      <trkpt lat="44.86453" lon="5.37437">
        <ele>1167</ele>
        <time>2020-07-24T14:03:54.000Z</time>
      </trkpt>
      <trkpt lat="44.86452" lon="5.3745">
        <ele>1166.7</ele>
        <time>2020-07-24T14:04:01.000Z</time>
      </trkpt>
      <trkpt lat="44.8645" lon="5.37464">
        <ele>1166.6</ele>
        <time>2020-07-24T14:04:08.000Z</time>
      </trkpt>
      <trkpt lat="44.86449" lon="5.37476">
        <ele>1166.2</ele>
        <time>2020-07-24T14:04:15.000Z</time>
      </trkpt>
      <trkpt lat="44.86448" lon="5.37489">
        <ele>1165.7</ele>
        <time>2020-07-24T14:04:22.000Z</time>
      </trkpt>
      <trkpt lat="44.86448" lon="5.37502">
        <ele>1165.2</ele>
        <time>2020-07-24T14:04:29.000Z</time>
      </trkpt>
      <trkpt lat="44.86445" lon="5.37514">
        <ele>1164.9</ele>
        <time>2020-07-24T14:04:36.000Z</time>
      </trkpt>
      <trkpt lat="44.86444" lon="5.37528">
        <ele>1164.7</ele>
        <time>2020-07-24T14:04:43.000Z</time>
      </trkpt>
      <trkpt lat="44.8644" lon="5.37541">
        <ele>1164</ele>
        <time>2020-07-24T14:04:51.000Z</time>
      </trkpt>
      <trkpt lat="44.86437" lon="5.37553">
        <ele>1163.6</ele>
        <time>2020-07-24T14:04:58.000Z</time>
      </trkpt>
      <trkpt lat="44.86435" lon="5.37566">
        <ele>1163.7</ele>
        <time>2020-07-24T14:05:07.000Z</time>
      </trkpt>
      <trkpt lat="44.86435" lon="5.3758">
        <ele>1163.8</ele>
        <time>2020-07-24T14:05:15.000Z</time>
      </trkpt>
      <trkpt lat="44.86433" lon="5.37594">
        <ele>1163.9</ele>
        <time>2020-07-24T14:05:23.000Z</time>
      </trkpt>
      <trkpt lat="44.8643" lon="5.37608">
        <ele>1163.9</ele>
        <time>2020-07-24T14:05:30.000Z</time>
      </trkpt>
      <trkpt lat="44.86428" lon="5.3762">
        <ele>1163.8</ele>
        <time>2020-07-24T14:05:37.000Z</time>
      </trkpt>
      <trkpt lat="44.86426" lon="5.37633">
        <ele>1163.9</ele>
        <time>2020-07-24T14:05:44.000Z</time>
      </trkpt>
      <trkpt lat="44.86425" lon="5.37647">
        <ele>1163.6</ele>
        <time>2020-07-24T14:05:51.000Z</time>
      </trkpt>
      <trkpt lat="44.86423" lon="5.3766">
        <ele>1163.3</ele>
        <time>2020-07-24T14:05:58.000Z</time>
      </trkpt>
      <trkpt lat="44.86422" lon="5.37674">
        <ele>1162.7</ele>
        <time>2020-07-24T14:06:05.000Z</time>
      </trkpt>
      <trkpt lat="44.86419" lon="5.37686">
        <ele>1162.7</ele>
        <time>2020-07-24T14:06:12.000Z</time>
      </trkpt>
      <trkpt lat="44.86416" lon="5.377">
        <ele>1162.6</ele>
        <time>2020-07-24T14:06:20.000Z</time>
      </trkpt>
      <trkpt lat="44.86414" lon="5.37714">
        <ele>1162.5</ele>
        <time>2020-07-24T14:06:28.000Z</time>
      </trkpt>
      <trkpt lat="44.86414" lon="5.37727">
        <ele>1162.2</ele>
        <time>2020-07-24T14:06:35.000Z</time>
      </trkpt>
      <trkpt lat="44.86411" lon="5.3774">
        <ele>1162.1</ele>
        <time>2020-07-24T14:06:42.000Z</time>
      </trkpt>
      <trkpt lat="44.86406" lon="5.37752">
        <ele>1161.9</ele>
        <time>2020-07-24T14:06:50.000Z</time>
      </trkpt>
      <trkpt lat="44.86403" lon="5.37764">
        <ele>1161.5</ele>
        <time>2020-07-24T14:06:58.000Z</time>
      </trkpt>
      <trkpt lat="44.86401" lon="5.37777">
        <ele>1161.1</ele>
        <time>2020-07-24T14:07:07.000Z</time>
      </trkpt>
      <trkpt lat="44.86397" lon="5.3779">
        <ele>1160.6</ele>
        <time>2020-07-24T14:07:15.000Z</time>
      </trkpt>
      <trkpt lat="44.8639" lon="5.37799">
        <ele>1159.8</ele>
        <time>2020-07-24T14:07:22.000Z</time>
      </trkpt>
      <trkpt lat="44.86383" lon="5.37808">
        <ele>1159.1</ele>
        <time>2020-07-24T14:07:29.000Z</time>
      </trkpt>
      <trkpt lat="44.86377" lon="5.37819">
        <ele>1158.5</ele>
        <time>2020-07-24T14:07:40.000Z</time>
      </trkpt>
      <trkpt lat="44.86369" lon="5.37827">
        <ele>1158.4</ele>
        <time>2020-07-24T14:07:49.000Z</time>
      </trkpt>
      <trkpt lat="44.86361" lon="5.37835">
        <ele>1158.4</ele>
        <time>2020-07-24T14:07:57.000Z</time>
      </trkpt>
      <trkpt lat="44.86355" lon="5.37844">
        <ele>1158.6</ele>
        <time>2020-07-24T14:08:06.000Z</time>
      </trkpt>
      <trkpt lat="44.86349" lon="5.37854">
        <ele>1159.2</ele>
        <time>2020-07-24T14:08:15.000Z</time>
      </trkpt>
      <trkpt lat="44.86345" lon="5.37866">
        <ele>1159.7</ele>
        <time>2020-07-24T14:08:23.000Z</time>
      </trkpt>
      <trkpt lat="44.86345" lon="5.37879">
        <ele>1160.3</ele>
        <time>2020-07-24T14:08:31.000Z</time>
      </trkpt>
      <trkpt lat="44.86352" lon="5.37889">
        <ele>1160.9</ele>
        <time>2020-07-24T14:08:41.000Z</time>
      </trkpt>
      <trkpt lat="44.86358" lon="5.37898">
        <ele>1161.4</ele>
        <time>2020-07-24T14:08:50.000Z</time>
      </trkpt>
      <trkpt lat="44.86367" lon="5.37902">
        <ele>1161.9</ele>
        <time>2020-07-24T14:08:59.000Z</time>
      </trkpt>
      <trkpt lat="44.86375" lon="5.37909">
        <ele>1162.1</ele>
        <time>2020-07-24T14:09:07.000Z</time>
      </trkpt>
      <trkpt lat="44.86383" lon="5.37916">
        <ele>1162.3</ele>
        <time>2020-07-24T14:09:15.000Z</time>
      </trkpt>
      <trkpt lat="44.86392" lon="5.37922">
        <ele>1162.4</ele>
        <time>2020-07-24T14:09:23.000Z</time>
      </trkpt>
      <trkpt lat="44.86402" lon="5.37927">
        <ele>1162.2</ele>
        <time>2020-07-24T14:09:31.000Z</time>
      </trkpt>
      <trkpt lat="44.86411" lon="5.37933">
        <ele>1161.9</ele>
        <time>2020-07-24T14:09:38.000Z</time>
      </trkpt>
      <trkpt lat="44.86419" lon="5.37938">
        <ele>1161.8</ele>
        <time>2020-07-24T14:09:45.000Z</time>
      </trkpt>
      <trkpt lat="44.86427" lon="5.37946">
        <ele>1161.7</ele>
        <time>2020-07-24T14:09:52.000Z</time>
      </trkpt>
      <trkpt lat="44.86434" lon="5.37954">
        <ele>1161.6</ele>
        <time>2020-07-24T14:09:59.000Z</time>
      </trkpt>
      <trkpt lat="44.8644" lon="5.37965">
        <ele>1161.6</ele>
        <time>2020-07-24T14:10:06.000Z</time>
      </trkpt>
      <trkpt lat="44.86442" lon="5.37979">
        <ele>1161.3</ele>
        <time>2020-07-24T14:10:13.000Z</time>
      </trkpt>
      <trkpt lat="44.8645" lon="5.37987">
        <ele>1161</ele>
        <time>2020-07-24T14:10:23.000Z</time>
      </trkpt>
      <trkpt lat="44.8646" lon="5.37986">
        <ele>1161</ele>
        <time>2020-07-24T14:10:32.000Z</time>
      </trkpt>
      <trkpt lat="44.86469" lon="5.37985">
        <ele>1160.9</ele>
        <time>2020-07-24T14:10:40.000Z</time>
      </trkpt>
      <trkpt lat="44.86478" lon="5.37984">
        <ele>1161</ele>
        <time>2020-07-24T14:10:47.000Z</time>
      </trkpt>
      <trkpt lat="44.86488" lon="5.37983">
        <ele>1160.9</ele>
        <time>2020-07-24T14:10:55.000Z</time>
      </trkpt>
      <trkpt lat="44.86498" lon="5.3798">
        <ele>1160.8</ele>
        <time>2020-07-24T14:11:03.000Z</time>
      </trkpt>
      <trkpt lat="44.86507" lon="5.3798">
        <ele>1160.8</ele>
        <time>2020-07-24T14:11:10.000Z</time>
      </trkpt>
      <trkpt lat="44.86516" lon="5.3798">
        <ele>1152.4</ele>
        <time>2020-07-24T14:11:16.000Z</time>
      </trkpt>
      <trkpt lat="44.86526" lon="5.37982">
        <ele>1164.4</ele>
        <time>2020-07-24T14:11:23.000Z</time>
      </trkpt>
      <trkpt lat="44.86536" lon="5.3798">
        <ele>1163.9</ele>
        <time>2020-07-24T14:11:30.000Z</time>
      </trkpt>
      <trkpt lat="44.86546" lon="5.37979">
        <ele>1160.6</ele>
        <time>2020-07-24T14:11:38.000Z</time>
      </trkpt>
      <trkpt lat="44.86556" lon="5.37978">
        <ele>1160.3</ele>
        <time>2020-07-24T14:11:45.000Z</time>
      </trkpt>
      <trkpt lat="44.86566" lon="5.37977">
        <ele>1157.3</ele>
        <time>2020-07-24T14:11:53.000Z</time>
      </trkpt>
      <trkpt lat="44.86576" lon="5.37977">
        <ele>1159.9</ele>
        <time>2020-07-24T14:12:00.000Z</time>
      </trkpt>
      <trkpt lat="44.86584" lon="5.37985">
        <ele>1159.7</ele>
        <time>2020-07-24T14:12:07.000Z</time>
      </trkpt>
      <trkpt lat="44.86594" lon="5.37983">
        <ele>1159.4</ele>
        <time>2020-07-24T14:12:14.000Z</time>
      </trkpt>
      <trkpt lat="44.86603" lon="5.3798">
        <ele>1159.1</ele>
        <time>2020-07-24T14:12:21.000Z</time>
      </trkpt>
      <trkpt lat="44.86612" lon="5.37977">
        <ele>1158.3</ele>
        <time>2020-07-24T14:12:29.000Z</time>
      </trkpt>
      <trkpt lat="44.86621" lon="5.37973">
        <ele>1157.8</ele>
        <time>2020-07-24T14:12:37.000Z</time>
      </trkpt>
      <trkpt lat="44.86631" lon="5.37972">
        <ele>1156.9</ele>
        <time>2020-07-24T14:12:46.000Z</time>
      </trkpt>
      <trkpt lat="44.86641" lon="5.3797">
        <ele>1155.5</ele>
        <time>2020-07-24T14:12:57.000Z</time>
      </trkpt>
      <trkpt lat="44.8665" lon="5.37971">
        <ele>1154.4</ele>
        <time>2020-07-24T14:13:06.000Z</time>
      </trkpt>
      <trkpt lat="44.8666" lon="5.37967">
        <ele>1153.1</ele>
        <time>2020-07-24T14:13:15.000Z</time>
      </trkpt>
      <trkpt lat="44.86671" lon="5.37963">
        <ele>1151.9</ele>
        <time>2020-07-24T14:13:23.000Z</time>
      </trkpt>
      <trkpt lat="44.8668" lon="5.37962">
        <ele>1151.3</ele>
        <time>2020-07-24T14:13:28.000Z</time>
      </trkpt>
      <trkpt lat="44.8669" lon="5.37961">
        <ele>1150.6</ele>
        <time>2020-07-24T14:13:34.000Z</time>
      </trkpt>
      <trkpt lat="44.867" lon="5.37961">
        <ele>1149.7</ele>
        <time>2020-07-24T14:13:41.000Z</time>
      </trkpt>
      <trkpt lat="44.8671" lon="5.37962">
        <ele>1149.3</ele>
        <time>2020-07-24T14:13:49.000Z</time>
      </trkpt>
      <trkpt lat="44.8672" lon="5.37962">
        <ele>1149.4</ele>
        <time>2020-07-24T14:13:57.000Z</time>
      </trkpt>
      <trkpt lat="44.8673" lon="5.37962">
        <ele>1148.8</ele>
        <time>2020-07-24T14:14:05.000Z</time>
      </trkpt>
      <trkpt lat="44.86739" lon="5.37961">
        <ele>1148.7</ele>
        <time>2020-07-24T14:14:12.000Z</time>
      </trkpt>
      <trkpt lat="44.86749" lon="5.37962">
        <ele>1148.5</ele>
        <time>2020-07-24T14:14:20.000Z</time>
      </trkpt>
      <trkpt lat="44.86759" lon="5.37961">
        <ele>1148.2</ele>
        <time>2020-07-24T14:14:29.000Z</time>
      </trkpt>
      <trkpt lat="44.86769" lon="5.37962">
        <ele>1147.8</ele>
        <time>2020-07-24T14:14:36.000Z</time>
      </trkpt>
      <trkpt lat="44.86778" lon="5.37962">
        <ele>1147.5</ele>
        <time>2020-07-24T14:14:44.000Z</time>
      </trkpt>
      <trkpt lat="44.86788" lon="5.37962">
        <ele>1147.1</ele>
        <time>2020-07-24T14:14:53.000Z</time>
      </trkpt>
      <trkpt lat="44.86798" lon="5.37962">
        <ele>1146.3</ele>
        <time>2020-07-24T14:15:03.000Z</time>
      </trkpt>
      <trkpt lat="44.86807" lon="5.37961">
        <ele>1146.3</ele>
        <time>2020-07-24T14:15:12.000Z</time>
      </trkpt>
      <trkpt lat="44.86817" lon="5.37961">
        <ele>1146.3</ele>
        <time>2020-07-24T14:15:18.000Z</time>
      </trkpt>
      <trkpt lat="44.86827" lon="5.3796">
        <ele>1146.3</ele>
        <time>2020-07-24T14:15:25.000Z</time>
      </trkpt>
      <trkpt lat="44.86836" lon="5.37962">
        <ele>1146.7</ele>
        <time>2020-07-24T14:15:32.000Z</time>
      </trkpt>
      <trkpt lat="44.86846" lon="5.37964">
        <ele>1146.6</ele>
        <time>2020-07-24T14:15:41.000Z</time>
      </trkpt>
      <trkpt lat="44.86856" lon="5.37965">
        <ele>1146.9</ele>
        <time>2020-07-24T14:15:49.000Z</time>
      </trkpt>
      <trkpt lat="44.86865" lon="5.37966">
        <ele>1147.6</ele>
        <time>2020-07-24T14:15:57.000Z</time>
      </trkpt>
      <trkpt lat="44.86875" lon="5.37967">
        <ele>1147.8</ele>
        <time>2020-07-24T14:16:06.000Z</time>
      </trkpt>
      <trkpt lat="44.86885" lon="5.37969">
        <ele>1147.7</ele>
        <time>2020-07-24T14:16:17.000Z</time>
      </trkpt>
      <trkpt lat="44.86895" lon="5.3797">
        <ele>1147.5</ele>
        <time>2020-07-24T14:16:24.000Z</time>
      </trkpt>
      <trkpt lat="44.86904" lon="5.37971">
        <ele>1147.1</ele>
        <time>2020-07-24T14:16:31.000Z</time>
      </trkpt>
      <trkpt lat="44.86913" lon="5.37974">
        <ele>1147.2</ele>
        <time>2020-07-24T14:16:38.000Z</time>
      </trkpt>
      <trkpt lat="44.86923" lon="5.37975">
        <ele>1147</ele>
        <time>2020-07-24T14:16:46.000Z</time>
      </trkpt>
      <trkpt lat="44.86932" lon="5.37976">
        <ele>1146.8</ele>
        <time>2020-07-24T14:16:54.000Z</time>
      </trkpt>
      <trkpt lat="44.86941" lon="5.3798">
        <ele>1146.4</ele>
        <time>2020-07-24T14:17:02.000Z</time>
      </trkpt>
      <trkpt lat="44.8695" lon="5.37982">
        <ele>1146.2</ele>
        <time>2020-07-24T14:17:09.000Z</time>
      </trkpt>
      <trkpt lat="44.86959" lon="5.37986">
        <ele>1145.8</ele>
        <time>2020-07-24T14:17:18.000Z</time>
      </trkpt>
      <trkpt lat="44.86968" lon="5.37987">
        <ele>1146</ele>
        <time>2020-07-24T14:17:25.000Z</time>
      </trkpt>
      <trkpt lat="44.86978" lon="5.3799">
        <ele>1145.1</ele>
        <time>2020-07-24T14:17:33.000Z</time>
      </trkpt>
      <trkpt lat="44.86988" lon="5.37994">
        <ele>1144.8</ele>
        <time>2020-07-24T14:17:42.000Z</time>
      </trkpt>
      <trkpt lat="44.86998" lon="5.37996">
        <ele>1144.6</ele>
        <time>2020-07-24T14:17:49.000Z</time>
      </trkpt>
      <trkpt lat="44.87007" lon="5.37998">
        <ele>1144.2</ele>
        <time>2020-07-24T14:17:57.000Z</time>
      </trkpt>
      <trkpt lat="44.87017" lon="5.37997">
        <ele>1143.9</ele>
        <time>2020-07-24T14:18:06.000Z</time>
      </trkpt>
      <trkpt lat="44.87027" lon="5.37999">
        <ele>1143.5</ele>
        <time>2020-07-24T14:18:13.000Z</time>
      </trkpt>
      <trkpt lat="44.87036" lon="5.38001">
        <ele>1143.1</ele>
        <time>2020-07-24T14:18:20.000Z</time>
      </trkpt>
      <trkpt lat="44.87046" lon="5.38004">
        <ele>1143</ele>
        <time>2020-07-24T14:18:26.000Z</time>
      </trkpt>
      <trkpt lat="44.87056" lon="5.38006">
        <ele>1142.5</ele>
        <time>2020-07-24T14:18:33.000Z</time>
      </trkpt>
      <trkpt lat="44.87065" lon="5.38008">
        <ele>1142.5</ele>
        <time>2020-07-24T14:18:40.000Z</time>
      </trkpt>
      <trkpt lat="44.87075" lon="5.38007">
        <ele>1142.1</ele>
        <time>2020-07-24T14:18:48.000Z</time>
      </trkpt>
      <trkpt lat="44.87085" lon="5.38004">
        <ele>1141.7</ele>
        <time>2020-07-24T14:18:56.000Z</time>
      </trkpt>
      <trkpt lat="44.87095" lon="5.38001">
        <ele>1141.8</ele>
        <time>2020-07-24T14:19:04.000Z</time>
      </trkpt>
      <trkpt lat="44.87104" lon="5.37997">
        <ele>1141</ele>
        <time>2020-07-24T14:19:12.000Z</time>
      </trkpt>
      <trkpt lat="44.87114" lon="5.37993">
        <ele>1140.5</ele>
        <time>2020-07-24T14:19:20.000Z</time>
      </trkpt>
      <trkpt lat="44.87123" lon="5.37987">
        <ele>1140</ele>
        <time>2020-07-24T14:19:28.000Z</time>
      </trkpt>
      <trkpt lat="44.87132" lon="5.37983">
        <ele>1139.4</ele>
        <time>2020-07-24T14:19:36.000Z</time>
      </trkpt>
      <trkpt lat="44.87142" lon="5.37981">
        <ele>1139.2</ele>
        <time>2020-07-24T14:19:44.000Z</time>
      </trkpt>
      <trkpt lat="44.87152" lon="5.3798">
        <ele>1139</ele>
        <time>2020-07-24T14:19:51.000Z</time>
      </trkpt>
      <trkpt lat="44.87163" lon="5.37978">
        <ele>1138.8</ele>
        <time>2020-07-24T14:19:58.000Z</time>
      </trkpt>
      <trkpt lat="44.87172" lon="5.37974">
        <ele>1138.2</ele>
        <time>2020-07-24T14:20:06.000Z</time>
      </trkpt>
      <trkpt lat="44.87179" lon="5.37966">
        <ele>1137.4</ele>
        <time>2020-07-24T14:20:15.000Z</time>
      </trkpt>
      <trkpt lat="44.87188" lon="5.37962">
        <ele>1136.6</ele>
        <time>2020-07-24T14:20:22.000Z</time>
      </trkpt>
      <trkpt lat="44.87198" lon="5.37957">
        <ele>1135.4</ele>
        <time>2020-07-24T14:20:30.000Z</time>
      </trkpt>
      <trkpt lat="44.87207" lon="5.37953">
        <ele>1134.9</ele>
        <time>2020-07-24T14:20:38.000Z</time>
      </trkpt>
      <trkpt lat="44.87217" lon="5.37952">
        <ele>1134.3</ele>
        <time>2020-07-24T14:20:45.000Z</time>
      </trkpt>
      <trkpt lat="44.87226" lon="5.37952">
        <ele>1133.7</ele>
        <time>2020-07-24T14:20:52.000Z</time>
      </trkpt>
      <trkpt lat="44.87236" lon="5.3795">
        <ele>1133.2</ele>
        <time>2020-07-24T14:20:59.000Z</time>
      </trkpt>
      <trkpt lat="44.87246" lon="5.37947">
        <ele>1132.7</ele>
        <time>2020-07-24T14:21:07.000Z</time>
      </trkpt>
      <trkpt lat="44.87254" lon="5.3794">
        <ele>1132.2</ele>
        <time>2020-07-24T14:21:14.000Z</time>
      </trkpt>
      <trkpt lat="44.87263" lon="5.37934">
        <ele>1131</ele>
        <time>2020-07-24T14:21:22.000Z</time>
      </trkpt>
      <trkpt lat="44.87272" lon="5.37935">
        <ele>1130.5</ele>
        <time>2020-07-24T14:21:29.000Z</time>
      </trkpt>
      <trkpt lat="44.87282" lon="5.37939">
        <ele>1130.5</ele>
        <time>2020-07-24T14:21:37.000Z</time>
      </trkpt>
      <trkpt lat="44.87292" lon="5.37943">
        <ele>1130</ele>
        <time>2020-07-24T14:21:45.000Z</time>
      </trkpt>
      <trkpt lat="44.87301" lon="5.37945">
        <ele>1129.7</ele>
        <time>2020-07-24T14:21:51.000Z</time>
      </trkpt>
      <trkpt lat="44.8731" lon="5.37947">
        <ele>1129.3</ele>
        <time>2020-07-24T14:21:58.000Z</time>
      </trkpt>
      <trkpt lat="44.87319" lon="5.3795">
        <ele>1128.9</ele>
        <time>2020-07-24T14:22:06.000Z</time>
      </trkpt>
      <trkpt lat="44.87328" lon="5.37952">
        <ele>1127.4</ele>
        <time>2020-07-24T14:22:56.000Z</time>
      </trkpt>
      <trkpt lat="44.87338" lon="5.37947">
        <ele>1127.5</ele>
        <time>2020-07-24T14:23:04.000Z</time>
      </trkpt>
      <trkpt lat="44.87346" lon="5.37944">
        <ele>1127.3</ele>
        <time>2020-07-24T14:23:10.000Z</time>
      </trkpt>
      <trkpt lat="44.87356" lon="5.3794">
        <ele>1127.1</ele>
        <time>2020-07-24T14:23:17.000Z</time>
      </trkpt>
      <trkpt lat="44.87364" lon="5.37934">
        <ele>1126.6</ele>
        <time>2020-07-24T14:23:24.000Z</time>
      </trkpt>
      <trkpt lat="44.87372" lon="5.37928">
        <ele>1126.4</ele>
        <time>2020-07-24T14:23:31.000Z</time>
      </trkpt>
      <trkpt lat="44.87382" lon="5.37927">
        <ele>1125.6</ele>
        <time>2020-07-24T14:23:38.000Z</time>
      </trkpt>
      <trkpt lat="44.87392" lon="5.37923">
        <ele>1125.7</ele>
        <time>2020-07-24T14:23:45.000Z</time>
      </trkpt>
      <trkpt lat="44.87402" lon="5.37919">
        <ele>1124.8</ele>
        <time>2020-07-24T14:23:52.000Z</time>
      </trkpt>
      <trkpt lat="44.87412" lon="5.37916">
        <ele>1125.2</ele>
        <time>2020-07-24T14:23:59.000Z</time>
      </trkpt>
      <trkpt lat="44.87421" lon="5.37914">
        <ele>1125.1</ele>
        <time>2020-07-24T14:24:05.000Z</time>
      </trkpt>
      <trkpt lat="44.87431" lon="5.37911">
        <ele>1124.9</ele>
        <time>2020-07-24T14:24:12.000Z</time>
      </trkpt>
      <trkpt lat="44.8744" lon="5.37907">
        <ele>1124.4</ele>
        <time>2020-07-24T14:24:19.000Z</time>
      </trkpt>
      <trkpt lat="44.8745" lon="5.37902">
        <ele>1123.9</ele>
        <time>2020-07-24T14:24:27.000Z</time>
      </trkpt>
      <trkpt lat="44.87459" lon="5.379">
        <ele>1124.7</ele>
        <time>2020-07-24T14:24:34.000Z</time>
      </trkpt>
      <trkpt lat="44.87468" lon="5.37896">
        <ele>1125</ele>
        <time>2020-07-24T14:24:41.000Z</time>
      </trkpt>
      <trkpt lat="44.87476" lon="5.37892">
        <ele>1124.4</ele>
        <time>2020-07-24T14:24:48.000Z</time>
      </trkpt>
      <trkpt lat="44.87486" lon="5.3789">
        <ele>1123.8</ele>
        <time>2020-07-24T14:24:56.000Z</time>
      </trkpt>
      <trkpt lat="44.87495" lon="5.37884">
        <ele>1124.2</ele>
        <time>2020-07-24T14:25:06.000Z</time>
      </trkpt>
      <trkpt lat="44.87504" lon="5.3788">
        <ele>1123.8</ele>
        <time>2020-07-24T14:25:12.000Z</time>
      </trkpt>
      <trkpt lat="44.87513" lon="5.37877">
        <ele>1123.1</ele>
        <time>2020-07-24T14:25:19.000Z</time>
      </trkpt>
      <trkpt lat="44.87522" lon="5.37874">
        <ele>1122.9</ele>
        <time>2020-07-24T14:25:26.000Z</time>
      </trkpt>
      <trkpt lat="44.87532" lon="5.37871">
        <ele>1122.8</ele>
        <time>2020-07-24T14:25:35.000Z</time>
      </trkpt>
      <trkpt lat="44.8754" lon="5.37867">
        <ele>1122.4</ele>
        <time>2020-07-24T14:25:44.000Z</time>
      </trkpt>
      <trkpt lat="44.8755" lon="5.37865">
        <ele>1122.5</ele>
        <time>2020-07-24T14:25:51.000Z</time>
      </trkpt>
      <trkpt lat="44.87559" lon="5.37861">
        <ele>1121.6</ele>
        <time>2020-07-24T14:25:58.000Z</time>
      </trkpt>
      <trkpt lat="44.87569" lon="5.37858">
        <ele>1121.5</ele>
        <time>2020-07-24T14:26:05.000Z</time>
      </trkpt>
      <trkpt lat="44.87579" lon="5.37855">
        <ele>1120.9</ele>
        <time>2020-07-24T14:26:12.000Z</time>
      </trkpt>
      <trkpt lat="44.87588" lon="5.3785">
        <ele>1120.6</ele>
        <time>2020-07-24T14:26:20.000Z</time>
      </trkpt>
      <trkpt lat="44.87598" lon="5.37847">
        <ele>1120.1</ele>
        <time>2020-07-24T14:26:27.000Z</time>
      </trkpt>
      <trkpt lat="44.87607" lon="5.37844">
        <ele>1119.4</ele>
        <time>2020-07-24T14:26:35.000Z</time>
      </trkpt>
      <trkpt lat="44.87617" lon="5.37842">
        <ele>1118.8</ele>
        <time>2020-07-24T14:26:43.000Z</time>
      </trkpt>
      <trkpt lat="44.87627" lon="5.37838">
        <ele>1119.2</ele>
        <time>2020-07-24T14:26:51.000Z</time>
      </trkpt>
      <trkpt lat="44.87636" lon="5.37835">
        <ele>1118.7</ele>
        <time>2020-07-24T14:26:59.000Z</time>
      </trkpt>
      <trkpt lat="44.87645" lon="5.37829">
        <ele>1118.5</ele>
        <time>2020-07-24T14:27:06.000Z</time>
      </trkpt>
      <trkpt lat="44.87654" lon="5.37826">
        <ele>1117.7</ele>
        <time>2020-07-24T14:27:14.000Z</time>
      </trkpt>
      <trkpt lat="44.87664" lon="5.37822">
        <ele>1117.2</ele>
        <time>2020-07-24T14:27:23.000Z</time>
      </trkpt>
      <trkpt lat="44.87674" lon="5.3782">
        <ele>1117.3</ele>
        <time>2020-07-24T14:27:30.000Z</time>
      </trkpt>
      <trkpt lat="44.87682" lon="5.37816">
        <ele>1116.6</ele>
        <time>2020-07-24T14:27:37.000Z</time>
      </trkpt>
      <trkpt lat="44.87691" lon="5.37811">
        <ele>1116.3</ele>
        <time>2020-07-24T14:27:44.000Z</time>
      </trkpt>
      <trkpt lat="44.877" lon="5.37808">
        <ele>1116.1</ele>
        <time>2020-07-24T14:27:50.000Z</time>
      </trkpt>
      <trkpt lat="44.8771" lon="5.37804">
        <ele>1115.2</ele>
        <time>2020-07-24T14:27:58.000Z</time>
      </trkpt>
      <trkpt lat="44.87719" lon="5.37802">
        <ele>1115.1</ele>
        <time>2020-07-24T14:28:05.000Z</time>
      </trkpt>
      <trkpt lat="44.87729" lon="5.37798">
        <ele>1115.5</ele>
        <time>2020-07-24T14:28:13.000Z</time>
      </trkpt>
      <trkpt lat="44.87738" lon="5.37795">
        <ele>1115.3</ele>
        <time>2020-07-24T14:28:20.000Z</time>
      </trkpt>
      <trkpt lat="44.87747" lon="5.3779">
        <ele>1114.9</ele>
        <time>2020-07-24T14:28:27.000Z</time>
      </trkpt>
      <trkpt lat="44.87757" lon="5.37786">
        <ele>1114.6</ele>
        <time>2020-07-24T14:28:35.000Z</time>
      </trkpt>
      <trkpt lat="44.87766" lon="5.37783">
        <ele>1114.4</ele>
        <time>2020-07-24T14:28:42.000Z</time>
      </trkpt>
      <trkpt lat="44.87775" lon="5.37779">
        <ele>1113.6</ele>
        <time>2020-07-24T14:28:49.000Z</time>
      </trkpt>
      <trkpt lat="44.87784" lon="5.37776">
        <ele>1112.7</ele>
        <time>2020-07-24T14:28:57.000Z</time>
      </trkpt>
      <trkpt lat="44.87794" lon="5.37774">
        <ele>1111.8</ele>
        <time>2020-07-24T14:29:04.000Z</time>
      </trkpt>
      <trkpt lat="44.87803" lon="5.37771">
        <ele>1112</ele>
        <time>2020-07-24T14:29:11.000Z</time>
      </trkpt>
      <trkpt lat="44.87812" lon="5.37767">
        <ele>1112.2</ele>
        <time>2020-07-24T14:29:18.000Z</time>
      </trkpt>
      <trkpt lat="44.87821" lon="5.37763">
        <ele>1111.7</ele>
        <time>2020-07-24T14:29:26.000Z</time>
      </trkpt>
      <trkpt lat="44.87831" lon="5.37759">
        <ele>1111.2</ele>
        <time>2020-07-24T14:29:33.000Z</time>
      </trkpt>
      <trkpt lat="44.8784" lon="5.37755">
        <ele>1111.4</ele>
        <time>2020-07-24T14:29:40.000Z</time>
      </trkpt>
      <trkpt lat="44.87849" lon="5.37752">
        <ele>1111.1</ele>
        <time>2020-07-24T14:29:47.000Z</time>
      </trkpt>
      <trkpt lat="44.87858" lon="5.37749">
        <ele>1109.8</ele>
        <time>2020-07-24T14:29:55.000Z</time>
      </trkpt>
      <trkpt lat="44.87868" lon="5.37745">
        <ele>1108.9</ele>
        <time>2020-07-24T14:30:03.000Z</time>
      </trkpt>
      <trkpt lat="44.87877" lon="5.37742">
        <ele>1108.6</ele>
        <time>2020-07-24T14:30:11.000Z</time>
      </trkpt>
      <trkpt lat="44.87886" lon="5.3774">
        <ele>1108.9</ele>
        <time>2020-07-24T14:30:18.000Z</time>
      </trkpt>
      <trkpt lat="44.87895" lon="5.37744">
        <ele>1108</ele>
        <time>2020-07-24T14:30:25.000Z</time>
      </trkpt>
      <trkpt lat="44.87904" lon="5.37751">
        <ele>1108.3</ele>
        <time>2020-07-24T14:30:34.000Z</time>
      </trkpt>
      <trkpt lat="44.87914" lon="5.37755">
        <ele>1107.8</ele>
        <time>2020-07-24T14:30:43.000Z</time>
      </trkpt>
      <trkpt lat="44.87904" lon="5.37753">
        <ele>1107.6</ele>
        <time>2020-07-24T14:34:02.000Z</time>
      </trkpt>
      <trkpt lat="44.87895" lon="5.37751">
        <ele>1107.1</ele>
        <time>2020-07-24T14:34:11.000Z</time>
      </trkpt>
      <trkpt lat="44.87904" lon="5.37756">
        <ele>1107.4</ele>
        <time>2020-07-24T14:35:48.000Z</time>
      </trkpt>
      <trkpt lat="44.87895" lon="5.37756">
        <ele>1106.1</ele>
        <time>2020-07-24T14:37:20.000Z</time>
      </trkpt>
      <trkpt lat="44.87896" lon="5.37752">
        <ele>1101.8</ele>
        <time>2020-07-24T14:44:04.000Z</time>
      </trkpt>
    </trkseg>
  </trk>
</gpx>